<?xml version="1.0" encoding="UTF-8" standalone="no" ?>
<gpx xmlns="http://www.topografix.com/GPX/1/1" xmlns:xsi="http://www.w3.org/2001/XMLSchema-instance" xsi:schemaLocation="http://www.topografix.com/GPX/1/1 http://www.topografix.com/GPX/1/1/gpx.xsd" version="1.1" creator="VisuGPX - https://www.visugpx.com">
  <metadata>
    <name>Rando en groupe du 22 Novembre 2011 </name>
    <desc><![CDATA[Du village d\'Utelle à la Madone d\'Utelle]]></desc>
  </metadata>
  <trk>
    <name><![CDATA[2011-11-22 10:03]]></name>
    <desc><![CDATA[Utelle]]></desc>
    <trkseg>
      <trkpt lat="43.91619" lon="7.24889">
        <ele>855</ele>
        <time>2011-11-22T09:03:13Z</time>
      </trkpt>
      <trkpt lat="43.91616" lon="7.24878">
        <ele>852</ele>
        <time>2011-11-22T09:03:41Z</time>
      </trkpt>
      <trkpt lat="43.91616" lon="7.24878">
        <ele>852</ele>
        <time>2011-11-22T09:03:41Z</time>
      </trkpt>
      <trkpt lat="43.91616" lon="7.24878">
        <ele>853</ele>
        <time>2011-11-22T09:03:43Z</time>
      </trkpt>
      <trkpt lat="43.91621" lon="7.2488">
        <ele>843</ele>
        <time>2011-11-22T09:04:07Z</time>
      </trkpt>
      <trkpt lat="43.91617" lon="7.24877">
        <ele>845</ele>
        <time>2011-11-22T09:04:20Z</time>
      </trkpt>
      <trkpt lat="43.91617" lon="7.24877">
        <ele>845</ele>
        <time>2011-11-22T09:04:20Z</time>
      </trkpt>
      <trkpt lat="43.91617" lon="7.24877">
        <ele>845</ele>
        <time>2011-11-22T09:04:22Z</time>
      </trkpt>
      <trkpt lat="43.91622" lon="7.24877">
        <ele>844</ele>
        <time>2011-11-22T09:04:36Z</time>
      </trkpt>
      <trkpt lat="43.91626" lon="7.24876">
        <ele>844</ele>
        <time>2011-11-22T09:04:50Z</time>
      </trkpt>
      <trkpt lat="43.91631" lon="7.24871">
        <ele>846</ele>
        <time>2011-11-22T09:04:56Z</time>
      </trkpt>
      <trkpt lat="43.91637" lon="7.24868">
        <ele>848</ele>
        <time>2011-11-22T09:04:59Z</time>
      </trkpt>
      <trkpt lat="43.91642" lon="7.24867">
        <ele>849</ele>
        <time>2011-11-22T09:05:04Z</time>
      </trkpt>
      <trkpt lat="43.91648" lon="7.24868">
        <ele>852</ele>
        <time>2011-11-22T09:05:16Z</time>
      </trkpt>
      <trkpt lat="43.91652" lon="7.24866">
        <ele>855</ele>
        <time>2011-11-22T09:05:23Z</time>
      </trkpt>
      <trkpt lat="43.91657" lon="7.24866">
        <ele>854</ele>
        <time>2011-11-22T09:05:26Z</time>
      </trkpt>
      <trkpt lat="43.9166" lon="7.24862">
        <ele>856</ele>
        <time>2011-11-22T09:05:30Z</time>
      </trkpt>
      <trkpt lat="43.91664" lon="7.24857">
        <ele>855</ele>
        <time>2011-11-22T09:05:33Z</time>
      </trkpt>
      <trkpt lat="43.91669" lon="7.24852">
        <ele>857</ele>
        <time>2011-11-22T09:05:39Z</time>
      </trkpt>
      <trkpt lat="43.91667" lon="7.24846">
        <ele>859</ele>
        <time>2011-11-22T09:05:49Z</time>
      </trkpt>
      <trkpt lat="43.9167" lon="7.2484">
        <ele>857</ele>
        <time>2011-11-22T09:05:53Z</time>
      </trkpt>
      <trkpt lat="43.91673" lon="7.24833">
        <ele>854</ele>
        <time>2011-11-22T09:05:57Z</time>
      </trkpt>
      <trkpt lat="43.91678" lon="7.24829">
        <ele>851</ele>
        <time>2011-11-22T09:06:01Z</time>
      </trkpt>
      <trkpt lat="43.9168" lon="7.24822">
        <ele>848</ele>
        <time>2011-11-22T09:06:23Z</time>
      </trkpt>
      <trkpt lat="43.9168" lon="7.24816">
        <ele>848</ele>
        <time>2011-11-22T09:06:29Z</time>
      </trkpt>
      <trkpt lat="43.9168" lon="7.24816">
        <ele>848</ele>
        <time>2011-11-22T09:06:29Z</time>
      </trkpt>
      <trkpt lat="43.9168" lon="7.24816">
        <ele>850</ele>
        <time>2011-11-22T09:08:02Z</time>
      </trkpt>
      <trkpt lat="43.91684" lon="7.24813">
        <ele>853</ele>
        <time>2011-11-22T09:08:16Z</time>
      </trkpt>
      <trkpt lat="43.91689" lon="7.24813">
        <ele>853</ele>
        <time>2011-11-22T09:08:21Z</time>
      </trkpt>
      <trkpt lat="43.91694" lon="7.24812">
        <ele>853</ele>
        <time>2011-11-22T09:08:29Z</time>
      </trkpt>
      <trkpt lat="43.91699" lon="7.24812">
        <ele>854</ele>
        <time>2011-11-22T09:08:32Z</time>
      </trkpt>
      <trkpt lat="43.91704" lon="7.24808">
        <ele>855</ele>
        <time>2011-11-22T09:08:36Z</time>
      </trkpt>
      <trkpt lat="43.91709" lon="7.24805">
        <ele>856</ele>
        <time>2011-11-22T09:08:40Z</time>
      </trkpt>
      <trkpt lat="43.91714" lon="7.24804">
        <ele>856</ele>
        <time>2011-11-22T09:08:45Z</time>
      </trkpt>
      <trkpt lat="43.91718" lon="7.24801">
        <ele>855</ele>
        <time>2011-11-22T09:08:49Z</time>
      </trkpt>
      <trkpt lat="43.91723" lon="7.24803">
        <ele>856</ele>
        <time>2011-11-22T09:08:54Z</time>
      </trkpt>
      <trkpt lat="43.91728" lon="7.24805">
        <ele>855</ele>
        <time>2011-11-22T09:08:57Z</time>
      </trkpt>
      <trkpt lat="43.91732" lon="7.24798">
        <ele>855</ele>
        <time>2011-11-22T09:09:03Z</time>
      </trkpt>
      <trkpt lat="43.91735" lon="7.24793">
        <ele>855</ele>
        <time>2011-11-22T09:09:08Z</time>
      </trkpt>
      <trkpt lat="43.91738" lon="7.24788">
        <ele>857</ele>
        <time>2011-11-22T09:09:13Z</time>
      </trkpt>
      <trkpt lat="43.91736" lon="7.24782">
        <ele>859</ele>
        <time>2011-11-22T09:09:19Z</time>
      </trkpt>
      <trkpt lat="43.91739" lon="7.24776">
        <ele>859</ele>
        <time>2011-11-22T09:09:22Z</time>
      </trkpt>
      <trkpt lat="43.91746" lon="7.24776">
        <ele>858</ele>
        <time>2011-11-22T09:09:26Z</time>
      </trkpt>
      <trkpt lat="43.91751" lon="7.24775">
        <ele>858</ele>
        <time>2011-11-22T09:09:30Z</time>
      </trkpt>
      <trkpt lat="43.91754" lon="7.24769">
        <ele>857</ele>
        <time>2011-11-22T09:09:36Z</time>
      </trkpt>
      <trkpt lat="43.91758" lon="7.24765">
        <ele>856</ele>
        <time>2011-11-22T09:09:40Z</time>
      </trkpt>
      <trkpt lat="43.9176" lon="7.24759">
        <ele>856</ele>
        <time>2011-11-22T09:09:44Z</time>
      </trkpt>
      <trkpt lat="43.91763" lon="7.24752">
        <ele>856</ele>
        <time>2011-11-22T09:09:50Z</time>
      </trkpt>
      <trkpt lat="43.91764" lon="7.24746">
        <ele>856</ele>
        <time>2011-11-22T09:09:55Z</time>
      </trkpt>
      <trkpt lat="43.91766" lon="7.24739">
        <ele>853</ele>
        <time>2011-11-22T09:10:04Z</time>
      </trkpt>
      <trkpt lat="43.91769" lon="7.24734">
        <ele>854</ele>
        <time>2011-11-22T09:10:09Z</time>
      </trkpt>
      <trkpt lat="43.91772" lon="7.24729">
        <ele>854</ele>
        <time>2011-11-22T09:10:12Z</time>
      </trkpt>
      <trkpt lat="43.91773" lon="7.24722">
        <ele>855</ele>
        <time>2011-11-22T09:10:17Z</time>
      </trkpt>
      <trkpt lat="43.91777" lon="7.24716">
        <ele>855</ele>
        <time>2011-11-22T09:10:22Z</time>
      </trkpt>
      <trkpt lat="43.91779" lon="7.2471">
        <ele>854</ele>
        <time>2011-11-22T09:10:27Z</time>
      </trkpt>
      <trkpt lat="43.91782" lon="7.24705">
        <ele>855</ele>
        <time>2011-11-22T09:10:31Z</time>
      </trkpt>
      <trkpt lat="43.91789" lon="7.24703">
        <ele>855</ele>
        <time>2011-11-22T09:10:35Z</time>
      </trkpt>
      <trkpt lat="43.91793" lon="7.24698">
        <ele>854</ele>
        <time>2011-11-22T09:10:40Z</time>
      </trkpt>
      <trkpt lat="43.91797" lon="7.24695">
        <ele>855</ele>
        <time>2011-11-22T09:10:45Z</time>
      </trkpt>
      <trkpt lat="43.91798" lon="7.24688">
        <ele>857</ele>
        <time>2011-11-22T09:10:49Z</time>
      </trkpt>
      <trkpt lat="43.91801" lon="7.24682">
        <ele>857</ele>
        <time>2011-11-22T09:10:54Z</time>
      </trkpt>
      <trkpt lat="43.91802" lon="7.24675">
        <ele>859</ele>
        <time>2011-11-22T09:10:58Z</time>
      </trkpt>
      <trkpt lat="43.91805" lon="7.2467">
        <ele>860</ele>
        <time>2011-11-22T09:11:03Z</time>
      </trkpt>
      <trkpt lat="43.91808" lon="7.24665">
        <ele>860</ele>
        <time>2011-11-22T09:11:08Z</time>
      </trkpt>
      <trkpt lat="43.91811" lon="7.24658">
        <ele>861</ele>
        <time>2011-11-22T09:11:14Z</time>
      </trkpt>
      <trkpt lat="43.91812" lon="7.24652">
        <ele>861</ele>
        <time>2011-11-22T09:11:19Z</time>
      </trkpt>
      <trkpt lat="43.91816" lon="7.24646">
        <ele>861</ele>
        <time>2011-11-22T09:11:24Z</time>
      </trkpt>
      <trkpt lat="43.9182" lon="7.24642">
        <ele>860</ele>
        <time>2011-11-22T09:11:29Z</time>
      </trkpt>
      <trkpt lat="43.91823" lon="7.24636">
        <ele>862</ele>
        <time>2011-11-22T09:11:34Z</time>
      </trkpt>
      <trkpt lat="43.91826" lon="7.2463">
        <ele>863</ele>
        <time>2011-11-22T09:11:39Z</time>
      </trkpt>
      <trkpt lat="43.91829" lon="7.24624">
        <ele>864</ele>
        <time>2011-11-22T09:11:44Z</time>
      </trkpt>
      <trkpt lat="43.91833" lon="7.24619">
        <ele>863</ele>
        <time>2011-11-22T09:11:48Z</time>
      </trkpt>
      <trkpt lat="43.91837" lon="7.24615">
        <ele>863</ele>
        <time>2011-11-22T09:11:53Z</time>
      </trkpt>
      <trkpt lat="43.9184" lon="7.2461">
        <ele>863</ele>
        <time>2011-11-22T09:11:58Z</time>
      </trkpt>
      <trkpt lat="43.91844" lon="7.24605">
        <ele>864</ele>
        <time>2011-11-22T09:12:02Z</time>
      </trkpt>
      <trkpt lat="43.91846" lon="7.24599">
        <ele>865</ele>
        <time>2011-11-22T09:12:08Z</time>
      </trkpt>
      <trkpt lat="43.91849" lon="7.24592">
        <ele>863</ele>
        <time>2011-11-22T09:12:13Z</time>
      </trkpt>
      <trkpt lat="43.91852" lon="7.24586">
        <ele>864</ele>
        <time>2011-11-22T09:12:18Z</time>
      </trkpt>
      <trkpt lat="43.91854" lon="7.2458">
        <ele>864</ele>
        <time>2011-11-22T09:12:23Z</time>
      </trkpt>
      <trkpt lat="43.91856" lon="7.24575">
        <ele>865</ele>
        <time>2011-11-22T09:12:28Z</time>
      </trkpt>
      <trkpt lat="43.9186" lon="7.2457">
        <ele>865</ele>
        <time>2011-11-22T09:12:33Z</time>
      </trkpt>
      <trkpt lat="43.91864" lon="7.24564">
        <ele>866</ele>
        <time>2011-11-22T09:12:39Z</time>
      </trkpt>
      <trkpt lat="43.91867" lon="7.24557">
        <ele>868</ele>
        <time>2011-11-22T09:12:44Z</time>
      </trkpt>
      <trkpt lat="43.91869" lon="7.24551">
        <ele>869</ele>
        <time>2011-11-22T09:12:50Z</time>
      </trkpt>
      <trkpt lat="43.91872" lon="7.24546">
        <ele>870</ele>
        <time>2011-11-22T09:12:56Z</time>
      </trkpt>
      <trkpt lat="43.91875" lon="7.2454">
        <ele>870</ele>
        <time>2011-11-22T09:13:01Z</time>
      </trkpt>
      <trkpt lat="43.91877" lon="7.24533">
        <ele>871</ele>
        <time>2011-11-22T09:13:08Z</time>
      </trkpt>
      <trkpt lat="43.91881" lon="7.24529">
        <ele>869</ele>
        <time>2011-11-22T09:13:21Z</time>
      </trkpt>
      <trkpt lat="43.91886" lon="7.24525">
        <ele>869</ele>
        <time>2011-11-22T09:13:26Z</time>
      </trkpt>
      <trkpt lat="43.91891" lon="7.24524">
        <ele>869</ele>
        <time>2011-11-22T09:13:30Z</time>
      </trkpt>
      <trkpt lat="43.91895" lon="7.24522">
        <ele>869</ele>
        <time>2011-11-22T09:13:35Z</time>
      </trkpt>
      <trkpt lat="43.919" lon="7.2452">
        <ele>870</ele>
        <time>2011-11-22T09:13:41Z</time>
      </trkpt>
      <trkpt lat="43.91905" lon="7.24518">
        <ele>871</ele>
        <time>2011-11-22T09:13:49Z</time>
      </trkpt>
      <trkpt lat="43.9191" lon="7.24519">
        <ele>871</ele>
        <time>2011-11-22T09:13:55Z</time>
      </trkpt>
      <trkpt lat="43.91914" lon="7.24517">
        <ele>871</ele>
        <time>2011-11-22T09:14:02Z</time>
      </trkpt>
      <trkpt lat="43.91919" lon="7.24514">
        <ele>871</ele>
        <time>2011-11-22T09:14:09Z</time>
      </trkpt>
      <trkpt lat="43.91925" lon="7.24513">
        <ele>872</ele>
        <time>2011-11-22T09:14:16Z</time>
      </trkpt>
      <trkpt lat="43.91928" lon="7.2451">
        <ele>871</ele>
        <time>2011-11-22T09:14:23Z</time>
      </trkpt>
      <trkpt lat="43.91932" lon="7.24506">
        <ele>874</ele>
        <time>2011-11-22T09:14:30Z</time>
      </trkpt>
      <trkpt lat="43.91937" lon="7.24502">
        <ele>877</ele>
        <time>2011-11-22T09:14:38Z</time>
      </trkpt>
      <trkpt lat="43.9194" lon="7.24497">
        <ele>878</ele>
        <time>2011-11-22T09:14:47Z</time>
      </trkpt>
      <trkpt lat="43.91942" lon="7.24491">
        <ele>879</ele>
        <time>2011-11-22T09:14:53Z</time>
      </trkpt>
      <trkpt lat="43.91947" lon="7.24488">
        <ele>879</ele>
        <time>2011-11-22T09:14:59Z</time>
      </trkpt>
      <trkpt lat="43.91949" lon="7.24483">
        <ele>879</ele>
        <time>2011-11-22T09:15:05Z</time>
      </trkpt>
      <trkpt lat="43.91953" lon="7.24479">
        <ele>878</ele>
        <time>2011-11-22T09:15:11Z</time>
      </trkpt>
      <trkpt lat="43.91953" lon="7.24479">
        <ele>878</ele>
        <time>2011-11-22T09:15:11Z</time>
      </trkpt>
      <trkpt lat="43.91953" lon="7.24479">
        <ele>879</ele>
        <time>2011-11-22T09:15:12Z</time>
      </trkpt>
      <trkpt lat="43.91958" lon="7.24481">
        <ele>878</ele>
        <time>2011-11-22T09:15:18Z</time>
      </trkpt>
      <trkpt lat="43.91963" lon="7.24478">
        <ele>880</ele>
        <time>2011-11-22T09:15:26Z</time>
      </trkpt>
      <trkpt lat="43.91968" lon="7.24478">
        <ele>881</ele>
        <time>2011-11-22T09:15:32Z</time>
      </trkpt>
      <trkpt lat="43.91972" lon="7.24475">
        <ele>882</ele>
        <time>2011-11-22T09:15:39Z</time>
      </trkpt>
      <trkpt lat="43.91976" lon="7.2447">
        <ele>885</ele>
        <time>2011-11-22T09:15:52Z</time>
      </trkpt>
      <trkpt lat="43.9198" lon="7.24467">
        <ele>886</ele>
        <time>2011-11-22T09:15:58Z</time>
      </trkpt>
      <trkpt lat="43.91985" lon="7.24466">
        <ele>886</ele>
        <time>2011-11-22T09:16:09Z</time>
      </trkpt>
      <trkpt lat="43.9199" lon="7.24464">
        <ele>886</ele>
        <time>2011-11-22T09:16:18Z</time>
      </trkpt>
      <trkpt lat="43.91994" lon="7.2446">
        <ele>884</ele>
        <time>2011-11-22T09:16:23Z</time>
      </trkpt>
      <trkpt lat="43.91998" lon="7.24456">
        <ele>886</ele>
        <time>2011-11-22T09:16:30Z</time>
      </trkpt>
      <trkpt lat="43.92002" lon="7.24453">
        <ele>888</ele>
        <time>2011-11-22T09:16:35Z</time>
      </trkpt>
      <trkpt lat="43.92006" lon="7.24451">
        <ele>888</ele>
        <time>2011-11-22T09:16:42Z</time>
      </trkpt>
      <trkpt lat="43.9201" lon="7.24447">
        <ele>888</ele>
        <time>2011-11-22T09:16:49Z</time>
      </trkpt>
      <trkpt lat="43.92014" lon="7.24445">
        <ele>890</ele>
        <time>2011-11-22T09:16:56Z</time>
      </trkpt>
      <trkpt lat="43.92016" lon="7.24439">
        <ele>893</ele>
        <time>2011-11-22T09:17:05Z</time>
      </trkpt>
      <trkpt lat="43.92016" lon="7.24439">
        <ele>893</ele>
        <time>2011-11-22T09:17:05Z</time>
      </trkpt>
      <trkpt lat="43.92016" lon="7.24439">
        <ele>894</ele>
        <time>2011-11-22T09:17:28Z</time>
      </trkpt>
      <trkpt lat="43.92017" lon="7.24432">
        <ele>895</ele>
        <time>2011-11-22T09:17:42Z</time>
      </trkpt>
      <trkpt lat="43.92021" lon="7.24427">
        <ele>894</ele>
        <time>2011-11-22T09:17:49Z</time>
      </trkpt>
      <trkpt lat="43.92023" lon="7.24421">
        <ele>896</ele>
        <time>2011-11-22T09:17:57Z</time>
      </trkpt>
      <trkpt lat="43.92027" lon="7.24416">
        <ele>897</ele>
        <time>2011-11-22T09:18:04Z</time>
      </trkpt>
      <trkpt lat="43.9203" lon="7.24412">
        <ele>898</ele>
        <time>2011-11-22T09:18:09Z</time>
      </trkpt>
      <trkpt lat="43.92028" lon="7.24407">
        <ele>902</ele>
        <time>2011-11-22T09:18:30Z</time>
      </trkpt>
      <trkpt lat="43.92032" lon="7.24402">
        <ele>902</ele>
        <time>2011-11-22T09:18:39Z</time>
      </trkpt>
      <trkpt lat="43.92035" lon="7.24397">
        <ele>902</ele>
        <time>2011-11-22T09:18:45Z</time>
      </trkpt>
      <trkpt lat="43.92038" lon="7.24391">
        <ele>901</ele>
        <time>2011-11-22T09:18:55Z</time>
      </trkpt>
      <trkpt lat="43.92042" lon="7.24387">
        <ele>901</ele>
        <time>2011-11-22T09:19:05Z</time>
      </trkpt>
      <trkpt lat="43.92043" lon="7.24382">
        <ele>906</ele>
        <time>2011-11-22T09:19:15Z</time>
      </trkpt>
      <trkpt lat="43.92045" lon="7.24376">
        <ele>908</ele>
        <time>2011-11-22T09:19:23Z</time>
      </trkpt>
      <trkpt lat="43.92049" lon="7.24372">
        <ele>908</ele>
        <time>2011-11-22T09:19:30Z</time>
      </trkpt>
      <trkpt lat="43.92051" lon="7.24366">
        <ele>909</ele>
        <time>2011-11-22T09:19:37Z</time>
      </trkpt>
      <trkpt lat="43.92052" lon="7.2436">
        <ele>911</ele>
        <time>2011-11-22T09:19:47Z</time>
      </trkpt>
      <trkpt lat="43.9205" lon="7.24354">
        <ele>916</ele>
        <time>2011-11-22T09:20:04Z</time>
      </trkpt>
      <trkpt lat="43.9205" lon="7.24354">
        <ele>916</ele>
        <time>2011-11-22T09:20:04Z</time>
      </trkpt>
      <trkpt lat="43.9205" lon="7.24354">
        <ele>917</ele>
        <time>2011-11-22T09:20:07Z</time>
      </trkpt>
      <trkpt lat="43.92048" lon="7.24347">
        <ele>919</ele>
        <time>2011-11-22T09:20:16Z</time>
      </trkpt>
      <trkpt lat="43.92048" lon="7.2434">
        <ele>919</ele>
        <time>2011-11-22T09:20:22Z</time>
      </trkpt>
      <trkpt lat="43.92048" lon="7.24333">
        <ele>922</ele>
        <time>2011-11-22T09:20:29Z</time>
      </trkpt>
      <trkpt lat="43.92045" lon="7.24327">
        <ele>925</ele>
        <time>2011-11-22T09:20:52Z</time>
      </trkpt>
      <trkpt lat="43.92043" lon="7.2432">
        <ele>927</ele>
        <time>2011-11-22T09:20:57Z</time>
      </trkpt>
      <trkpt lat="43.92039" lon="7.24316">
        <ele>927</ele>
        <time>2011-11-22T09:21:03Z</time>
      </trkpt>
      <trkpt lat="43.92035" lon="7.24313">
        <ele>929</ele>
        <time>2011-11-22T09:21:11Z</time>
      </trkpt>
      <trkpt lat="43.92031" lon="7.24308">
        <ele>930</ele>
        <time>2011-11-22T09:21:18Z</time>
      </trkpt>
      <trkpt lat="43.92031" lon="7.24308">
        <ele>930</ele>
        <time>2011-11-22T09:21:18Z</time>
      </trkpt>
      <trkpt lat="43.92031" lon="7.24308">
        <ele>930</ele>
        <time>2011-11-22T09:21:27Z</time>
      </trkpt>
      <trkpt lat="43.9203" lon="7.24301">
        <ele>932</ele>
        <time>2011-11-22T09:21:34Z</time>
      </trkpt>
      <trkpt lat="43.92027" lon="7.24295">
        <ele>934</ele>
        <time>2011-11-22T09:21:41Z</time>
      </trkpt>
      <trkpt lat="43.92023" lon="7.24291">
        <ele>933</ele>
        <time>2011-11-22T09:21:50Z</time>
      </trkpt>
      <trkpt lat="43.92023" lon="7.24291">
        <ele>933</ele>
        <time>2011-11-22T09:21:50Z</time>
      </trkpt>
      <trkpt lat="43.92023" lon="7.24291">
        <ele>934</ele>
        <time>2011-11-22T09:21:51Z</time>
      </trkpt>
      <trkpt lat="43.92018" lon="7.24286">
        <ele>934</ele>
        <time>2011-11-22T09:21:59Z</time>
      </trkpt>
      <trkpt lat="43.92018" lon="7.24286">
        <ele>934</ele>
        <time>2011-11-22T09:21:59Z</time>
      </trkpt>
      <trkpt lat="43.92018" lon="7.24286">
        <ele>935</ele>
        <time>2011-11-22T09:22:00Z</time>
      </trkpt>
      <trkpt lat="43.92015" lon="7.24282">
        <ele>935</ele>
        <time>2011-11-22T09:22:16Z</time>
      </trkpt>
      <trkpt lat="43.92009" lon="7.24281">
        <ele>935</ele>
        <time>2011-11-22T09:22:22Z</time>
      </trkpt>
      <trkpt lat="43.92005" lon="7.24281">
        <ele>936</ele>
        <time>2011-11-22T09:22:27Z</time>
      </trkpt>
      <trkpt lat="43.91999" lon="7.24283">
        <ele>936</ele>
        <time>2011-11-22T09:22:39Z</time>
      </trkpt>
      <trkpt lat="43.91996" lon="7.24277">
        <ele>935</ele>
        <time>2011-11-22T09:22:41Z</time>
      </trkpt>
      <trkpt lat="43.91992" lon="7.24271">
        <ele>933</ele>
        <time>2011-11-22T09:22:44Z</time>
      </trkpt>
      <trkpt lat="43.91992" lon="7.24271">
        <ele>933</ele>
        <time>2011-11-22T09:22:44Z</time>
      </trkpt>
      <trkpt lat="43.91992" lon="7.24271">
        <ele>933</ele>
        <time>2011-11-22T09:22:45Z</time>
      </trkpt>
      <trkpt lat="43.91987" lon="7.24268">
        <ele>936</ele>
        <time>2011-11-22T09:22:52Z</time>
      </trkpt>
      <trkpt lat="43.91984" lon="7.24264">
        <ele>937</ele>
        <time>2011-11-22T09:23:04Z</time>
      </trkpt>
      <trkpt lat="43.91979" lon="7.24261">
        <ele>940</ele>
        <time>2011-11-22T09:23:10Z</time>
      </trkpt>
      <trkpt lat="43.91976" lon="7.24256">
        <ele>941</ele>
        <time>2011-11-22T09:23:21Z</time>
      </trkpt>
      <trkpt lat="43.91974" lon="7.24251">
        <ele>941</ele>
        <time>2011-11-22T09:23:27Z</time>
      </trkpt>
      <trkpt lat="43.9197" lon="7.24246">
        <ele>939</ele>
        <time>2011-11-22T09:23:33Z</time>
      </trkpt>
      <trkpt lat="43.91965" lon="7.24244">
        <ele>938</ele>
        <time>2011-11-22T09:23:43Z</time>
      </trkpt>
      <trkpt lat="43.91964" lon="7.24235">
        <ele>937</ele>
        <time>2011-11-22T09:23:48Z</time>
      </trkpt>
      <trkpt lat="43.91967" lon="7.2423">
        <ele>936</ele>
        <time>2011-11-22T09:23:52Z</time>
      </trkpt>
      <trkpt lat="43.91972" lon="7.24229">
        <ele>934</ele>
        <time>2011-11-22T09:24:02Z</time>
      </trkpt>
      <trkpt lat="43.91978" lon="7.24231">
        <ele>934</ele>
        <time>2011-11-22T09:24:11Z</time>
      </trkpt>
      <trkpt lat="43.91983" lon="7.24233">
        <ele>935</ele>
        <time>2011-11-22T09:24:15Z</time>
      </trkpt>
      <trkpt lat="43.91988" lon="7.24236">
        <ele>933</ele>
        <time>2011-11-22T09:25:51Z</time>
      </trkpt>
      <trkpt lat="43.91993" lon="7.24237">
        <ele>932</ele>
        <time>2011-11-22T09:25:56Z</time>
      </trkpt>
      <trkpt lat="43.91998" lon="7.24235">
        <ele>934</ele>
        <time>2011-11-22T09:26:04Z</time>
      </trkpt>
      <trkpt lat="43.92002" lon="7.24231">
        <ele>934</ele>
        <time>2011-11-22T09:26:15Z</time>
      </trkpt>
      <trkpt lat="43.92004" lon="7.24225">
        <ele>933</ele>
        <time>2011-11-22T09:26:21Z</time>
      </trkpt>
      <trkpt lat="43.92007" lon="7.2422">
        <ele>932</ele>
        <time>2011-11-22T09:26:27Z</time>
      </trkpt>
      <trkpt lat="43.92011" lon="7.24215">
        <ele>931</ele>
        <time>2011-11-22T09:26:33Z</time>
      </trkpt>
      <trkpt lat="43.92015" lon="7.24211">
        <ele>930</ele>
        <time>2011-11-22T09:26:39Z</time>
      </trkpt>
      <trkpt lat="43.9202" lon="7.24209">
        <ele>929</ele>
        <time>2011-11-22T09:26:45Z</time>
      </trkpt>
      <trkpt lat="43.92025" lon="7.24207">
        <ele>928</ele>
        <time>2011-11-22T09:26:53Z</time>
      </trkpt>
      <trkpt lat="43.9203" lon="7.24203">
        <ele>930</ele>
        <time>2011-11-22T09:26:58Z</time>
      </trkpt>
      <trkpt lat="43.92035" lon="7.24206">
        <ele>931</ele>
        <time>2011-11-22T09:27:02Z</time>
      </trkpt>
      <trkpt lat="43.92039" lon="7.24207">
        <ele>929</ele>
        <time>2011-11-22T09:27:06Z</time>
      </trkpt>
      <trkpt lat="43.92044" lon="7.24207">
        <ele>928</ele>
        <time>2011-11-22T09:27:11Z</time>
      </trkpt>
      <trkpt lat="43.9205" lon="7.24206">
        <ele>927</ele>
        <time>2011-11-22T09:27:16Z</time>
      </trkpt>
      <trkpt lat="43.92054" lon="7.24203">
        <ele>930</ele>
        <time>2011-11-22T09:27:22Z</time>
      </trkpt>
      <trkpt lat="43.92058" lon="7.24199">
        <ele>931</ele>
        <time>2011-11-22T09:27:28Z</time>
      </trkpt>
      <trkpt lat="43.92062" lon="7.24196">
        <ele>931</ele>
        <time>2011-11-22T09:27:35Z</time>
      </trkpt>
      <trkpt lat="43.92066" lon="7.24189">
        <ele>932</ele>
        <time>2011-11-22T09:27:42Z</time>
      </trkpt>
      <trkpt lat="43.9207" lon="7.24184">
        <ele>932</ele>
        <time>2011-11-22T09:27:49Z</time>
      </trkpt>
      <trkpt lat="43.9207" lon="7.24178">
        <ele>932</ele>
        <time>2011-11-22T09:27:54Z</time>
      </trkpt>
      <trkpt lat="43.9207" lon="7.24168">
        <ele>932</ele>
        <time>2011-11-22T09:28:00Z</time>
      </trkpt>
      <trkpt lat="43.92073" lon="7.2416">
        <ele>932</ele>
        <time>2011-11-22T09:28:05Z</time>
      </trkpt>
      <trkpt lat="43.92074" lon="7.24153">
        <ele>932</ele>
        <time>2011-11-22T09:28:11Z</time>
      </trkpt>
      <trkpt lat="43.92073" lon="7.24146">
        <ele>932</ele>
        <time>2011-11-22T09:28:15Z</time>
      </trkpt>
      <trkpt lat="43.9207" lon="7.24141">
        <ele>932</ele>
        <time>2011-11-22T09:28:21Z</time>
      </trkpt>
      <trkpt lat="43.92071" lon="7.24134">
        <ele>933</ele>
        <time>2011-11-22T09:28:26Z</time>
      </trkpt>
      <trkpt lat="43.92072" lon="7.24128">
        <ele>934</ele>
        <time>2011-11-22T09:28:32Z</time>
      </trkpt>
      <trkpt lat="43.92071" lon="7.2412">
        <ele>934</ele>
        <time>2011-11-22T09:28:36Z</time>
      </trkpt>
      <trkpt lat="43.92071" lon="7.24114">
        <ele>932</ele>
        <time>2011-11-22T09:28:38Z</time>
      </trkpt>
      <trkpt lat="43.9207" lon="7.24107">
        <ele>933</ele>
        <time>2011-11-22T09:28:41Z</time>
      </trkpt>
      <trkpt lat="43.92073" lon="7.24102">
        <ele>932</ele>
        <time>2011-11-22T09:28:46Z</time>
      </trkpt>
      <trkpt lat="43.92078" lon="7.24098">
        <ele>932</ele>
        <time>2011-11-22T09:28:51Z</time>
      </trkpt>
      <trkpt lat="43.92082" lon="7.24094">
        <ele>930</ele>
        <time>2011-11-22T09:28:55Z</time>
      </trkpt>
      <trkpt lat="43.92087" lon="7.2409">
        <ele>930</ele>
        <time>2011-11-22T09:28:59Z</time>
      </trkpt>
      <trkpt lat="43.9209" lon="7.24083">
        <ele>931</ele>
        <time>2011-11-22T09:29:03Z</time>
      </trkpt>
      <trkpt lat="43.92091" lon="7.24074">
        <ele>931</ele>
        <time>2011-11-22T09:29:07Z</time>
      </trkpt>
      <trkpt lat="43.92096" lon="7.24074">
        <ele>931</ele>
        <time>2011-11-22T09:29:13Z</time>
      </trkpt>
      <trkpt lat="43.92101" lon="7.24075">
        <ele>931</ele>
        <time>2011-11-22T09:29:17Z</time>
      </trkpt>
      <trkpt lat="43.92106" lon="7.24075">
        <ele>934</ele>
        <time>2011-11-22T09:29:23Z</time>
      </trkpt>
      <trkpt lat="43.92111" lon="7.24074">
        <ele>932</ele>
        <time>2011-11-22T09:29:27Z</time>
      </trkpt>
      <trkpt lat="43.92116" lon="7.24071">
        <ele>929</ele>
        <time>2011-11-22T09:29:32Z</time>
      </trkpt>
      <trkpt lat="43.9212" lon="7.24068">
        <ele>930</ele>
        <time>2011-11-22T09:29:39Z</time>
      </trkpt>
      <trkpt lat="43.92123" lon="7.24062">
        <ele>930</ele>
        <time>2011-11-22T09:29:45Z</time>
      </trkpt>
      <trkpt lat="43.92126" lon="7.24057">
        <ele>930</ele>
        <time>2011-11-22T09:29:51Z</time>
      </trkpt>
      <trkpt lat="43.92129" lon="7.2405">
        <ele>931</ele>
        <time>2011-11-22T09:29:59Z</time>
      </trkpt>
      <trkpt lat="43.92133" lon="7.24046">
        <ele>931</ele>
        <time>2011-11-22T09:30:05Z</time>
      </trkpt>
      <trkpt lat="43.92136" lon="7.24039">
        <ele>933</ele>
        <time>2011-11-22T09:30:11Z</time>
      </trkpt>
      <trkpt lat="43.92136" lon="7.24032">
        <ele>933</ele>
        <time>2011-11-22T09:30:17Z</time>
      </trkpt>
      <trkpt lat="43.92136" lon="7.24025">
        <ele>933</ele>
        <time>2011-11-22T09:30:22Z</time>
      </trkpt>
      <trkpt lat="43.92138" lon="7.24018">
        <ele>934</ele>
        <time>2011-11-22T09:30:29Z</time>
      </trkpt>
      <trkpt lat="43.92136" lon="7.24011">
        <ele>930</ele>
        <time>2011-11-22T09:31:02Z</time>
      </trkpt>
      <trkpt lat="43.92136" lon="7.24004">
        <ele>927</ele>
        <time>2011-11-22T09:31:07Z</time>
      </trkpt>
      <trkpt lat="43.92135" lon="7.23995">
        <ele>928</ele>
        <time>2011-11-22T09:31:11Z</time>
      </trkpt>
      <trkpt lat="43.92138" lon="7.23989">
        <ele>929</ele>
        <time>2011-11-22T09:31:17Z</time>
      </trkpt>
      <trkpt lat="43.92139" lon="7.23983">
        <ele>927</ele>
        <time>2011-11-22T09:31:21Z</time>
      </trkpt>
      <trkpt lat="43.9214" lon="7.23976">
        <ele>929</ele>
        <time>2011-11-22T09:31:26Z</time>
      </trkpt>
      <trkpt lat="43.92136" lon="7.23972">
        <ele>926</ele>
        <time>2011-11-22T09:32:11Z</time>
      </trkpt>
      <trkpt lat="43.92137" lon="7.23965">
        <ele>924</ele>
        <time>2011-11-22T09:32:17Z</time>
      </trkpt>
      <trkpt lat="43.92135" lon="7.23959">
        <ele>922</ele>
        <time>2011-11-22T09:32:27Z</time>
      </trkpt>
      <trkpt lat="43.92134" lon="7.2395">
        <ele>923</ele>
        <time>2011-11-22T09:32:33Z</time>
      </trkpt>
      <trkpt lat="43.92133" lon="7.23943">
        <ele>924</ele>
        <time>2011-11-22T09:32:39Z</time>
      </trkpt>
      <trkpt lat="43.92135" lon="7.23936">
        <ele>923</ele>
        <time>2011-11-22T09:32:43Z</time>
      </trkpt>
      <trkpt lat="43.92136" lon="7.23928">
        <ele>921</ele>
        <time>2011-11-22T09:32:49Z</time>
      </trkpt>
      <trkpt lat="43.92133" lon="7.23923">
        <ele>920</ele>
        <time>2011-11-22T09:32:56Z</time>
      </trkpt>
      <trkpt lat="43.9213" lon="7.23917">
        <ele>922</ele>
        <time>2011-11-22T09:33:04Z</time>
      </trkpt>
      <trkpt lat="43.92128" lon="7.2391">
        <ele>924</ele>
        <time>2011-11-22T09:33:08Z</time>
      </trkpt>
      <trkpt lat="43.92127" lon="7.23903">
        <ele>926</ele>
        <time>2011-11-22T09:33:13Z</time>
      </trkpt>
      <trkpt lat="43.92124" lon="7.23899">
        <ele>929</ele>
        <time>2011-11-22T09:33:19Z</time>
      </trkpt>
      <trkpt lat="43.92124" lon="7.23899">
        <ele>929</ele>
        <time>2011-11-22T09:33:19Z</time>
      </trkpt>
      <trkpt lat="43.92124" lon="7.23899">
        <ele>929</ele>
        <time>2011-11-22T09:33:20Z</time>
      </trkpt>
      <trkpt lat="43.92119" lon="7.23896">
        <ele>931</ele>
        <time>2011-11-22T09:33:27Z</time>
      </trkpt>
      <trkpt lat="43.92119" lon="7.23896">
        <ele>931</ele>
        <time>2011-11-22T09:33:27Z</time>
      </trkpt>
      <trkpt lat="43.92119" lon="7.23896">
        <ele>931</ele>
        <time>2011-11-22T09:33:28Z</time>
      </trkpt>
      <trkpt lat="43.92115" lon="7.23898">
        <ele>932</ele>
        <time>2011-11-22T09:33:33Z</time>
      </trkpt>
      <trkpt lat="43.92109" lon="7.23898">
        <ele>934</ele>
        <time>2011-11-22T09:33:37Z</time>
      </trkpt>
      <trkpt lat="43.92104" lon="7.23896">
        <ele>936</ele>
        <time>2011-11-22T09:33:45Z</time>
      </trkpt>
      <trkpt lat="43.92103" lon="7.23902">
        <ele>941</ele>
        <time>2011-11-22T09:34:06Z</time>
      </trkpt>
      <trkpt lat="43.921" lon="7.23908">
        <ele>942</ele>
        <time>2011-11-22T09:34:09Z</time>
      </trkpt>
      <trkpt lat="43.92095" lon="7.23907">
        <ele>941</ele>
        <time>2011-11-22T09:34:14Z</time>
      </trkpt>
      <trkpt lat="43.92089" lon="7.2391">
        <ele>943</ele>
        <time>2011-11-22T09:34:19Z</time>
      </trkpt>
      <trkpt lat="43.92083" lon="7.23911">
        <ele>945</ele>
        <time>2011-11-22T09:34:23Z</time>
      </trkpt>
      <trkpt lat="43.92078" lon="7.23908">
        <ele>949</ele>
        <time>2011-11-22T09:34:28Z</time>
      </trkpt>
      <trkpt lat="43.92073" lon="7.23907">
        <ele>950</ele>
        <time>2011-11-22T09:34:33Z</time>
      </trkpt>
      <trkpt lat="43.92068" lon="7.23905">
        <ele>952</ele>
        <time>2011-11-22T09:34:39Z</time>
      </trkpt>
      <trkpt lat="43.92064" lon="7.23903">
        <ele>952</ele>
        <time>2011-11-22T09:34:45Z</time>
      </trkpt>
      <trkpt lat="43.92059" lon="7.23899">
        <ele>950</ele>
        <time>2011-11-22T09:34:50Z</time>
      </trkpt>
      <trkpt lat="43.92054" lon="7.23898">
        <ele>953</ele>
        <time>2011-11-22T09:34:55Z</time>
      </trkpt>
      <trkpt lat="43.92051" lon="7.23893">
        <ele>950</ele>
        <time>2011-11-22T09:35:01Z</time>
      </trkpt>
      <trkpt lat="43.92047" lon="7.23888">
        <ele>950</ele>
        <time>2011-11-22T09:35:06Z</time>
      </trkpt>
      <trkpt lat="43.92044" lon="7.23882">
        <ele>952</ele>
        <time>2011-11-22T09:35:12Z</time>
      </trkpt>
      <trkpt lat="43.92042" lon="7.23876">
        <ele>950</ele>
        <time>2011-11-22T09:35:18Z</time>
      </trkpt>
      <trkpt lat="43.92042" lon="7.23868">
        <ele>949</ele>
        <time>2011-11-22T09:35:24Z</time>
      </trkpt>
      <trkpt lat="43.92041" lon="7.23862">
        <ele>950</ele>
        <time>2011-11-22T09:35:29Z</time>
      </trkpt>
      <trkpt lat="43.92038" lon="7.23856">
        <ele>951</ele>
        <time>2011-11-22T09:35:35Z</time>
      </trkpt>
      <trkpt lat="43.92033" lon="7.23854">
        <ele>952</ele>
        <time>2011-11-22T09:35:41Z</time>
      </trkpt>
      <trkpt lat="43.92029" lon="7.2385">
        <ele>952</ele>
        <time>2011-11-22T09:35:48Z</time>
      </trkpt>
      <trkpt lat="43.92026" lon="7.23845">
        <ele>953</ele>
        <time>2011-11-22T09:35:57Z</time>
      </trkpt>
      <trkpt lat="43.92023" lon="7.23839">
        <ele>953</ele>
        <time>2011-11-22T09:36:04Z</time>
      </trkpt>
      <trkpt lat="43.92026" lon="7.23833">
        <ele>953</ele>
        <time>2011-11-22T09:36:11Z</time>
      </trkpt>
      <trkpt lat="43.92026" lon="7.23826">
        <ele>953</ele>
        <time>2011-11-22T09:36:18Z</time>
      </trkpt>
      <trkpt lat="43.92028" lon="7.2382">
        <ele>949</ele>
        <time>2011-11-22T09:36:49Z</time>
      </trkpt>
      <trkpt lat="43.92032" lon="7.23817">
        <ele>949</ele>
        <time>2011-11-22T09:36:54Z</time>
      </trkpt>
      <trkpt lat="43.92037" lon="7.23813">
        <ele>947</ele>
        <time>2011-11-22T09:36:58Z</time>
      </trkpt>
      <trkpt lat="43.9204" lon="7.23806">
        <ele>946</ele>
        <time>2011-11-22T09:37:02Z</time>
      </trkpt>
      <trkpt lat="43.92042" lon="7.238">
        <ele>944</ele>
        <time>2011-11-22T09:37:05Z</time>
      </trkpt>
      <trkpt lat="43.92043" lon="7.23793">
        <ele>946</ele>
        <time>2011-11-22T09:37:10Z</time>
      </trkpt>
      <trkpt lat="43.92043" lon="7.23786">
        <ele>949</ele>
        <time>2011-11-22T09:37:14Z</time>
      </trkpt>
      <trkpt lat="43.92043" lon="7.23777">
        <ele>949</ele>
        <time>2011-11-22T09:37:18Z</time>
      </trkpt>
      <trkpt lat="43.92042" lon="7.2377">
        <ele>948</ele>
        <time>2011-11-22T09:37:22Z</time>
      </trkpt>
      <trkpt lat="43.9204" lon="7.23763">
        <ele>948</ele>
        <time>2011-11-22T09:37:26Z</time>
      </trkpt>
      <trkpt lat="43.92038" lon="7.23756">
        <ele>947</ele>
        <time>2011-11-22T09:37:30Z</time>
      </trkpt>
      <trkpt lat="43.92037" lon="7.2375">
        <ele>949</ele>
        <time>2011-11-22T09:37:35Z</time>
      </trkpt>
      <trkpt lat="43.92034" lon="7.23744">
        <ele>948</ele>
        <time>2011-11-22T09:37:40Z</time>
      </trkpt>
      <trkpt lat="43.92033" lon="7.23736">
        <ele>948</ele>
        <time>2011-11-22T09:37:45Z</time>
      </trkpt>
      <trkpt lat="43.92032" lon="7.2373">
        <ele>949</ele>
        <time>2011-11-22T09:37:50Z</time>
      </trkpt>
      <trkpt lat="43.92032" lon="7.23723">
        <ele>950</ele>
        <time>2011-11-22T09:37:55Z</time>
      </trkpt>
      <trkpt lat="43.92034" lon="7.23716">
        <ele>950</ele>
        <time>2011-11-22T09:38:01Z</time>
      </trkpt>
      <trkpt lat="43.92035" lon="7.23709">
        <ele>951</ele>
        <time>2011-11-22T09:38:06Z</time>
      </trkpt>
      <trkpt lat="43.92035" lon="7.23702">
        <ele>953</ele>
        <time>2011-11-22T09:38:12Z</time>
      </trkpt>
      <trkpt lat="43.92036" lon="7.23695">
        <ele>952</ele>
        <time>2011-11-22T09:38:24Z</time>
      </trkpt>
      <trkpt lat="43.92036" lon="7.23689">
        <ele>954</ele>
        <time>2011-11-22T09:39:12Z</time>
      </trkpt>
      <trkpt lat="43.92041" lon="7.23689">
        <ele>952</ele>
        <time>2011-11-22T09:43:42Z</time>
      </trkpt>
      <trkpt lat="43.92041" lon="7.23689">
        <ele>952</ele>
        <time>2011-11-22T09:43:42Z</time>
      </trkpt>
      <trkpt lat="43.92041" lon="7.23689">
        <ele>951</ele>
        <time>2011-11-22T09:44:41Z</time>
      </trkpt>
      <trkpt lat="43.92042" lon="7.23683">
        <ele>952</ele>
        <time>2011-11-22T09:45:49Z</time>
      </trkpt>
      <trkpt lat="43.92042" lon="7.23683">
        <ele>952</ele>
        <time>2011-11-22T09:45:49Z</time>
      </trkpt>
      <trkpt lat="43.92042" lon="7.23683">
        <ele>952</ele>
        <time>2011-11-22T09:45:50Z</time>
      </trkpt>
      <trkpt lat="43.92043" lon="7.23676">
        <ele>952</ele>
        <time>2011-11-22T09:45:56Z</time>
      </trkpt>
      <trkpt lat="43.92046" lon="7.2367">
        <ele>953</ele>
        <time>2011-11-22T09:46:06Z</time>
      </trkpt>
      <trkpt lat="43.92049" lon="7.23664">
        <ele>953</ele>
        <time>2011-11-22T09:46:12Z</time>
      </trkpt>
      <trkpt lat="43.9205" lon="7.23657">
        <ele>953</ele>
        <time>2011-11-22T09:46:17Z</time>
      </trkpt>
      <trkpt lat="43.92048" lon="7.23649">
        <ele>952</ele>
        <time>2011-11-22T09:46:21Z</time>
      </trkpt>
      <trkpt lat="43.92047" lon="7.2364">
        <ele>956</ele>
        <time>2011-11-22T09:46:25Z</time>
      </trkpt>
      <trkpt lat="43.92049" lon="7.23634">
        <ele>956</ele>
        <time>2011-11-22T09:46:33Z</time>
      </trkpt>
      <trkpt lat="43.9205" lon="7.23627">
        <ele>956</ele>
        <time>2011-11-22T09:46:40Z</time>
      </trkpt>
      <trkpt lat="43.9205" lon="7.2362">
        <ele>956</ele>
        <time>2011-11-22T09:46:45Z</time>
      </trkpt>
      <trkpt lat="43.9205" lon="7.23614">
        <ele>957</ele>
        <time>2011-11-22T09:46:50Z</time>
      </trkpt>
      <trkpt lat="43.92046" lon="7.23608">
        <ele>957</ele>
        <time>2011-11-22T09:46:58Z</time>
      </trkpt>
      <trkpt lat="43.92044" lon="7.23602">
        <ele>955</ele>
        <time>2011-11-22T09:47:05Z</time>
      </trkpt>
      <trkpt lat="43.92045" lon="7.23594">
        <ele>956</ele>
        <time>2011-11-22T09:47:11Z</time>
      </trkpt>
      <trkpt lat="43.92046" lon="7.23588">
        <ele>957</ele>
        <time>2011-11-22T09:47:17Z</time>
      </trkpt>
      <trkpt lat="43.92046" lon="7.2358">
        <ele>957</ele>
        <time>2011-11-22T09:47:23Z</time>
      </trkpt>
      <trkpt lat="43.92044" lon="7.23574">
        <ele>957</ele>
        <time>2011-11-22T09:47:26Z</time>
      </trkpt>
      <trkpt lat="43.92045" lon="7.23567">
        <ele>957</ele>
        <time>2011-11-22T09:47:30Z</time>
      </trkpt>
      <trkpt lat="43.92043" lon="7.2356">
        <ele>959</ele>
        <time>2011-11-22T09:47:36Z</time>
      </trkpt>
      <trkpt lat="43.9204" lon="7.23554">
        <ele>960</ele>
        <time>2011-11-22T09:47:40Z</time>
      </trkpt>
      <trkpt lat="43.92037" lon="7.2355">
        <ele>957</ele>
        <time>2011-11-22T09:47:47Z</time>
      </trkpt>
      <trkpt lat="43.92032" lon="7.23547">
        <ele>957</ele>
        <time>2011-11-22T09:49:00Z</time>
      </trkpt>
      <trkpt lat="43.92028" lon="7.23544">
        <ele>957</ele>
        <time>2011-11-22T09:49:05Z</time>
      </trkpt>
      <trkpt lat="43.92023" lon="7.2354">
        <ele>959</ele>
        <time>2011-11-22T09:49:10Z</time>
      </trkpt>
      <trkpt lat="43.92019" lon="7.23537">
        <ele>959</ele>
        <time>2011-11-22T09:49:17Z</time>
      </trkpt>
      <trkpt lat="43.92015" lon="7.23532">
        <ele>959</ele>
        <time>2011-11-22T09:49:24Z</time>
      </trkpt>
      <trkpt lat="43.9201" lon="7.2353">
        <ele>961</ele>
        <time>2011-11-22T09:49:30Z</time>
      </trkpt>
      <trkpt lat="43.92006" lon="7.23526">
        <ele>961</ele>
        <time>2011-11-22T09:49:39Z</time>
      </trkpt>
      <trkpt lat="43.92002" lon="7.23523">
        <ele>963</ele>
        <time>2011-11-22T09:49:48Z</time>
      </trkpt>
      <trkpt lat="43.91997" lon="7.2352">
        <ele>962</ele>
        <time>2011-11-22T09:49:54Z</time>
      </trkpt>
      <trkpt lat="43.91997" lon="7.2352">
        <ele>962</ele>
        <time>2011-11-22T09:49:54Z</time>
      </trkpt>
      <trkpt lat="43.91997" lon="7.2352">
        <ele>963</ele>
        <time>2011-11-22T09:49:55Z</time>
      </trkpt>
      <trkpt lat="43.91993" lon="7.23517">
        <ele>962</ele>
        <time>2011-11-22T09:50:02Z</time>
      </trkpt>
      <trkpt lat="43.91993" lon="7.23517">
        <ele>962</ele>
        <time>2011-11-22T09:50:02Z</time>
      </trkpt>
      <trkpt lat="43.91993" lon="7.23517">
        <ele>963</ele>
        <time>2011-11-22T09:50:03Z</time>
      </trkpt>
      <trkpt lat="43.91988" lon="7.23515">
        <ele>964</ele>
        <time>2011-11-22T09:50:29Z</time>
      </trkpt>
      <trkpt lat="43.91985" lon="7.2351">
        <ele>964</ele>
        <time>2011-11-22T09:50:37Z</time>
      </trkpt>
      <trkpt lat="43.91981" lon="7.23506">
        <ele>964</ele>
        <time>2011-11-22T09:50:49Z</time>
      </trkpt>
      <trkpt lat="43.91981" lon="7.23506">
        <ele>964</ele>
        <time>2011-11-22T09:50:49Z</time>
      </trkpt>
      <trkpt lat="43.91981" lon="7.23506">
        <ele>964</ele>
        <time>2011-11-22T09:50:50Z</time>
      </trkpt>
      <trkpt lat="43.91976" lon="7.23502">
        <ele>965</ele>
        <time>2011-11-22T09:50:55Z</time>
      </trkpt>
      <trkpt lat="43.91976" lon="7.23502">
        <ele>965</ele>
        <time>2011-11-22T09:50:55Z</time>
      </trkpt>
      <trkpt lat="43.91976" lon="7.23502">
        <ele>966</ele>
        <time>2011-11-22T09:50:58Z</time>
      </trkpt>
      <trkpt lat="43.91971" lon="7.235">
        <ele>969</ele>
        <time>2011-11-22T09:51:08Z</time>
      </trkpt>
      <trkpt lat="43.91966" lon="7.23497">
        <ele>967</ele>
        <time>2011-11-22T09:51:16Z</time>
      </trkpt>
      <trkpt lat="43.91963" lon="7.23492">
        <ele>968</ele>
        <time>2011-11-22T09:51:26Z</time>
      </trkpt>
      <trkpt lat="43.91958" lon="7.23489">
        <ele>971</ele>
        <time>2011-11-22T09:51:43Z</time>
      </trkpt>
      <trkpt lat="43.91954" lon="7.23487">
        <ele>974</ele>
        <time>2011-11-22T09:51:47Z</time>
      </trkpt>
      <trkpt lat="43.91948" lon="7.23484">
        <ele>975</ele>
        <time>2011-11-22T09:51:54Z</time>
      </trkpt>
      <trkpt lat="43.91944" lon="7.23481">
        <ele>978</ele>
        <time>2011-11-22T09:52:00Z</time>
      </trkpt>
      <trkpt lat="43.91941" lon="7.23474">
        <ele>977</ele>
        <time>2011-11-22T09:52:08Z</time>
      </trkpt>
      <trkpt lat="43.91935" lon="7.23471">
        <ele>978</ele>
        <time>2011-11-22T09:52:28Z</time>
      </trkpt>
      <trkpt lat="43.91931" lon="7.23467">
        <ele>978</ele>
        <time>2011-11-22T09:52:33Z</time>
      </trkpt>
      <trkpt lat="43.91927" lon="7.23462">
        <ele>978</ele>
        <time>2011-11-22T09:52:38Z</time>
      </trkpt>
      <trkpt lat="43.91927" lon="7.23462">
        <ele>978</ele>
        <time>2011-11-22T09:52:38Z</time>
      </trkpt>
      <trkpt lat="43.91927" lon="7.23462">
        <ele>979</ele>
        <time>2011-11-22T09:52:39Z</time>
      </trkpt>
      <trkpt lat="43.91923" lon="7.23459">
        <ele>979</ele>
        <time>2011-11-22T09:52:47Z</time>
      </trkpt>
      <trkpt lat="43.91919" lon="7.23456">
        <ele>981</ele>
        <time>2011-11-22T09:52:51Z</time>
      </trkpt>
      <trkpt lat="43.91915" lon="7.23451">
        <ele>981</ele>
        <time>2011-11-22T09:53:04Z</time>
      </trkpt>
      <trkpt lat="43.91915" lon="7.23451">
        <ele>981</ele>
        <time>2011-11-22T09:53:04Z</time>
      </trkpt>
      <trkpt lat="43.91915" lon="7.23451">
        <ele>981</ele>
        <time>2011-11-22T09:53:06Z</time>
      </trkpt>
      <trkpt lat="43.91911" lon="7.23448">
        <ele>981</ele>
        <time>2011-11-22T09:53:11Z</time>
      </trkpt>
      <trkpt lat="43.91906" lon="7.23445">
        <ele>982</ele>
        <time>2011-11-22T09:53:17Z</time>
      </trkpt>
      <trkpt lat="43.91902" lon="7.23441">
        <ele>983</ele>
        <time>2011-11-22T09:53:21Z</time>
      </trkpt>
      <trkpt lat="43.91898" lon="7.23437">
        <ele>985</ele>
        <time>2011-11-22T09:53:29Z</time>
      </trkpt>
      <trkpt lat="43.91894" lon="7.23435">
        <ele>986</ele>
        <time>2011-11-22T09:53:37Z</time>
      </trkpt>
      <trkpt lat="43.9189" lon="7.23431">
        <ele>986</ele>
        <time>2011-11-22T09:53:50Z</time>
      </trkpt>
      <trkpt lat="43.9189" lon="7.23431">
        <ele>986</ele>
        <time>2011-11-22T09:53:50Z</time>
      </trkpt>
      <trkpt lat="43.9189" lon="7.23431">
        <ele>986</ele>
        <time>2011-11-22T09:53:51Z</time>
      </trkpt>
      <trkpt lat="43.91886" lon="7.23427">
        <ele>985</ele>
        <time>2011-11-22T09:56:09Z</time>
      </trkpt>
      <trkpt lat="43.91886" lon="7.23427">
        <ele>985</ele>
        <time>2011-11-22T09:56:09Z</time>
      </trkpt>
      <trkpt lat="43.91886" lon="7.23427">
        <ele>985</ele>
        <time>2011-11-22T09:56:24Z</time>
      </trkpt>
      <trkpt lat="43.91891" lon="7.23425">
        <ele>987</ele>
        <time>2011-11-22T09:56:33Z</time>
      </trkpt>
      <trkpt lat="43.91891" lon="7.23425">
        <ele>987</ele>
        <time>2011-11-22T09:56:33Z</time>
      </trkpt>
      <trkpt lat="43.91891" lon="7.23425">
        <ele>987</ele>
        <time>2011-11-22T09:56:38Z</time>
      </trkpt>
      <trkpt lat="43.91894" lon="7.23421">
        <ele>988</ele>
        <time>2011-11-22T09:56:46Z</time>
      </trkpt>
      <trkpt lat="43.91898" lon="7.23416">
        <ele>992</ele>
        <time>2011-11-22T09:57:01Z</time>
      </trkpt>
      <trkpt lat="43.91902" lon="7.23414">
        <ele>991</ele>
        <time>2011-11-22T09:57:08Z</time>
      </trkpt>
      <trkpt lat="43.91907" lon="7.23412">
        <ele>992</ele>
        <time>2011-11-22T09:57:23Z</time>
      </trkpt>
      <trkpt lat="43.91912" lon="7.23411">
        <ele>992</ele>
        <time>2011-11-22T09:57:32Z</time>
      </trkpt>
      <trkpt lat="43.91917" lon="7.23411">
        <ele>992</ele>
        <time>2011-11-22T09:57:49Z</time>
      </trkpt>
      <trkpt lat="43.91921" lon="7.23409">
        <ele>992</ele>
        <time>2011-11-22T09:58:00Z</time>
      </trkpt>
      <trkpt lat="43.91926" lon="7.23407">
        <ele>993</ele>
        <time>2011-11-22T09:58:06Z</time>
      </trkpt>
      <trkpt lat="43.91926" lon="7.23407">
        <ele>993</ele>
        <time>2011-11-22T09:58:06Z</time>
      </trkpt>
      <trkpt lat="43.91926" lon="7.23407">
        <ele>993</ele>
        <time>2011-11-22T09:58:07Z</time>
      </trkpt>
      <trkpt lat="43.91931" lon="7.23406">
        <ele>993</ele>
        <time>2011-11-22T09:58:14Z</time>
      </trkpt>
      <trkpt lat="43.91936" lon="7.23405">
        <ele>994</ele>
        <time>2011-11-22T09:58:23Z</time>
      </trkpt>
      <trkpt lat="43.91936" lon="7.23405">
        <ele>994</ele>
        <time>2011-11-22T09:58:23Z</time>
      </trkpt>
      <trkpt lat="43.91936" lon="7.23405">
        <ele>994</ele>
        <time>2011-11-22T09:58:24Z</time>
      </trkpt>
      <trkpt lat="43.91941" lon="7.23402">
        <ele>995</ele>
        <time>2011-11-22T09:58:29Z</time>
      </trkpt>
      <trkpt lat="43.91946" lon="7.23403">
        <ele>997</ele>
        <time>2011-11-22T09:58:36Z</time>
      </trkpt>
      <trkpt lat="43.91951" lon="7.23404">
        <ele>997</ele>
        <time>2011-11-22T09:58:41Z</time>
      </trkpt>
      <trkpt lat="43.91956" lon="7.23401">
        <ele>998</ele>
        <time>2011-11-22T09:58:49Z</time>
      </trkpt>
      <trkpt lat="43.91953" lon="7.23396">
        <ele>997</ele>
        <time>2011-11-22T09:59:06Z</time>
      </trkpt>
      <trkpt lat="43.91948" lon="7.23394">
        <ele>998</ele>
        <time>2011-11-22T09:59:14Z</time>
      </trkpt>
      <trkpt lat="43.91944" lon="7.23389">
        <ele>1000</ele>
        <time>2011-11-22T09:59:24Z</time>
      </trkpt>
      <trkpt lat="43.91944" lon="7.23389">
        <ele>1000</ele>
        <time>2011-11-22T09:59:24Z</time>
      </trkpt>
      <trkpt lat="43.91944" lon="7.23389">
        <ele>1001</ele>
        <time>2011-11-22T09:59:27Z</time>
      </trkpt>
      <trkpt lat="43.91939" lon="7.23386">
        <ele>1003</ele>
        <time>2011-11-22T09:59:37Z</time>
      </trkpt>
      <trkpt lat="43.91935" lon="7.23383">
        <ele>1004</ele>
        <time>2011-11-22T09:59:46Z</time>
      </trkpt>
      <trkpt lat="43.9193" lon="7.23382">
        <ele>1006</ele>
        <time>2011-11-22T09:59:53Z</time>
      </trkpt>
      <trkpt lat="43.91926" lon="7.23379">
        <ele>1011</ele>
        <time>2011-11-22T10:00:10Z</time>
      </trkpt>
      <trkpt lat="43.91921" lon="7.23378">
        <ele>1013</ele>
        <time>2011-11-22T10:00:15Z</time>
      </trkpt>
      <trkpt lat="43.91916" lon="7.23377">
        <ele>1014</ele>
        <time>2011-11-22T10:00:22Z</time>
      </trkpt>
      <trkpt lat="43.91912" lon="7.23373">
        <ele>1015</ele>
        <time>2011-11-22T10:00:30Z</time>
      </trkpt>
      <trkpt lat="43.91908" lon="7.2337">
        <ele>1015</ele>
        <time>2011-11-22T10:00:37Z</time>
      </trkpt>
      <trkpt lat="43.91903" lon="7.23368">
        <ele>1014</ele>
        <time>2011-11-22T10:00:45Z</time>
      </trkpt>
      <trkpt lat="43.91898" lon="7.23364">
        <ele>1014</ele>
        <time>2011-11-22T10:00:55Z</time>
      </trkpt>
      <trkpt lat="43.91893" lon="7.23363">
        <ele>1015</ele>
        <time>2011-11-22T10:01:04Z</time>
      </trkpt>
      <trkpt lat="43.91888" lon="7.23362">
        <ele>1017</ele>
        <time>2011-11-22T10:01:16Z</time>
      </trkpt>
      <trkpt lat="43.91883" lon="7.2336">
        <ele>1016</ele>
        <time>2011-11-22T10:01:27Z</time>
      </trkpt>
      <trkpt lat="43.9188" lon="7.23355">
        <ele>1017</ele>
        <time>2011-11-22T10:01:38Z</time>
      </trkpt>
      <trkpt lat="43.91877" lon="7.23349">
        <ele>1018</ele>
        <time>2011-11-22T10:01:46Z</time>
      </trkpt>
      <trkpt lat="43.91875" lon="7.23343">
        <ele>1019</ele>
        <time>2011-11-22T10:01:57Z</time>
      </trkpt>
      <trkpt lat="43.91872" lon="7.23336">
        <ele>1019</ele>
        <time>2011-11-22T10:02:07Z</time>
      </trkpt>
      <trkpt lat="43.91868" lon="7.23331">
        <ele>1019</ele>
        <time>2011-11-22T10:02:15Z</time>
      </trkpt>
      <trkpt lat="43.91864" lon="7.23326">
        <ele>1021</ele>
        <time>2011-11-22T10:02:26Z</time>
      </trkpt>
      <trkpt lat="43.91861" lon="7.23321">
        <ele>1023</ele>
        <time>2011-11-22T10:02:36Z</time>
      </trkpt>
      <trkpt lat="43.91857" lon="7.23317">
        <ele>1023</ele>
        <time>2011-11-22T10:02:45Z</time>
      </trkpt>
      <trkpt lat="43.91853" lon="7.23312">
        <ele>1024</ele>
        <time>2011-11-22T10:02:57Z</time>
      </trkpt>
      <trkpt lat="43.9185" lon="7.23306">
        <ele>1026</ele>
        <time>2011-11-22T10:03:05Z</time>
      </trkpt>
      <trkpt lat="43.91847" lon="7.23301">
        <ele>1028</ele>
        <time>2011-11-22T10:03:15Z</time>
      </trkpt>
      <trkpt lat="43.91843" lon="7.23296">
        <ele>1029</ele>
        <time>2011-11-22T10:03:21Z</time>
      </trkpt>
      <trkpt lat="43.91839" lon="7.23291">
        <ele>1030</ele>
        <time>2011-11-22T10:03:25Z</time>
      </trkpt>
      <trkpt lat="43.91842" lon="7.23284">
        <ele>1031</ele>
        <time>2011-11-22T10:03:38Z</time>
      </trkpt>
      <trkpt lat="43.91838" lon="7.23281">
        <ele>1034</ele>
        <time>2011-11-22T10:04:55Z</time>
      </trkpt>
      <trkpt lat="43.91838" lon="7.23281">
        <ele>1034</ele>
        <time>2011-11-22T10:04:55Z</time>
      </trkpt>
      <trkpt lat="43.91838" lon="7.23281">
        <ele>1034</ele>
        <time>2011-11-22T10:04:57Z</time>
      </trkpt>
      <trkpt lat="43.91844" lon="7.23284">
        <ele>1036</ele>
        <time>2011-11-22T10:06:09Z</time>
      </trkpt>
      <trkpt lat="43.9184" lon="7.23288">
        <ele>1034</ele>
        <time>2011-11-22T10:14:04Z</time>
      </trkpt>
      <trkpt lat="43.9184" lon="7.23288">
        <ele>1034</ele>
        <time>2011-11-22T10:14:04Z</time>
      </trkpt>
      <trkpt lat="43.9184" lon="7.23288">
        <ele>1031</ele>
        <time>2011-11-22T10:15:13Z</time>
      </trkpt>
      <trkpt lat="43.91845" lon="7.23286">
        <ele>1030</ele>
        <time>2011-11-22T10:19:15Z</time>
      </trkpt>
      <trkpt lat="43.91845" lon="7.23286">
        <ele>1030</ele>
        <time>2011-11-22T10:19:15Z</time>
      </trkpt>
      <trkpt lat="43.91845" lon="7.23286">
        <ele>1030</ele>
        <time>2011-11-22T10:21:26Z</time>
      </trkpt>
      <trkpt lat="43.91849" lon="7.23282">
        <ele>1034</ele>
        <time>2011-11-22T10:24:27Z</time>
      </trkpt>
      <trkpt lat="43.91854" lon="7.2328">
        <ele>1034</ele>
        <time>2011-11-22T10:24:33Z</time>
      </trkpt>
      <trkpt lat="43.91857" lon="7.23274">
        <ele>1033</ele>
        <time>2011-11-22T10:24:43Z</time>
      </trkpt>
      <trkpt lat="43.91861" lon="7.23272">
        <ele>1034</ele>
        <time>2011-11-22T10:24:50Z</time>
      </trkpt>
      <trkpt lat="43.91867" lon="7.23271">
        <ele>1033</ele>
        <time>2011-11-22T10:25:05Z</time>
      </trkpt>
      <trkpt lat="43.9187" lon="7.23267">
        <ele>1035</ele>
        <time>2011-11-22T10:25:10Z</time>
      </trkpt>
      <trkpt lat="43.91873" lon="7.2326">
        <ele>1037</ele>
        <time>2011-11-22T10:25:18Z</time>
      </trkpt>
      <trkpt lat="43.91873" lon="7.23254">
        <ele>1039</ele>
        <time>2011-11-22T10:25:26Z</time>
      </trkpt>
      <trkpt lat="43.91874" lon="7.23247">
        <ele>1041</ele>
        <time>2011-11-22T10:25:36Z</time>
      </trkpt>
      <trkpt lat="43.91874" lon="7.23247">
        <ele>1041</ele>
        <time>2011-11-22T10:25:36Z</time>
      </trkpt>
      <trkpt lat="43.91874" lon="7.23247">
        <ele>1041</ele>
        <time>2011-11-22T10:25:38Z</time>
      </trkpt>
      <trkpt lat="43.91876" lon="7.2324">
        <ele>1038</ele>
        <time>2011-11-22T10:25:46Z</time>
      </trkpt>
      <trkpt lat="43.91877" lon="7.23234">
        <ele>1040</ele>
        <time>2011-11-22T10:25:56Z</time>
      </trkpt>
      <trkpt lat="43.91877" lon="7.23228">
        <ele>1040</ele>
        <time>2011-11-22T10:26:03Z</time>
      </trkpt>
      <trkpt lat="43.91879" lon="7.23221">
        <ele>1040</ele>
        <time>2011-11-22T10:26:11Z</time>
      </trkpt>
      <trkpt lat="43.91879" lon="7.23221">
        <ele>1040</ele>
        <time>2011-11-22T10:26:11Z</time>
      </trkpt>
      <trkpt lat="43.91879" lon="7.23221">
        <ele>1040</ele>
        <time>2011-11-22T10:26:12Z</time>
      </trkpt>
      <trkpt lat="43.91876" lon="7.23216">
        <ele>1042</ele>
        <time>2011-11-22T10:26:29Z</time>
      </trkpt>
      <trkpt lat="43.91874" lon="7.2321">
        <ele>1044</ele>
        <time>2011-11-22T10:26:38Z</time>
      </trkpt>
      <trkpt lat="43.91872" lon="7.23204">
        <ele>1045</ele>
        <time>2011-11-22T10:26:48Z</time>
      </trkpt>
      <trkpt lat="43.91867" lon="7.232">
        <ele>1047</ele>
        <time>2011-11-22T10:26:55Z</time>
      </trkpt>
      <trkpt lat="43.91867" lon="7.232">
        <ele>1047</ele>
        <time>2011-11-22T10:26:55Z</time>
      </trkpt>
      <trkpt lat="43.91867" lon="7.232">
        <ele>1046</ele>
        <time>2011-11-22T10:26:56Z</time>
      </trkpt>
      <trkpt lat="43.91862" lon="7.23199">
        <ele>1047</ele>
        <time>2011-11-22T10:27:04Z</time>
      </trkpt>
      <trkpt lat="43.91858" lon="7.23198">
        <ele>1048</ele>
        <time>2011-11-22T10:27:09Z</time>
      </trkpt>
      <trkpt lat="43.91858" lon="7.23198">
        <ele>1048</ele>
        <time>2011-11-22T10:27:09Z</time>
      </trkpt>
      <trkpt lat="43.91858" lon="7.23198">
        <ele>1048</ele>
        <time>2011-11-22T10:27:10Z</time>
      </trkpt>
      <trkpt lat="43.91853" lon="7.23194">
        <ele>1050</ele>
        <time>2011-11-22T10:27:20Z</time>
      </trkpt>
      <trkpt lat="43.91849" lon="7.2319">
        <ele>1052</ele>
        <time>2011-11-22T10:27:28Z</time>
      </trkpt>
      <trkpt lat="43.91845" lon="7.23186">
        <ele>1052</ele>
        <time>2011-11-22T10:27:36Z</time>
      </trkpt>
      <trkpt lat="43.9184" lon="7.23184">
        <ele>1054</ele>
        <time>2011-11-22T10:27:47Z</time>
      </trkpt>
      <trkpt lat="43.91838" lon="7.23178">
        <ele>1052</ele>
        <time>2011-11-22T10:27:54Z</time>
      </trkpt>
      <trkpt lat="43.91834" lon="7.23172">
        <ele>1052</ele>
        <time>2011-11-22T10:28:03Z</time>
      </trkpt>
      <trkpt lat="43.91832" lon="7.23166">
        <ele>1053</ele>
        <time>2011-11-22T10:28:11Z</time>
      </trkpt>
      <trkpt lat="43.91828" lon="7.2316">
        <ele>1052</ele>
        <time>2011-11-22T10:28:19Z</time>
      </trkpt>
      <trkpt lat="43.91824" lon="7.23158">
        <ele>1054</ele>
        <time>2011-11-22T10:28:29Z</time>
      </trkpt>
      <trkpt lat="43.91819" lon="7.23156">
        <ele>1057</ele>
        <time>2011-11-22T10:28:38Z</time>
      </trkpt>
      <trkpt lat="43.91815" lon="7.23153">
        <ele>1060</ele>
        <time>2011-11-22T10:28:49Z</time>
      </trkpt>
      <trkpt lat="43.91811" lon="7.23149">
        <ele>1059</ele>
        <time>2011-11-22T10:29:00Z</time>
      </trkpt>
      <trkpt lat="43.91811" lon="7.23149">
        <ele>1059</ele>
        <time>2011-11-22T10:29:00Z</time>
      </trkpt>
      <trkpt lat="43.91811" lon="7.23149">
        <ele>1059</ele>
        <time>2011-11-22T10:29:01Z</time>
      </trkpt>
      <trkpt lat="43.91809" lon="7.23143">
        <ele>1058</ele>
        <time>2011-11-22T10:29:08Z</time>
      </trkpt>
      <trkpt lat="43.91807" lon="7.23137">
        <ele>1058</ele>
        <time>2011-11-22T10:29:14Z</time>
      </trkpt>
      <trkpt lat="43.91806" lon="7.2313">
        <ele>1060</ele>
        <time>2011-11-22T10:29:21Z</time>
      </trkpt>
      <trkpt lat="43.91806" lon="7.23124">
        <ele>1063</ele>
        <time>2011-11-22T10:29:26Z</time>
      </trkpt>
      <trkpt lat="43.91805" lon="7.23117">
        <ele>1062</ele>
        <time>2011-11-22T10:29:31Z</time>
      </trkpt>
      <trkpt lat="43.91801" lon="7.23113">
        <ele>1062</ele>
        <time>2011-11-22T10:29:43Z</time>
      </trkpt>
      <trkpt lat="43.91799" lon="7.23107">
        <ele>1062</ele>
        <time>2011-11-22T10:29:49Z</time>
      </trkpt>
      <trkpt lat="43.91796" lon="7.23102">
        <ele>1062</ele>
        <time>2011-11-22T10:29:55Z</time>
      </trkpt>
      <trkpt lat="43.91792" lon="7.23097">
        <ele>1062</ele>
        <time>2011-11-22T10:30:04Z</time>
      </trkpt>
      <trkpt lat="43.91789" lon="7.23092">
        <ele>1064</ele>
        <time>2011-11-22T10:30:12Z</time>
      </trkpt>
      <trkpt lat="43.91788" lon="7.23085">
        <ele>1067</ele>
        <time>2011-11-22T10:30:21Z</time>
      </trkpt>
      <trkpt lat="43.91787" lon="7.23079">
        <ele>1066</ele>
        <time>2011-11-22T10:30:27Z</time>
      </trkpt>
      <trkpt lat="43.91786" lon="7.23072">
        <ele>1067</ele>
        <time>2011-11-22T10:30:33Z</time>
      </trkpt>
      <trkpt lat="43.91786" lon="7.23072">
        <ele>1067</ele>
        <time>2011-11-22T10:30:33Z</time>
      </trkpt>
      <trkpt lat="43.91786" lon="7.23072">
        <ele>1067</ele>
        <time>2011-11-22T10:30:34Z</time>
      </trkpt>
      <trkpt lat="43.91784" lon="7.23066">
        <ele>1066</ele>
        <time>2011-11-22T10:30:40Z</time>
      </trkpt>
      <trkpt lat="43.91781" lon="7.2306">
        <ele>1068</ele>
        <time>2011-11-22T10:30:54Z</time>
      </trkpt>
      <trkpt lat="43.91777" lon="7.23055">
        <ele>1069</ele>
        <time>2011-11-22T10:31:06Z</time>
      </trkpt>
      <trkpt lat="43.91774" lon="7.2305">
        <ele>1069</ele>
        <time>2011-11-22T10:31:15Z</time>
      </trkpt>
      <trkpt lat="43.91771" lon="7.23044">
        <ele>1070</ele>
        <time>2011-11-22T10:31:26Z</time>
      </trkpt>
      <trkpt lat="43.91771" lon="7.23044">
        <ele>1070</ele>
        <time>2011-11-22T10:31:26Z</time>
      </trkpt>
      <trkpt lat="43.91771" lon="7.23044">
        <ele>1071</ele>
        <time>2011-11-22T10:31:27Z</time>
      </trkpt>
      <trkpt lat="43.91766" lon="7.23041">
        <ele>1070</ele>
        <time>2011-11-22T10:31:33Z</time>
      </trkpt>
      <trkpt lat="43.91762" lon="7.23039">
        <ele>1070</ele>
        <time>2011-11-22T10:31:41Z</time>
      </trkpt>
      <trkpt lat="43.91757" lon="7.23036">
        <ele>1068</ele>
        <time>2011-11-22T10:31:47Z</time>
      </trkpt>
      <trkpt lat="43.91752" lon="7.23038">
        <ele>1069</ele>
        <time>2011-11-22T10:31:52Z</time>
      </trkpt>
      <trkpt lat="43.91747" lon="7.23037">
        <ele>1072</ele>
        <time>2011-11-22T10:32:01Z</time>
      </trkpt>
      <trkpt lat="43.91742" lon="7.23036">
        <ele>1072</ele>
        <time>2011-11-22T10:32:15Z</time>
      </trkpt>
      <trkpt lat="43.91737" lon="7.23038">
        <ele>1074</ele>
        <time>2011-11-22T10:32:23Z</time>
      </trkpt>
      <trkpt lat="43.91737" lon="7.23038">
        <ele>1074</ele>
        <time>2011-11-22T10:32:23Z</time>
      </trkpt>
      <trkpt lat="43.91737" lon="7.23038">
        <ele>1074</ele>
        <time>2011-11-22T10:32:24Z</time>
      </trkpt>
      <trkpt lat="43.91733" lon="7.23037">
        <ele>1076</ele>
        <time>2011-11-22T10:32:32Z</time>
      </trkpt>
      <trkpt lat="43.91727" lon="7.23037">
        <ele>1077</ele>
        <time>2011-11-22T10:32:38Z</time>
      </trkpt>
      <trkpt lat="43.91723" lon="7.23034">
        <ele>1078</ele>
        <time>2011-11-22T10:32:48Z</time>
      </trkpt>
      <trkpt lat="43.91718" lon="7.23032">
        <ele>1076</ele>
        <time>2011-11-22T10:32:59Z</time>
      </trkpt>
      <trkpt lat="43.91713" lon="7.23034">
        <ele>1076</ele>
        <time>2011-11-22T10:33:08Z</time>
      </trkpt>
      <trkpt lat="43.91707" lon="7.23034">
        <ele>1078</ele>
        <time>2011-11-22T10:33:21Z</time>
      </trkpt>
      <trkpt lat="43.91703" lon="7.23037">
        <ele>1081</ele>
        <time>2011-11-22T10:33:33Z</time>
      </trkpt>
      <trkpt lat="43.91698" lon="7.23038">
        <ele>1080</ele>
        <time>2011-11-22T10:33:41Z</time>
      </trkpt>
      <trkpt lat="43.91694" lon="7.23042">
        <ele>1081</ele>
        <time>2011-11-22T10:33:49Z</time>
      </trkpt>
      <trkpt lat="43.91694" lon="7.23042">
        <ele>1081</ele>
        <time>2011-11-22T10:33:49Z</time>
      </trkpt>
      <trkpt lat="43.91694" lon="7.23042">
        <ele>1081</ele>
        <time>2011-11-22T10:33:51Z</time>
      </trkpt>
      <trkpt lat="43.91692" lon="7.23047">
        <ele>1081</ele>
        <time>2011-11-22T10:35:08Z</time>
      </trkpt>
      <trkpt lat="43.91688" lon="7.2305">
        <ele>1082</ele>
        <time>2011-11-22T10:35:15Z</time>
      </trkpt>
      <trkpt lat="43.91683" lon="7.23053">
        <ele>1083</ele>
        <time>2011-11-22T10:35:22Z</time>
      </trkpt>
      <trkpt lat="43.91679" lon="7.23057">
        <ele>1084</ele>
        <time>2011-11-22T10:35:30Z</time>
      </trkpt>
      <trkpt lat="43.91675" lon="7.23062">
        <ele>1084</ele>
        <time>2011-11-22T10:35:40Z</time>
      </trkpt>
      <trkpt lat="43.91671" lon="7.23065">
        <ele>1085</ele>
        <time>2011-11-22T10:35:51Z</time>
      </trkpt>
      <trkpt lat="43.91668" lon="7.2307">
        <ele>1084</ele>
        <time>2011-11-22T10:36:03Z</time>
      </trkpt>
      <trkpt lat="43.91668" lon="7.2307">
        <ele>1084</ele>
        <time>2011-11-22T10:36:03Z</time>
      </trkpt>
      <trkpt lat="43.91668" lon="7.2307">
        <ele>1084</ele>
        <time>2011-11-22T10:36:04Z</time>
      </trkpt>
      <trkpt lat="43.91663" lon="7.23074">
        <ele>1083</ele>
        <time>2011-11-22T10:36:09Z</time>
      </trkpt>
      <trkpt lat="43.9166" lon="7.2308">
        <ele>1081</ele>
        <time>2011-11-22T10:36:20Z</time>
      </trkpt>
      <trkpt lat="43.91655" lon="7.23082">
        <ele>1080</ele>
        <time>2011-11-22T10:36:29Z</time>
      </trkpt>
      <trkpt lat="43.91652" lon="7.23086">
        <ele>1083</ele>
        <time>2011-11-22T10:36:38Z</time>
      </trkpt>
      <trkpt lat="43.91646" lon="7.23086">
        <ele>1083</ele>
        <time>2011-11-22T10:36:52Z</time>
      </trkpt>
      <trkpt lat="43.91642" lon="7.23091">
        <ele>1083</ele>
        <time>2011-11-22T10:37:06Z</time>
      </trkpt>
      <trkpt lat="43.91642" lon="7.23091">
        <ele>1083</ele>
        <time>2011-11-22T10:37:06Z</time>
      </trkpt>
      <trkpt lat="43.91642" lon="7.23091">
        <ele>1083</ele>
        <time>2011-11-22T10:37:07Z</time>
      </trkpt>
      <trkpt lat="43.91637" lon="7.2309">
        <ele>1083</ele>
        <time>2011-11-22T10:37:13Z</time>
      </trkpt>
      <trkpt lat="43.91632" lon="7.2309">
        <ele>1089</ele>
        <time>2011-11-22T10:37:23Z</time>
      </trkpt>
      <trkpt lat="43.91632" lon="7.2309">
        <ele>1089</ele>
        <time>2011-11-22T10:37:23Z</time>
      </trkpt>
      <trkpt lat="43.91632" lon="7.2309">
        <ele>1089</ele>
        <time>2011-11-22T10:37:25Z</time>
      </trkpt>
      <trkpt lat="43.91627" lon="7.23091">
        <ele>1089</ele>
        <time>2011-11-22T10:37:43Z</time>
      </trkpt>
      <trkpt lat="43.91622" lon="7.23091">
        <ele>1091</ele>
        <time>2011-11-22T10:38:05Z</time>
      </trkpt>
      <trkpt lat="43.91622" lon="7.23091">
        <ele>1091</ele>
        <time>2011-11-22T10:38:05Z</time>
      </trkpt>
      <trkpt lat="43.91622" lon="7.23091">
        <ele>1091</ele>
        <time>2011-11-22T10:38:12Z</time>
      </trkpt>
      <trkpt lat="43.91623" lon="7.23098">
        <ele>1091</ele>
        <time>2011-11-22T10:38:20Z</time>
      </trkpt>
      <trkpt lat="43.91621" lon="7.23105">
        <ele>1093</ele>
        <time>2011-11-22T10:38:28Z</time>
      </trkpt>
      <trkpt lat="43.91618" lon="7.2311">
        <ele>1092</ele>
        <time>2011-11-22T10:38:40Z</time>
      </trkpt>
      <trkpt lat="43.91614" lon="7.23108">
        <ele>1095</ele>
        <time>2011-11-22T10:38:45Z</time>
      </trkpt>
      <trkpt lat="43.91609" lon="7.23109">
        <ele>1101</ele>
        <time>2011-11-22T10:38:59Z</time>
      </trkpt>
      <trkpt lat="43.91603" lon="7.23106">
        <ele>1103</ele>
        <time>2011-11-22T10:39:06Z</time>
      </trkpt>
      <trkpt lat="43.91598" lon="7.23104">
        <ele>1105</ele>
        <time>2011-11-22T10:39:12Z</time>
      </trkpt>
      <trkpt lat="43.91588" lon="7.23101">
        <ele>1104</ele>
        <time>2011-11-22T10:39:23Z</time>
      </trkpt>
      <trkpt lat="43.91583" lon="7.231">
        <ele>1104</ele>
        <time>2011-11-22T10:39:27Z</time>
      </trkpt>
      <trkpt lat="43.91578" lon="7.23103">
        <ele>1104</ele>
        <time>2011-11-22T10:39:34Z</time>
      </trkpt>
      <trkpt lat="43.91573" lon="7.23105">
        <ele>1106</ele>
        <time>2011-11-22T10:39:39Z</time>
      </trkpt>
      <trkpt lat="43.91569" lon="7.23111">
        <ele>1105</ele>
        <time>2011-11-22T10:39:46Z</time>
      </trkpt>
      <trkpt lat="43.91565" lon="7.23115">
        <ele>1106</ele>
        <time>2011-11-22T10:39:51Z</time>
      </trkpt>
      <trkpt lat="43.91561" lon="7.23118">
        <ele>1105</ele>
        <time>2011-11-22T10:39:57Z</time>
      </trkpt>
      <trkpt lat="43.91557" lon="7.23124">
        <ele>1105</ele>
        <time>2011-11-22T10:40:03Z</time>
      </trkpt>
      <trkpt lat="43.91554" lon="7.23128">
        <ele>1105</ele>
        <time>2011-11-22T10:40:09Z</time>
      </trkpt>
      <trkpt lat="43.91554" lon="7.23128">
        <ele>1105</ele>
        <time>2011-11-22T10:40:09Z</time>
      </trkpt>
      <trkpt lat="43.91554" lon="7.23128">
        <ele>1105</ele>
        <time>2011-11-22T10:40:12Z</time>
      </trkpt>
      <trkpt lat="43.91549" lon="7.23133">
        <ele>1104</ele>
        <time>2011-11-22T10:40:18Z</time>
      </trkpt>
      <trkpt lat="43.91544" lon="7.23133">
        <ele>1101</ele>
        <time>2011-11-22T10:40:24Z</time>
      </trkpt>
      <trkpt lat="43.9154" lon="7.23136">
        <ele>1100</ele>
        <time>2011-11-22T10:40:30Z</time>
      </trkpt>
      <trkpt lat="43.91536" lon="7.23138">
        <ele>1103</ele>
        <time>2011-11-22T10:40:36Z</time>
      </trkpt>
      <trkpt lat="43.91531" lon="7.23142">
        <ele>1104</ele>
        <time>2011-11-22T10:40:41Z</time>
      </trkpt>
      <trkpt lat="43.91527" lon="7.23144">
        <ele>1103</ele>
        <time>2011-11-22T10:40:46Z</time>
      </trkpt>
      <trkpt lat="43.91522" lon="7.23147">
        <ele>1105</ele>
        <time>2011-11-22T10:40:52Z</time>
      </trkpt>
      <trkpt lat="43.91517" lon="7.23149">
        <ele>1105</ele>
        <time>2011-11-22T10:40:58Z</time>
      </trkpt>
      <trkpt lat="43.91513" lon="7.23151">
        <ele>1104</ele>
        <time>2011-11-22T10:41:03Z</time>
      </trkpt>
      <trkpt lat="43.91508" lon="7.23153">
        <ele>1104</ele>
        <time>2011-11-22T10:41:08Z</time>
      </trkpt>
      <trkpt lat="43.91503" lon="7.23155">
        <ele>1105</ele>
        <time>2011-11-22T10:41:15Z</time>
      </trkpt>
      <trkpt lat="43.91498" lon="7.23153">
        <ele>1105</ele>
        <time>2011-11-22T10:41:22Z</time>
      </trkpt>
      <trkpt lat="43.91493" lon="7.23156">
        <ele>1104</ele>
        <time>2011-11-22T10:41:29Z</time>
      </trkpt>
      <trkpt lat="43.91488" lon="7.23157">
        <ele>1107</ele>
        <time>2011-11-22T10:41:36Z</time>
      </trkpt>
      <trkpt lat="43.91485" lon="7.23161">
        <ele>1111</ele>
        <time>2011-11-22T10:41:51Z</time>
      </trkpt>
      <trkpt lat="43.91485" lon="7.23161">
        <ele>1111</ele>
        <time>2011-11-22T10:41:51Z</time>
      </trkpt>
      <trkpt lat="43.91485" lon="7.23161">
        <ele>1110</ele>
        <time>2011-11-22T10:41:53Z</time>
      </trkpt>
      <trkpt lat="43.9148" lon="7.23157">
        <ele>1113</ele>
        <time>2011-11-22T10:42:14Z</time>
      </trkpt>
      <trkpt lat="43.91476" lon="7.23158">
        <ele>1114</ele>
        <time>2011-11-22T10:42:20Z</time>
      </trkpt>
      <trkpt lat="43.91471" lon="7.23161">
        <ele>1116</ele>
        <time>2011-11-22T10:42:26Z</time>
      </trkpt>
      <trkpt lat="43.91465" lon="7.23162">
        <ele>1116</ele>
        <time>2011-11-22T10:42:32Z</time>
      </trkpt>
      <trkpt lat="43.91461" lon="7.23162">
        <ele>1116</ele>
        <time>2011-11-22T10:42:39Z</time>
      </trkpt>
      <trkpt lat="43.91456" lon="7.23161">
        <ele>1117</ele>
        <time>2011-11-22T10:42:48Z</time>
      </trkpt>
      <trkpt lat="43.91451" lon="7.23158">
        <ele>1116</ele>
        <time>2011-11-22T10:42:59Z</time>
      </trkpt>
      <trkpt lat="43.91451" lon="7.23158">
        <ele>1116</ele>
        <time>2011-11-22T10:42:59Z</time>
      </trkpt>
      <trkpt lat="43.91451" lon="7.23158">
        <ele>1118</ele>
        <time>2011-11-22T10:43:00Z</time>
      </trkpt>
      <trkpt lat="43.91447" lon="7.23156">
        <ele>1120</ele>
        <time>2011-11-22T10:43:06Z</time>
      </trkpt>
      <trkpt lat="43.91442" lon="7.23153">
        <ele>1121</ele>
        <time>2011-11-22T10:43:15Z</time>
      </trkpt>
      <trkpt lat="43.91438" lon="7.23148">
        <ele>1121</ele>
        <time>2011-11-22T10:43:26Z</time>
      </trkpt>
      <trkpt lat="43.91414" lon="7.2315">
        <ele>1106</ele>
        <time>2011-11-22T10:43:35Z</time>
      </trkpt>
      <trkpt lat="43.91425" lon="7.23148">
        <ele>1119</ele>
        <time>2011-11-22T10:43:48Z</time>
      </trkpt>
      <trkpt lat="43.91423" lon="7.23142">
        <ele>1123</ele>
        <time>2011-11-22T10:43:56Z</time>
      </trkpt>
      <trkpt lat="43.91423" lon="7.23142">
        <ele>1123</ele>
        <time>2011-11-22T10:43:56Z</time>
      </trkpt>
      <trkpt lat="43.91423" lon="7.23142">
        <ele>1123</ele>
        <time>2011-11-22T10:44:03Z</time>
      </trkpt>
      <trkpt lat="43.9142" lon="7.23136">
        <ele>1123</ele>
        <time>2011-11-22T10:44:14Z</time>
      </trkpt>
      <trkpt lat="43.9142" lon="7.23136">
        <ele>1123</ele>
        <time>2011-11-22T10:44:14Z</time>
      </trkpt>
      <trkpt lat="43.9142" lon="7.23136">
        <ele>1124</ele>
        <time>2011-11-22T10:44:24Z</time>
      </trkpt>
      <trkpt lat="43.91416" lon="7.23134">
        <ele>1125</ele>
        <time>2011-11-22T10:44:43Z</time>
      </trkpt>
      <trkpt lat="43.91416" lon="7.23134">
        <ele>1125</ele>
        <time>2011-11-22T10:44:43Z</time>
      </trkpt>
      <trkpt lat="43.91416" lon="7.23134">
        <ele>1125</ele>
        <time>2011-11-22T10:44:45Z</time>
      </trkpt>
      <trkpt lat="43.91413" lon="7.23129">
        <ele>1125</ele>
        <time>2011-11-22T10:44:53Z</time>
      </trkpt>
      <trkpt lat="43.91409" lon="7.23126">
        <ele>1125</ele>
        <time>2011-11-22T10:45:00Z</time>
      </trkpt>
      <trkpt lat="43.91406" lon="7.2312">
        <ele>1126</ele>
        <time>2011-11-22T10:45:03Z</time>
      </trkpt>
      <trkpt lat="43.91401" lon="7.2312">
        <ele>1130</ele>
        <time>2011-11-22T10:45:13Z</time>
      </trkpt>
      <trkpt lat="43.91401" lon="7.2312">
        <ele>1130</ele>
        <time>2011-11-22T10:45:13Z</time>
      </trkpt>
      <trkpt lat="43.91401" lon="7.2312">
        <ele>1130</ele>
        <time>2011-11-22T10:45:14Z</time>
      </trkpt>
      <trkpt lat="43.914" lon="7.23127">
        <ele>1130</ele>
        <time>2011-11-22T10:45:21Z</time>
      </trkpt>
      <trkpt lat="43.91402" lon="7.23133">
        <ele>1130</ele>
        <time>2011-11-22T10:45:29Z</time>
      </trkpt>
      <trkpt lat="43.91401" lon="7.2314">
        <ele>1135</ele>
        <time>2011-11-22T10:45:37Z</time>
      </trkpt>
      <trkpt lat="43.91396" lon="7.23142">
        <ele>1138</ele>
        <time>2011-11-22T10:45:53Z</time>
      </trkpt>
      <trkpt lat="43.91391" lon="7.2314">
        <ele>1140</ele>
        <time>2011-11-22T10:46:10Z</time>
      </trkpt>
      <trkpt lat="43.91391" lon="7.2314">
        <ele>1140</ele>
        <time>2011-11-22T10:46:10Z</time>
      </trkpt>
      <trkpt lat="43.91391" lon="7.2314">
        <ele>1140</ele>
        <time>2011-11-22T10:46:11Z</time>
      </trkpt>
      <trkpt lat="43.91387" lon="7.23135">
        <ele>1137</ele>
        <time>2011-11-22T10:46:21Z</time>
      </trkpt>
      <trkpt lat="43.91383" lon="7.23131">
        <ele>1137</ele>
        <time>2011-11-22T10:46:26Z</time>
      </trkpt>
      <trkpt lat="43.91378" lon="7.23128">
        <ele>1139</ele>
        <time>2011-11-22T10:46:33Z</time>
      </trkpt>
      <trkpt lat="43.91374" lon="7.23133">
        <ele>1144</ele>
        <time>2011-11-22T10:46:43Z</time>
      </trkpt>
      <trkpt lat="43.91375" lon="7.2314">
        <ele>1141</ele>
        <time>2011-11-22T10:46:51Z</time>
      </trkpt>
      <trkpt lat="43.91375" lon="7.23147">
        <ele>1143</ele>
        <time>2011-11-22T10:46:58Z</time>
      </trkpt>
      <trkpt lat="43.91374" lon="7.23154">
        <ele>1144</ele>
        <time>2011-11-22T10:47:04Z</time>
      </trkpt>
      <trkpt lat="43.9137" lon="7.2315">
        <ele>1142</ele>
        <time>2011-11-22T10:47:16Z</time>
      </trkpt>
      <trkpt lat="43.91367" lon="7.23144">
        <ele>1145</ele>
        <time>2011-11-22T10:47:31Z</time>
      </trkpt>
      <trkpt lat="43.91367" lon="7.23144">
        <ele>1145</ele>
        <time>2011-11-22T10:47:31Z</time>
      </trkpt>
      <trkpt lat="43.91367" lon="7.23144">
        <ele>1145</ele>
        <time>2011-11-22T10:47:33Z</time>
      </trkpt>
      <trkpt lat="43.91362" lon="7.2314">
        <ele>1147</ele>
        <time>2011-11-22T10:47:40Z</time>
      </trkpt>
      <trkpt lat="43.9136" lon="7.23133">
        <ele>1147</ele>
        <time>2011-11-22T10:47:46Z</time>
      </trkpt>
      <trkpt lat="43.91356" lon="7.23129">
        <ele>1147</ele>
        <time>2011-11-22T10:47:54Z</time>
      </trkpt>
      <trkpt lat="43.91352" lon="7.23131">
        <ele>1148</ele>
        <time>2011-11-22T10:48:08Z</time>
      </trkpt>
      <trkpt lat="43.91351" lon="7.23137">
        <ele>1148</ele>
        <time>2011-11-22T10:48:17Z</time>
      </trkpt>
      <trkpt lat="43.91352" lon="7.23144">
        <ele>1149</ele>
        <time>2011-11-22T10:48:24Z</time>
      </trkpt>
      <trkpt lat="43.91352" lon="7.2315">
        <ele>1149</ele>
        <time>2011-11-22T10:48:31Z</time>
      </trkpt>
      <trkpt lat="43.91351" lon="7.23157">
        <ele>1149</ele>
        <time>2011-11-22T10:48:39Z</time>
      </trkpt>
      <trkpt lat="43.91347" lon="7.23152">
        <ele>1153</ele>
        <time>2011-11-22T10:48:51Z</time>
      </trkpt>
      <trkpt lat="43.91347" lon="7.23152">
        <ele>1153</ele>
        <time>2011-11-22T10:48:51Z</time>
      </trkpt>
      <trkpt lat="43.91347" lon="7.23152">
        <ele>1153</ele>
        <time>2011-11-22T10:48:52Z</time>
      </trkpt>
      <trkpt lat="43.91345" lon="7.23146">
        <ele>1153</ele>
        <time>2011-11-22T10:48:58Z</time>
      </trkpt>
      <trkpt lat="43.91341" lon="7.23143">
        <ele>1154</ele>
        <time>2011-11-22T10:49:07Z</time>
      </trkpt>
      <trkpt lat="43.91341" lon="7.23143">
        <ele>1154</ele>
        <time>2011-11-22T10:49:07Z</time>
      </trkpt>
      <trkpt lat="43.91341" lon="7.23143">
        <ele>1154</ele>
        <time>2011-11-22T10:49:08Z</time>
      </trkpt>
      <trkpt lat="43.91339" lon="7.23137">
        <ele>1154</ele>
        <time>2011-11-22T10:49:12Z</time>
      </trkpt>
      <trkpt lat="43.91336" lon="7.23132">
        <ele>1154</ele>
        <time>2011-11-22T10:49:17Z</time>
      </trkpt>
      <trkpt lat="43.91331" lon="7.23134">
        <ele>1154</ele>
        <time>2011-11-22T10:49:26Z</time>
      </trkpt>
      <trkpt lat="43.91331" lon="7.2314">
        <ele>1156</ele>
        <time>2011-11-22T10:49:39Z</time>
      </trkpt>
      <trkpt lat="43.91333" lon="7.23147">
        <ele>1158</ele>
        <time>2011-11-22T10:49:49Z</time>
      </trkpt>
      <trkpt lat="43.91332" lon="7.23154">
        <ele>1157</ele>
        <time>2011-11-22T10:49:58Z</time>
      </trkpt>
      <trkpt lat="43.91329" lon="7.23158">
        <ele>1156</ele>
        <time>2011-11-22T10:50:30Z</time>
      </trkpt>
      <trkpt lat="43.91327" lon="7.23152">
        <ele>1158</ele>
        <time>2011-11-22T10:50:39Z</time>
      </trkpt>
      <trkpt lat="43.91327" lon="7.23152">
        <ele>1158</ele>
        <time>2011-11-22T10:50:39Z</time>
      </trkpt>
      <trkpt lat="43.91327" lon="7.23152">
        <ele>1158</ele>
        <time>2011-11-22T10:50:40Z</time>
      </trkpt>
      <trkpt lat="43.91324" lon="7.23146">
        <ele>1161</ele>
        <time>2011-11-22T10:50:59Z</time>
      </trkpt>
      <trkpt lat="43.9132" lon="7.23141">
        <ele>1162</ele>
        <time>2011-11-22T10:51:03Z</time>
      </trkpt>
      <trkpt lat="43.91315" lon="7.23136">
        <ele>1164</ele>
        <time>2011-11-22T10:51:10Z</time>
      </trkpt>
      <trkpt lat="43.91309" lon="7.23136">
        <ele>1166</ele>
        <time>2011-11-22T10:51:21Z</time>
      </trkpt>
      <trkpt lat="43.9131" lon="7.23143">
        <ele>1165</ele>
        <time>2011-11-22T10:51:33Z</time>
      </trkpt>
      <trkpt lat="43.9131" lon="7.2315">
        <ele>1168</ele>
        <time>2011-11-22T10:51:43Z</time>
      </trkpt>
      <trkpt lat="43.91307" lon="7.23154">
        <ele>1163</ele>
        <time>2011-11-22T10:51:59Z</time>
      </trkpt>
      <trkpt lat="43.91302" lon="7.23155">
        <ele>1160</ele>
        <time>2011-11-22T10:52:13Z</time>
      </trkpt>
      <trkpt lat="43.91297" lon="7.23155">
        <ele>1166</ele>
        <time>2011-11-22T10:52:33Z</time>
      </trkpt>
      <trkpt lat="43.91297" lon="7.23155">
        <ele>1166</ele>
        <time>2011-11-22T10:52:33Z</time>
      </trkpt>
      <trkpt lat="43.91297" lon="7.23155">
        <ele>1166</ele>
        <time>2011-11-22T10:52:34Z</time>
      </trkpt>
      <trkpt lat="43.91292" lon="7.23152">
        <ele>1167</ele>
        <time>2011-11-22T10:52:42Z</time>
      </trkpt>
      <trkpt lat="43.91292" lon="7.23152">
        <ele>1167</ele>
        <time>2011-11-22T10:52:42Z</time>
      </trkpt>
      <trkpt lat="43.91292" lon="7.23152">
        <ele>1168</ele>
        <time>2011-11-22T10:52:45Z</time>
      </trkpt>
      <trkpt lat="43.91289" lon="7.23157">
        <ele>1171</ele>
        <time>2011-11-22T10:53:07Z</time>
      </trkpt>
      <trkpt lat="43.91289" lon="7.23157">
        <ele>1171</ele>
        <time>2011-11-22T10:53:07Z</time>
      </trkpt>
      <trkpt lat="43.91289" lon="7.23157">
        <ele>1172</ele>
        <time>2011-11-22T10:53:08Z</time>
      </trkpt>
      <trkpt lat="43.91285" lon="7.23155">
        <ele>1174</ele>
        <time>2011-11-22T10:53:21Z</time>
      </trkpt>
      <trkpt lat="43.91281" lon="7.23151">
        <ele>1174</ele>
        <time>2011-11-22T10:53:28Z</time>
      </trkpt>
      <trkpt lat="43.91278" lon="7.23146">
        <ele>1175</ele>
        <time>2011-11-22T10:53:37Z</time>
      </trkpt>
      <trkpt lat="43.91277" lon="7.2314">
        <ele>1177</ele>
        <time>2011-11-22T10:53:57Z</time>
      </trkpt>
      <trkpt lat="43.9128" lon="7.23134">
        <ele>1176</ele>
        <time>2011-11-22T10:54:37Z</time>
      </trkpt>
      <trkpt lat="43.9128" lon="7.23134">
        <ele>1176</ele>
        <time>2011-11-22T10:54:37Z</time>
      </trkpt>
      <trkpt lat="43.9128" lon="7.23134">
        <ele>1176</ele>
        <time>2011-11-22T10:54:47Z</time>
      </trkpt>
      <trkpt lat="43.91275" lon="7.23133">
        <ele>1178</ele>
        <time>2011-11-22T10:55:15Z</time>
      </trkpt>
      <trkpt lat="43.91271" lon="7.23136">
        <ele>1180</ele>
        <time>2011-11-22T10:55:25Z</time>
      </trkpt>
      <trkpt lat="43.91266" lon="7.23135">
        <ele>1181</ele>
        <time>2011-11-22T10:55:33Z</time>
      </trkpt>
      <trkpt lat="43.91263" lon="7.2314">
        <ele>1180</ele>
        <time>2011-11-22T10:55:44Z</time>
      </trkpt>
      <trkpt lat="43.91264" lon="7.23146">
        <ele>1180</ele>
        <time>2011-11-22T10:55:49Z</time>
      </trkpt>
      <trkpt lat="43.91266" lon="7.23152">
        <ele>1182</ele>
        <time>2011-11-22T10:55:57Z</time>
      </trkpt>
      <trkpt lat="43.91266" lon="7.23158">
        <ele>1186</ele>
        <time>2011-11-22T10:56:04Z</time>
      </trkpt>
      <trkpt lat="43.91266" lon="7.23165">
        <ele>1188</ele>
        <time>2011-11-22T10:56:13Z</time>
      </trkpt>
      <trkpt lat="43.91265" lon="7.23172">
        <ele>1185</ele>
        <time>2011-11-22T10:56:20Z</time>
      </trkpt>
      <trkpt lat="43.91261" lon="7.23168">
        <ele>1187</ele>
        <time>2011-11-22T10:56:44Z</time>
      </trkpt>
      <trkpt lat="43.91259" lon="7.23162">
        <ele>1190</ele>
        <time>2011-11-22T10:56:50Z</time>
      </trkpt>
      <trkpt lat="43.91255" lon="7.23156">
        <ele>1189</ele>
        <time>2011-11-22T10:57:02Z</time>
      </trkpt>
      <trkpt lat="43.91251" lon="7.23151">
        <ele>1191</ele>
        <time>2011-11-22T10:57:13Z</time>
      </trkpt>
      <trkpt lat="43.9125" lon="7.23144">
        <ele>1193</ele>
        <time>2011-11-22T10:57:23Z</time>
      </trkpt>
      <trkpt lat="43.91246" lon="7.23147">
        <ele>1195</ele>
        <time>2011-11-22T10:57:44Z</time>
      </trkpt>
      <trkpt lat="43.91243" lon="7.23154">
        <ele>1195</ele>
        <time>2011-11-22T10:57:50Z</time>
      </trkpt>
      <trkpt lat="43.91245" lon="7.2316">
        <ele>1195</ele>
        <time>2011-11-22T10:57:57Z</time>
      </trkpt>
      <trkpt lat="43.91246" lon="7.23168">
        <ele>1197</ele>
        <time>2011-11-22T10:58:05Z</time>
      </trkpt>
      <trkpt lat="43.91244" lon="7.23174">
        <ele>1197</ele>
        <time>2011-11-22T10:58:11Z</time>
      </trkpt>
      <trkpt lat="43.91242" lon="7.2318">
        <ele>1197</ele>
        <time>2011-11-22T10:58:18Z</time>
      </trkpt>
      <trkpt lat="43.91237" lon="7.23184">
        <ele>1198</ele>
        <time>2011-11-22T10:58:28Z</time>
      </trkpt>
      <trkpt lat="43.91237" lon="7.23184">
        <ele>1198</ele>
        <time>2011-11-22T10:58:28Z</time>
      </trkpt>
      <trkpt lat="43.91237" lon="7.23184">
        <ele>1199</ele>
        <time>2011-11-22T10:58:29Z</time>
      </trkpt>
      <trkpt lat="43.91237" lon="7.23176">
        <ele>1200</ele>
        <time>2011-11-22T10:58:39Z</time>
      </trkpt>
      <trkpt lat="43.91236" lon="7.2317">
        <ele>1198</ele>
        <time>2011-11-22T10:58:48Z</time>
      </trkpt>
      <trkpt lat="43.91236" lon="7.2317">
        <ele>1198</ele>
        <time>2011-11-22T10:58:48Z</time>
      </trkpt>
      <trkpt lat="43.91236" lon="7.2317">
        <ele>1198</ele>
        <time>2011-11-22T10:58:51Z</time>
      </trkpt>
      <trkpt lat="43.91232" lon="7.23162">
        <ele>1198</ele>
        <time>2011-11-22T10:59:00Z</time>
      </trkpt>
      <trkpt lat="43.91228" lon="7.23158">
        <ele>1198</ele>
        <time>2011-11-22T10:59:07Z</time>
      </trkpt>
      <trkpt lat="43.91225" lon="7.23164">
        <ele>1203</ele>
        <time>2011-11-22T10:59:18Z</time>
      </trkpt>
      <trkpt lat="43.91226" lon="7.23171">
        <ele>1202</ele>
        <time>2011-11-22T10:59:26Z</time>
      </trkpt>
      <trkpt lat="43.91225" lon="7.23178">
        <ele>1204</ele>
        <time>2011-11-22T10:59:34Z</time>
      </trkpt>
      <trkpt lat="43.91225" lon="7.23185">
        <ele>1207</ele>
        <time>2011-11-22T10:59:41Z</time>
      </trkpt>
      <trkpt lat="43.91223" lon="7.23192">
        <ele>1204</ele>
        <time>2011-11-22T10:59:47Z</time>
      </trkpt>
      <trkpt lat="43.91219" lon="7.23195">
        <ele>1205</ele>
        <time>2011-11-22T10:59:55Z</time>
      </trkpt>
      <trkpt lat="43.91219" lon="7.23195">
        <ele>1205</ele>
        <time>2011-11-22T10:59:55Z</time>
      </trkpt>
      <trkpt lat="43.91219" lon="7.23195">
        <ele>1205</ele>
        <time>2011-11-22T10:59:56Z</time>
      </trkpt>
      <trkpt lat="43.91216" lon="7.232">
        <ele>1204</ele>
        <time>2011-11-22T11:00:05Z</time>
      </trkpt>
      <trkpt lat="43.91212" lon="7.23204">
        <ele>1207</ele>
        <time>2011-11-22T11:00:14Z</time>
      </trkpt>
      <trkpt lat="43.91207" lon="7.23206">
        <ele>1206</ele>
        <time>2011-11-22T11:00:30Z</time>
      </trkpt>
      <trkpt lat="43.91203" lon="7.23208">
        <ele>1208</ele>
        <time>2011-11-22T11:00:36Z</time>
      </trkpt>
      <trkpt lat="43.91197" lon="7.23209">
        <ele>1209</ele>
        <time>2011-11-22T11:00:47Z</time>
      </trkpt>
      <trkpt lat="43.91192" lon="7.23212">
        <ele>1209</ele>
        <time>2011-11-22T11:01:02Z</time>
      </trkpt>
      <trkpt lat="43.91189" lon="7.23215">
        <ele>1211</ele>
        <time>2011-11-22T11:01:17Z</time>
      </trkpt>
      <trkpt lat="43.91184" lon="7.23217">
        <ele>1211</ele>
        <time>2011-11-22T11:01:26Z</time>
      </trkpt>
      <trkpt lat="43.9118" lon="7.2322">
        <ele>1215</ele>
        <time>2011-11-22T11:01:37Z</time>
      </trkpt>
      <trkpt lat="43.91175" lon="7.2322">
        <ele>1217</ele>
        <time>2011-11-22T11:02:21Z</time>
      </trkpt>
      <trkpt lat="43.9117" lon="7.2322">
        <ele>1216</ele>
        <time>2011-11-22T11:02:29Z</time>
      </trkpt>
      <trkpt lat="43.91164" lon="7.23221">
        <ele>1216</ele>
        <time>2011-11-22T11:02:38Z</time>
      </trkpt>
      <trkpt lat="43.9116" lon="7.23223">
        <ele>1216</ele>
        <time>2011-11-22T11:02:43Z</time>
      </trkpt>
      <trkpt lat="43.91155" lon="7.23222">
        <ele>1215</ele>
        <time>2011-11-22T11:02:49Z</time>
      </trkpt>
      <trkpt lat="43.9115" lon="7.2322">
        <ele>1217</ele>
        <time>2011-11-22T11:02:55Z</time>
      </trkpt>
      <trkpt lat="43.91146" lon="7.23217">
        <ele>1216</ele>
        <time>2011-11-22T11:03:02Z</time>
      </trkpt>
      <trkpt lat="43.91141" lon="7.23213">
        <ele>1214</ele>
        <time>2011-11-22T11:03:09Z</time>
      </trkpt>
      <trkpt lat="43.91137" lon="7.23209">
        <ele>1215</ele>
        <time>2011-11-22T11:03:19Z</time>
      </trkpt>
      <trkpt lat="43.91133" lon="7.23206">
        <ele>1215</ele>
        <time>2011-11-22T11:03:41Z</time>
      </trkpt>
      <trkpt lat="43.9113" lon="7.232">
        <ele>1214</ele>
        <time>2011-11-22T11:03:49Z</time>
      </trkpt>
      <trkpt lat="43.91126" lon="7.23195">
        <ele>1214</ele>
        <time>2011-11-22T11:04:01Z</time>
      </trkpt>
      <trkpt lat="43.91124" lon="7.2319">
        <ele>1214</ele>
        <time>2011-11-22T11:04:10Z</time>
      </trkpt>
      <trkpt lat="43.91124" lon="7.2319">
        <ele>1214</ele>
        <time>2011-11-22T11:04:10Z</time>
      </trkpt>
      <trkpt lat="43.91124" lon="7.2319">
        <ele>1214</ele>
        <time>2011-11-22T11:04:12Z</time>
      </trkpt>
      <trkpt lat="43.91123" lon="7.23183">
        <ele>1213</ele>
        <time>2011-11-22T11:04:18Z</time>
      </trkpt>
      <trkpt lat="43.91122" lon="7.23176">
        <ele>1213</ele>
        <time>2011-11-22T11:04:22Z</time>
      </trkpt>
      <trkpt lat="43.91121" lon="7.23169">
        <ele>1211</ele>
        <time>2011-11-22T11:04:26Z</time>
      </trkpt>
      <trkpt lat="43.9112" lon="7.23163">
        <ele>1210</ele>
        <time>2011-11-22T11:04:33Z</time>
      </trkpt>
      <trkpt lat="43.91118" lon="7.23157">
        <ele>1213</ele>
        <time>2011-11-22T11:04:42Z</time>
      </trkpt>
      <trkpt lat="43.91118" lon="7.2315">
        <ele>1215</ele>
        <time>2011-11-22T11:04:46Z</time>
      </trkpt>
      <trkpt lat="43.91119" lon="7.23143">
        <ele>1217</ele>
        <time>2011-11-22T11:04:58Z</time>
      </trkpt>
      <trkpt lat="43.91123" lon="7.23141">
        <ele>1220</ele>
        <time>2011-11-22T11:05:19Z</time>
      </trkpt>
      <trkpt lat="43.91128" lon="7.23137">
        <ele>1222</ele>
        <time>2011-11-22T11:05:27Z</time>
      </trkpt>
      <trkpt lat="43.91123" lon="7.23146">
        <ele>1237</ele>
        <time>2011-11-22T11:11:20Z</time>
      </trkpt>
      <trkpt lat="43.91123" lon="7.23146">
        <ele>1237</ele>
        <time>2011-11-22T11:11:20Z</time>
      </trkpt>
      <trkpt lat="43.91123" lon="7.23146">
        <ele>1240</ele>
        <time>2011-11-22T11:11:55Z</time>
      </trkpt>
      <trkpt lat="43.91128" lon="7.23142">
        <ele>1233</ele>
        <time>2011-11-22T11:16:10Z</time>
      </trkpt>
      <trkpt lat="43.91124" lon="7.23137">
        <ele>1233</ele>
        <time>2011-11-22T11:16:32Z</time>
      </trkpt>
      <trkpt lat="43.91124" lon="7.23137">
        <ele>1233</ele>
        <time>2011-11-22T11:16:32Z</time>
      </trkpt>
      <trkpt lat="43.91124" lon="7.23137">
        <ele>1233</ele>
        <time>2011-11-22T11:16:35Z</time>
      </trkpt>
      <trkpt lat="43.91124" lon="7.2313">
        <ele>1230</ele>
        <time>2011-11-22T11:16:41Z</time>
      </trkpt>
      <trkpt lat="43.91123" lon="7.23124">
        <ele>1228</ele>
        <time>2011-11-22T11:16:47Z</time>
      </trkpt>
      <trkpt lat="43.91122" lon="7.23118">
        <ele>1227</ele>
        <time>2011-11-22T11:17:00Z</time>
      </trkpt>
      <trkpt lat="43.91121" lon="7.23111">
        <ele>1229</ele>
        <time>2011-11-22T11:17:04Z</time>
      </trkpt>
      <trkpt lat="43.9112" lon="7.23104">
        <ele>1228</ele>
        <time>2011-11-22T11:17:10Z</time>
      </trkpt>
      <trkpt lat="43.91117" lon="7.23098">
        <ele>1227</ele>
        <time>2011-11-22T11:17:17Z</time>
      </trkpt>
      <trkpt lat="43.91114" lon="7.23092">
        <ele>1227</ele>
        <time>2011-11-22T11:17:25Z</time>
      </trkpt>
      <trkpt lat="43.9111" lon="7.23087">
        <ele>1228</ele>
        <time>2011-11-22T11:17:33Z</time>
      </trkpt>
      <trkpt lat="43.91108" lon="7.23081">
        <ele>1228</ele>
        <time>2011-11-22T11:17:39Z</time>
      </trkpt>
      <trkpt lat="43.91106" lon="7.23074">
        <ele>1228</ele>
        <time>2011-11-22T11:17:46Z</time>
      </trkpt>
      <trkpt lat="43.91103" lon="7.23068">
        <ele>1228</ele>
        <time>2011-11-22T11:17:51Z</time>
      </trkpt>
      <trkpt lat="43.91101" lon="7.23062">
        <ele>1226</ele>
        <time>2011-11-22T11:17:58Z</time>
      </trkpt>
      <trkpt lat="43.91098" lon="7.23056">
        <ele>1226</ele>
        <time>2011-11-22T11:18:04Z</time>
      </trkpt>
      <trkpt lat="43.91095" lon="7.2305">
        <ele>1227</ele>
        <time>2011-11-22T11:18:08Z</time>
      </trkpt>
      <trkpt lat="43.91093" lon="7.23044">
        <ele>1227</ele>
        <time>2011-11-22T11:18:12Z</time>
      </trkpt>
      <trkpt lat="43.9109" lon="7.23037">
        <ele>1227</ele>
        <time>2011-11-22T11:18:20Z</time>
      </trkpt>
      <trkpt lat="43.91088" lon="7.23031">
        <ele>1226</ele>
        <time>2011-11-22T11:18:26Z</time>
      </trkpt>
      <trkpt lat="43.91086" lon="7.23025">
        <ele>1226</ele>
        <time>2011-11-22T11:18:31Z</time>
      </trkpt>
      <trkpt lat="43.91084" lon="7.23018">
        <ele>1226</ele>
        <time>2011-11-22T11:18:37Z</time>
      </trkpt>
      <trkpt lat="43.91081" lon="7.23013">
        <ele>1226</ele>
        <time>2011-11-22T11:18:42Z</time>
      </trkpt>
      <trkpt lat="43.91078" lon="7.23007">
        <ele>1226</ele>
        <time>2011-11-22T11:18:47Z</time>
      </trkpt>
      <trkpt lat="43.91076" lon="7.23001">
        <ele>1225</ele>
        <time>2011-11-22T11:18:52Z</time>
      </trkpt>
      <trkpt lat="43.91074" lon="7.22995">
        <ele>1223</ele>
        <time>2011-11-22T11:18:58Z</time>
      </trkpt>
      <trkpt lat="43.91072" lon="7.2299">
        <ele>1224</ele>
        <time>2011-11-22T11:19:03Z</time>
      </trkpt>
      <trkpt lat="43.91069" lon="7.22984">
        <ele>1225</ele>
        <time>2011-11-22T11:19:08Z</time>
      </trkpt>
      <trkpt lat="43.91066" lon="7.22976">
        <ele>1226</ele>
        <time>2011-11-22T11:19:13Z</time>
      </trkpt>
      <trkpt lat="43.91064" lon="7.22969">
        <ele>1227</ele>
        <time>2011-11-22T11:19:18Z</time>
      </trkpt>
      <trkpt lat="43.91062" lon="7.22963">
        <ele>1227</ele>
        <time>2011-11-22T11:19:27Z</time>
      </trkpt>
      <trkpt lat="43.9106" lon="7.22956">
        <ele>1228</ele>
        <time>2011-11-22T11:19:32Z</time>
      </trkpt>
      <trkpt lat="43.91058" lon="7.22949">
        <ele>1230</ele>
        <time>2011-11-22T11:19:37Z</time>
      </trkpt>
      <trkpt lat="43.91055" lon="7.22944">
        <ele>1230</ele>
        <time>2011-11-22T11:19:41Z</time>
      </trkpt>
      <trkpt lat="43.91052" lon="7.22938">
        <ele>1229</ele>
        <time>2011-11-22T11:19:47Z</time>
      </trkpt>
      <trkpt lat="43.91049" lon="7.22933">
        <ele>1229</ele>
        <time>2011-11-22T11:19:51Z</time>
      </trkpt>
      <trkpt lat="43.91045" lon="7.22929">
        <ele>1229</ele>
        <time>2011-11-22T11:19:56Z</time>
      </trkpt>
      <trkpt lat="43.91042" lon="7.22924">
        <ele>1229</ele>
        <time>2011-11-22T11:20:01Z</time>
      </trkpt>
      <trkpt lat="43.91038" lon="7.22921">
        <ele>1227</ele>
        <time>2011-11-22T11:20:05Z</time>
      </trkpt>
      <trkpt lat="43.91035" lon="7.22916">
        <ele>1228</ele>
        <time>2011-11-22T11:20:10Z</time>
      </trkpt>
      <trkpt lat="43.91032" lon="7.2291">
        <ele>1228</ele>
        <time>2011-11-22T11:20:15Z</time>
      </trkpt>
      <trkpt lat="43.91028" lon="7.22906">
        <ele>1229</ele>
        <time>2011-11-22T11:20:21Z</time>
      </trkpt>
      <trkpt lat="43.91024" lon="7.229">
        <ele>1228</ele>
        <time>2011-11-22T11:20:26Z</time>
      </trkpt>
      <trkpt lat="43.91021" lon="7.22894">
        <ele>1227</ele>
        <time>2011-11-22T11:20:31Z</time>
      </trkpt>
      <trkpt lat="43.91016" lon="7.22892">
        <ele>1227</ele>
        <time>2011-11-22T11:20:36Z</time>
      </trkpt>
      <trkpt lat="43.91013" lon="7.22888">
        <ele>1227</ele>
        <time>2011-11-22T11:20:41Z</time>
      </trkpt>
      <trkpt lat="43.9101" lon="7.22882">
        <ele>1225</ele>
        <time>2011-11-22T11:20:46Z</time>
      </trkpt>
      <trkpt lat="43.91006" lon="7.22878">
        <ele>1224</ele>
        <time>2011-11-22T11:20:51Z</time>
      </trkpt>
      <trkpt lat="43.91003" lon="7.22873">
        <ele>1227</ele>
        <time>2011-11-22T11:20:58Z</time>
      </trkpt>
      <trkpt lat="43.91001" lon="7.22867">
        <ele>1228</ele>
        <time>2011-11-22T11:21:02Z</time>
      </trkpt>
      <trkpt lat="43.91" lon="7.2286">
        <ele>1229</ele>
        <time>2011-11-22T11:21:07Z</time>
      </trkpt>
      <trkpt lat="43.91" lon="7.2286">
        <ele>1229</ele>
        <time>2011-11-22T11:21:07Z</time>
      </trkpt>
      <trkpt lat="43.91" lon="7.2286">
        <ele>1229</ele>
        <time>2011-11-22T11:21:08Z</time>
      </trkpt>
      <trkpt lat="43.90996" lon="7.22855">
        <ele>1227</ele>
        <time>2011-11-22T11:21:23Z</time>
      </trkpt>
      <trkpt lat="43.90992" lon="7.22852">
        <ele>1228</ele>
        <time>2011-11-22T11:21:27Z</time>
      </trkpt>
      <trkpt lat="43.90988" lon="7.22848">
        <ele>1230</ele>
        <time>2011-11-22T11:21:34Z</time>
      </trkpt>
      <trkpt lat="43.90988" lon="7.22848">
        <ele>1230</ele>
        <time>2011-11-22T11:21:34Z</time>
      </trkpt>
      <trkpt lat="43.90988" lon="7.22848">
        <ele>1230</ele>
        <time>2011-11-22T11:21:36Z</time>
      </trkpt>
      <trkpt lat="43.90984" lon="7.22842">
        <ele>1230</ele>
        <time>2011-11-22T11:21:41Z</time>
      </trkpt>
      <trkpt lat="43.9098" lon="7.22839">
        <ele>1229</ele>
        <time>2011-11-22T11:22:02Z</time>
      </trkpt>
      <trkpt lat="43.90976" lon="7.22836">
        <ele>1231</ele>
        <time>2011-11-22T11:22:09Z</time>
      </trkpt>
      <trkpt lat="43.90972" lon="7.22831">
        <ele>1230</ele>
        <time>2011-11-22T11:22:17Z</time>
      </trkpt>
      <trkpt lat="43.9097" lon="7.22825">
        <ele>1228</ele>
        <time>2011-11-22T11:24:45Z</time>
      </trkpt>
      <trkpt lat="43.9097" lon="7.22825">
        <ele>1228</ele>
        <time>2011-11-22T11:24:45Z</time>
      </trkpt>
      <trkpt lat="43.9097" lon="7.22825">
        <ele>1228</ele>
        <time>2011-11-22T11:24:48Z</time>
      </trkpt>
      <trkpt lat="43.90975" lon="7.22823">
        <ele>1228</ele>
        <time>2011-11-22T11:26:16Z</time>
      </trkpt>
      <trkpt lat="43.90976" lon="7.22817">
        <ele>1230</ele>
        <time>2011-11-22T11:26:28Z</time>
      </trkpt>
      <trkpt lat="43.90976" lon="7.22817">
        <ele>1230</ele>
        <time>2011-11-22T11:26:28Z</time>
      </trkpt>
      <trkpt lat="43.90976" lon="7.22817">
        <ele>1230</ele>
        <time>2011-11-22T11:26:29Z</time>
      </trkpt>
      <trkpt lat="43.90977" lon="7.2281">
        <ele>1231</ele>
        <time>2011-11-22T11:26:37Z</time>
      </trkpt>
      <trkpt lat="43.90977" lon="7.22803">
        <ele>1232</ele>
        <time>2011-11-22T11:26:47Z</time>
      </trkpt>
      <trkpt lat="43.90976" lon="7.22797">
        <ele>1233</ele>
        <time>2011-11-22T11:26:52Z</time>
      </trkpt>
      <trkpt lat="43.90976" lon="7.2279">
        <ele>1234</ele>
        <time>2011-11-22T11:27:06Z</time>
      </trkpt>
      <trkpt lat="43.90974" lon="7.22783">
        <ele>1234</ele>
        <time>2011-11-22T11:27:12Z</time>
      </trkpt>
      <trkpt lat="43.90972" lon="7.22776">
        <ele>1234</ele>
        <time>2011-11-22T11:27:22Z</time>
      </trkpt>
      <trkpt lat="43.9097" lon="7.22769">
        <ele>1233</ele>
        <time>2011-11-22T11:27:29Z</time>
      </trkpt>
      <trkpt lat="43.90969" lon="7.22763">
        <ele>1233</ele>
        <time>2011-11-22T11:27:35Z</time>
      </trkpt>
      <trkpt lat="43.9097" lon="7.22757">
        <ele>1233</ele>
        <time>2011-11-22T11:27:41Z</time>
      </trkpt>
      <trkpt lat="43.9097" lon="7.2275">
        <ele>1233</ele>
        <time>2011-11-22T11:27:52Z</time>
      </trkpt>
      <trkpt lat="43.90968" lon="7.22744">
        <ele>1234</ele>
        <time>2011-11-22T11:27:56Z</time>
      </trkpt>
      <trkpt lat="43.90964" lon="7.22738">
        <ele>1233</ele>
        <time>2011-11-22T11:28:03Z</time>
      </trkpt>
      <trkpt lat="43.90962" lon="7.22732">
        <ele>1233</ele>
        <time>2011-11-22T11:28:50Z</time>
      </trkpt>
      <trkpt lat="43.90963" lon="7.22726">
        <ele>1234</ele>
        <time>2011-11-22T11:28:56Z</time>
      </trkpt>
      <trkpt lat="43.90962" lon="7.22718">
        <ele>1234</ele>
        <time>2011-11-22T11:29:02Z</time>
      </trkpt>
      <trkpt lat="43.9096" lon="7.22713">
        <ele>1234</ele>
        <time>2011-11-22T11:29:07Z</time>
      </trkpt>
      <trkpt lat="43.9096" lon="7.22706">
        <ele>1234</ele>
        <time>2011-11-22T11:29:16Z</time>
      </trkpt>
      <trkpt lat="43.90959" lon="7.22699">
        <ele>1233</ele>
        <time>2011-11-22T11:29:23Z</time>
      </trkpt>
      <trkpt lat="43.90959" lon="7.22699">
        <ele>1233</ele>
        <time>2011-11-22T11:29:23Z</time>
      </trkpt>
      <trkpt lat="43.90959" lon="7.22699">
        <ele>1233</ele>
        <time>2011-11-22T11:29:30Z</time>
      </trkpt>
      <trkpt lat="43.90961" lon="7.22693">
        <ele>1234</ele>
        <time>2011-11-22T11:29:43Z</time>
      </trkpt>
      <trkpt lat="43.90958" lon="7.22687">
        <ele>1234</ele>
        <time>2011-11-22T11:29:51Z</time>
      </trkpt>
      <trkpt lat="43.90956" lon="7.2268">
        <ele>1235</ele>
        <time>2011-11-22T11:30:00Z</time>
      </trkpt>
      <trkpt lat="43.90956" lon="7.22673">
        <ele>1236</ele>
        <time>2011-11-22T11:30:07Z</time>
      </trkpt>
      <trkpt lat="43.90954" lon="7.22667">
        <ele>1236</ele>
        <time>2011-11-22T11:30:17Z</time>
      </trkpt>
      <trkpt lat="43.90952" lon="7.22661">
        <ele>1236</ele>
        <time>2011-11-22T11:30:21Z</time>
      </trkpt>
      <trkpt lat="43.90949" lon="7.22655">
        <ele>1236</ele>
        <time>2011-11-22T11:30:26Z</time>
      </trkpt>
      <trkpt lat="43.90947" lon="7.22648">
        <ele>1236</ele>
        <time>2011-11-22T11:30:31Z</time>
      </trkpt>
      <trkpt lat="43.90946" lon="7.22642">
        <ele>1238</ele>
        <time>2011-11-22T11:30:36Z</time>
      </trkpt>
      <trkpt lat="43.90944" lon="7.22635">
        <ele>1238</ele>
        <time>2011-11-22T11:30:42Z</time>
      </trkpt>
      <trkpt lat="43.90942" lon="7.22629">
        <ele>1237</ele>
        <time>2011-11-22T11:30:49Z</time>
      </trkpt>
      <trkpt lat="43.9094" lon="7.22623">
        <ele>1237</ele>
        <time>2011-11-22T11:30:55Z</time>
      </trkpt>
      <trkpt lat="43.90938" lon="7.22617">
        <ele>1238</ele>
        <time>2011-11-22T11:31:00Z</time>
      </trkpt>
      <trkpt lat="43.90936" lon="7.22611">
        <ele>1238</ele>
        <time>2011-11-22T11:31:06Z</time>
      </trkpt>
      <trkpt lat="43.90935" lon="7.22604">
        <ele>1238</ele>
        <time>2011-11-22T11:31:11Z</time>
      </trkpt>
      <trkpt lat="43.90934" lon="7.22597">
        <ele>1239</ele>
        <time>2011-11-22T11:31:16Z</time>
      </trkpt>
      <trkpt lat="43.90931" lon="7.2259">
        <ele>1240</ele>
        <time>2011-11-22T11:31:22Z</time>
      </trkpt>
      <trkpt lat="43.9093" lon="7.22584">
        <ele>1240</ele>
        <time>2011-11-22T11:31:27Z</time>
      </trkpt>
      <trkpt lat="43.90929" lon="7.22577">
        <ele>1240</ele>
        <time>2011-11-22T11:31:33Z</time>
      </trkpt>
      <trkpt lat="43.90928" lon="7.2257">
        <ele>1240</ele>
        <time>2011-11-22T11:31:38Z</time>
      </trkpt>
      <trkpt lat="43.90926" lon="7.22564">
        <ele>1240</ele>
        <time>2011-11-22T11:31:52Z</time>
      </trkpt>
      <trkpt lat="43.90923" lon="7.22558">
        <ele>1239</ele>
        <time>2011-11-22T11:31:58Z</time>
      </trkpt>
      <trkpt lat="43.9092" lon="7.22553">
        <ele>1240</ele>
        <time>2011-11-22T11:32:04Z</time>
      </trkpt>
      <trkpt lat="43.90917" lon="7.22547">
        <ele>1240</ele>
        <time>2011-11-22T11:32:09Z</time>
      </trkpt>
      <trkpt lat="43.90917" lon="7.22547">
        <ele>1240</ele>
        <time>2011-11-22T11:32:09Z</time>
      </trkpt>
      <trkpt lat="43.90917" lon="7.22547">
        <ele>1240</ele>
        <time>2011-11-22T11:32:10Z</time>
      </trkpt>
      <trkpt lat="43.90915" lon="7.22541">
        <ele>1240</ele>
        <time>2011-11-22T11:32:16Z</time>
      </trkpt>
      <trkpt lat="43.90914" lon="7.22534">
        <ele>1240</ele>
        <time>2011-11-22T11:32:24Z</time>
      </trkpt>
      <trkpt lat="43.90911" lon="7.2253">
        <ele>1240</ele>
        <time>2011-11-22T11:32:28Z</time>
      </trkpt>
      <trkpt lat="43.90906" lon="7.22525">
        <ele>1239</ele>
        <time>2011-11-22T11:32:35Z</time>
      </trkpt>
      <trkpt lat="43.90904" lon="7.2252">
        <ele>1239</ele>
        <time>2011-11-22T11:32:40Z</time>
      </trkpt>
      <trkpt lat="43.90901" lon="7.22512">
        <ele>1238</ele>
        <time>2011-11-22T11:32:48Z</time>
      </trkpt>
      <trkpt lat="43.90897" lon="7.22508">
        <ele>1240</ele>
        <time>2011-11-22T11:32:52Z</time>
      </trkpt>
      <trkpt lat="43.90894" lon="7.22502">
        <ele>1242</ele>
        <time>2011-11-22T11:32:55Z</time>
      </trkpt>
      <trkpt lat="43.90892" lon="7.22495">
        <ele>1242</ele>
        <time>2011-11-22T11:33:01Z</time>
      </trkpt>
      <trkpt lat="43.90892" lon="7.22488">
        <ele>1242</ele>
        <time>2011-11-22T11:33:07Z</time>
      </trkpt>
      <trkpt lat="43.90891" lon="7.22481">
        <ele>1243</ele>
        <time>2011-11-22T11:33:13Z</time>
      </trkpt>
      <trkpt lat="43.9089" lon="7.22475">
        <ele>1243</ele>
        <time>2011-11-22T11:33:19Z</time>
      </trkpt>
      <trkpt lat="43.90889" lon="7.22468">
        <ele>1243</ele>
        <time>2011-11-22T11:33:24Z</time>
      </trkpt>
      <trkpt lat="43.90888" lon="7.2246">
        <ele>1245</ele>
        <time>2011-11-22T11:33:29Z</time>
      </trkpt>
      <trkpt lat="43.90887" lon="7.22455">
        <ele>1245</ele>
        <time>2011-11-22T11:33:36Z</time>
      </trkpt>
      <trkpt lat="43.90886" lon="7.22448">
        <ele>1244</ele>
        <time>2011-11-22T11:33:44Z</time>
      </trkpt>
      <trkpt lat="43.90886" lon="7.22448">
        <ele>1244</ele>
        <time>2011-11-22T11:33:44Z</time>
      </trkpt>
      <trkpt lat="43.90886" lon="7.22448">
        <ele>1243</ele>
        <time>2011-11-22T11:33:47Z</time>
      </trkpt>
      <trkpt lat="43.90881" lon="7.22449">
        <ele>1243</ele>
        <time>2011-11-22T11:34:11Z</time>
      </trkpt>
      <trkpt lat="43.90879" lon="7.22443">
        <ele>1244</ele>
        <time>2011-11-22T11:34:28Z</time>
      </trkpt>
      <trkpt lat="43.90876" lon="7.22437">
        <ele>1244</ele>
        <time>2011-11-22T11:34:50Z</time>
      </trkpt>
      <trkpt lat="43.90876" lon="7.22437">
        <ele>1244</ele>
        <time>2011-11-22T11:34:50Z</time>
      </trkpt>
      <trkpt lat="43.90876" lon="7.22437">
        <ele>1244</ele>
        <time>2011-11-22T11:34:52Z</time>
      </trkpt>
      <trkpt lat="43.90875" lon="7.22431">
        <ele>1245</ele>
        <time>2011-11-22T11:35:02Z</time>
      </trkpt>
      <trkpt lat="43.9087" lon="7.22429">
        <ele>1246</ele>
        <time>2011-11-22T11:38:54Z</time>
      </trkpt>
      <trkpt lat="43.9087" lon="7.22429">
        <ele>1246</ele>
        <time>2011-11-22T11:38:54Z</time>
      </trkpt>
      <trkpt lat="43.9087" lon="7.22429">
        <ele>1246</ele>
        <time>2011-11-22T11:39:51Z</time>
      </trkpt>
      <trkpt lat="43.90875" lon="7.22428">
        <ele>1246</ele>
        <time>2011-11-22T11:40:05Z</time>
      </trkpt>
      <trkpt lat="43.90875" lon="7.22428">
        <ele>1246</ele>
        <time>2011-11-22T11:40:05Z</time>
      </trkpt>
      <trkpt lat="43.90875" lon="7.22428">
        <ele>1246</ele>
        <time>2011-11-22T11:41:50Z</time>
      </trkpt>
      <trkpt lat="43.90875" lon="7.22435">
        <ele>1246</ele>
        <time>2011-11-22T11:42:03Z</time>
      </trkpt>
      <trkpt lat="43.90877" lon="7.22441">
        <ele>1246</ele>
        <time>2011-11-22T11:42:11Z</time>
      </trkpt>
      <trkpt lat="43.9088" lon="7.22446">
        <ele>1245</ele>
        <time>2011-11-22T11:42:19Z</time>
      </trkpt>
      <trkpt lat="43.90884" lon="7.2245">
        <ele>1245</ele>
        <time>2011-11-22T11:42:25Z</time>
      </trkpt>
      <trkpt lat="43.90888" lon="7.22455">
        <ele>1244</ele>
        <time>2011-11-22T11:42:32Z</time>
      </trkpt>
      <trkpt lat="43.9089" lon="7.22462">
        <ele>1244</ele>
        <time>2011-11-22T11:42:37Z</time>
      </trkpt>
      <trkpt lat="43.90891" lon="7.22469">
        <ele>1244</ele>
        <time>2011-11-22T11:42:42Z</time>
      </trkpt>
      <trkpt lat="43.90892" lon="7.22476">
        <ele>1243</ele>
        <time>2011-11-22T11:42:48Z</time>
      </trkpt>
      <trkpt lat="43.90893" lon="7.22483">
        <ele>1243</ele>
        <time>2011-11-22T11:42:55Z</time>
      </trkpt>
      <trkpt lat="43.90895" lon="7.2249">
        <ele>1243</ele>
        <time>2011-11-22T11:43:09Z</time>
      </trkpt>
      <trkpt lat="43.90896" lon="7.22496">
        <ele>1244</ele>
        <time>2011-11-22T11:43:13Z</time>
      </trkpt>
      <trkpt lat="43.90901" lon="7.22501">
        <ele>1242</ele>
        <time>2011-11-22T11:43:21Z</time>
      </trkpt>
      <trkpt lat="43.90903" lon="7.22507">
        <ele>1242</ele>
        <time>2011-11-22T11:43:26Z</time>
      </trkpt>
      <trkpt lat="43.90904" lon="7.22513">
        <ele>1241</ele>
        <time>2011-11-22T11:43:45Z</time>
      </trkpt>
      <trkpt lat="43.90906" lon="7.22518">
        <ele>1240</ele>
        <time>2011-11-22T11:43:52Z</time>
      </trkpt>
      <trkpt lat="43.90909" lon="7.22524">
        <ele>1239</ele>
        <time>2011-11-22T11:43:57Z</time>
      </trkpt>
      <trkpt lat="43.90912" lon="7.22528">
        <ele>1241</ele>
        <time>2011-11-22T11:44:00Z</time>
      </trkpt>
      <trkpt lat="43.90914" lon="7.22534">
        <ele>1241</ele>
        <time>2011-11-22T11:44:05Z</time>
      </trkpt>
      <trkpt lat="43.90917" lon="7.22541">
        <ele>1240</ele>
        <time>2011-11-22T11:44:10Z</time>
      </trkpt>
      <trkpt lat="43.90921" lon="7.22545">
        <ele>1239</ele>
        <time>2011-11-22T11:44:22Z</time>
      </trkpt>
      <trkpt lat="43.90922" lon="7.22551">
        <ele>1239</ele>
        <time>2011-11-22T11:44:28Z</time>
      </trkpt>
      <trkpt lat="43.90925" lon="7.22555">
        <ele>1238</ele>
        <time>2011-11-22T11:44:42Z</time>
      </trkpt>
      <trkpt lat="43.90928" lon="7.22561">
        <ele>1239</ele>
        <time>2011-11-22T11:45:16Z</time>
      </trkpt>
      <trkpt lat="43.90928" lon="7.22561">
        <ele>1239</ele>
        <time>2011-11-22T11:45:16Z</time>
      </trkpt>
      <trkpt lat="43.90928" lon="7.22561">
        <ele>1239</ele>
        <time>2011-11-22T11:45:17Z</time>
      </trkpt>
      <trkpt lat="43.90928" lon="7.22568">
        <ele>1238</ele>
        <time>2011-11-22T11:45:24Z</time>
      </trkpt>
      <trkpt lat="43.90931" lon="7.22573">
        <ele>1238</ele>
        <time>2011-11-22T11:45:34Z</time>
      </trkpt>
      <trkpt lat="43.90932" lon="7.22578">
        <ele>1239</ele>
        <time>2011-11-22T11:45:44Z</time>
      </trkpt>
      <trkpt lat="43.90932" lon="7.22578">
        <ele>1239</ele>
        <time>2011-11-22T11:45:44Z</time>
      </trkpt>
      <trkpt lat="43.90932" lon="7.22578">
        <ele>1240</ele>
        <time>2011-11-22T11:46:51Z</time>
      </trkpt>
      <trkpt lat="43.90933" lon="7.22585">
        <ele>1241</ele>
        <time>2011-11-22T11:46:59Z</time>
      </trkpt>
      <trkpt lat="43.90937" lon="7.22589">
        <ele>1241</ele>
        <time>2011-11-22T11:47:04Z</time>
      </trkpt>
      <trkpt lat="43.90938" lon="7.22596">
        <ele>1241</ele>
        <time>2011-11-22T11:47:09Z</time>
      </trkpt>
      <trkpt lat="43.90941" lon="7.22602">
        <ele>1242</ele>
        <time>2011-11-22T11:47:14Z</time>
      </trkpt>
      <trkpt lat="43.90946" lon="7.22606">
        <ele>1242</ele>
        <time>2011-11-22T11:47:22Z</time>
      </trkpt>
      <trkpt lat="43.9095" lon="7.22611">
        <ele>1243</ele>
        <time>2011-11-22T11:47:27Z</time>
      </trkpt>
      <trkpt lat="43.90952" lon="7.22618">
        <ele>1240</ele>
        <time>2011-11-22T11:47:34Z</time>
      </trkpt>
      <trkpt lat="43.9095" lon="7.22624">
        <ele>1239</ele>
        <time>2011-11-22T11:47:39Z</time>
      </trkpt>
      <trkpt lat="43.90951" lon="7.2263">
        <ele>1237</ele>
        <time>2011-11-22T11:47:46Z</time>
      </trkpt>
      <trkpt lat="43.90955" lon="7.22634">
        <ele>1238</ele>
        <time>2011-11-22T11:47:51Z</time>
      </trkpt>
      <trkpt lat="43.90958" lon="7.22639">
        <ele>1240</ele>
        <time>2011-11-22T11:47:55Z</time>
      </trkpt>
      <trkpt lat="43.9096" lon="7.22644">
        <ele>1241</ele>
        <time>2011-11-22T11:48:01Z</time>
      </trkpt>
      <trkpt lat="43.9096" lon="7.22652">
        <ele>1241</ele>
        <time>2011-11-22T11:48:07Z</time>
      </trkpt>
      <trkpt lat="43.90962" lon="7.22658">
        <ele>1242</ele>
        <time>2011-11-22T11:48:12Z</time>
      </trkpt>
      <trkpt lat="43.90963" lon="7.22664">
        <ele>1242</ele>
        <time>2011-11-22T11:48:16Z</time>
      </trkpt>
      <trkpt lat="43.90963" lon="7.22672">
        <ele>1240</ele>
        <time>2011-11-22T11:48:22Z</time>
      </trkpt>
      <trkpt lat="43.90961" lon="7.22679">
        <ele>1237</ele>
        <time>2011-11-22T11:48:27Z</time>
      </trkpt>
      <trkpt lat="43.90962" lon="7.22686">
        <ele>1237</ele>
        <time>2011-11-22T11:48:32Z</time>
      </trkpt>
      <trkpt lat="43.90963" lon="7.22693">
        <ele>1236</ele>
        <time>2011-11-22T11:48:45Z</time>
      </trkpt>
      <trkpt lat="43.90966" lon="7.22699">
        <ele>1238</ele>
        <time>2011-11-22T11:48:49Z</time>
      </trkpt>
      <trkpt lat="43.90966" lon="7.22706">
        <ele>1236</ele>
        <time>2011-11-22T11:48:53Z</time>
      </trkpt>
      <trkpt lat="43.90968" lon="7.22713">
        <ele>1236</ele>
        <time>2011-11-22T11:48:58Z</time>
      </trkpt>
      <trkpt lat="43.90968" lon="7.2272">
        <ele>1235</ele>
        <time>2011-11-22T11:49:03Z</time>
      </trkpt>
      <trkpt lat="43.90969" lon="7.22727">
        <ele>1234</ele>
        <time>2011-11-22T11:49:08Z</time>
      </trkpt>
      <trkpt lat="43.90969" lon="7.22734">
        <ele>1234</ele>
        <time>2011-11-22T11:49:13Z</time>
      </trkpt>
      <trkpt lat="43.90971" lon="7.22739">
        <ele>1235</ele>
        <time>2011-11-22T11:49:17Z</time>
      </trkpt>
      <trkpt lat="43.90972" lon="7.22746">
        <ele>1234</ele>
        <time>2011-11-22T11:49:22Z</time>
      </trkpt>
      <trkpt lat="43.90973" lon="7.22754">
        <ele>1233</ele>
        <time>2011-11-22T11:49:27Z</time>
      </trkpt>
      <trkpt lat="43.90975" lon="7.2276">
        <ele>1232</ele>
        <time>2011-11-22T11:49:32Z</time>
      </trkpt>
      <trkpt lat="43.90978" lon="7.22765">
        <ele>1233</ele>
        <time>2011-11-22T11:49:37Z</time>
      </trkpt>
      <trkpt lat="43.90982" lon="7.2277">
        <ele>1233</ele>
        <time>2011-11-22T11:49:41Z</time>
      </trkpt>
      <trkpt lat="43.90983" lon="7.22778">
        <ele>1233</ele>
        <time>2011-11-22T11:49:46Z</time>
      </trkpt>
      <trkpt lat="43.90986" lon="7.22784">
        <ele>1234</ele>
        <time>2011-11-22T11:49:51Z</time>
      </trkpt>
      <trkpt lat="43.90988" lon="7.2279">
        <ele>1235</ele>
        <time>2011-11-22T11:49:55Z</time>
      </trkpt>
      <trkpt lat="43.9099" lon="7.22796">
        <ele>1234</ele>
        <time>2011-11-22T11:50:00Z</time>
      </trkpt>
      <trkpt lat="43.90993" lon="7.22802">
        <ele>1234</ele>
        <time>2011-11-22T11:50:05Z</time>
      </trkpt>
      <trkpt lat="43.90995" lon="7.22808">
        <ele>1234</ele>
        <time>2011-11-22T11:50:12Z</time>
      </trkpt>
      <trkpt lat="43.90996" lon="7.22815">
        <ele>1233</ele>
        <time>2011-11-22T11:50:17Z</time>
      </trkpt>
      <trkpt lat="43.90999" lon="7.22821">
        <ele>1234</ele>
        <time>2011-11-22T11:50:22Z</time>
      </trkpt>
      <trkpt lat="43.91002" lon="7.22827">
        <ele>1234</ele>
        <time>2011-11-22T11:50:26Z</time>
      </trkpt>
      <trkpt lat="43.91002" lon="7.22834">
        <ele>1232</ele>
        <time>2011-11-22T11:50:31Z</time>
      </trkpt>
      <trkpt lat="43.91004" lon="7.22841">
        <ele>1232</ele>
        <time>2011-11-22T11:50:35Z</time>
      </trkpt>
      <trkpt lat="43.91005" lon="7.22847">
        <ele>1231</ele>
        <time>2011-11-22T11:50:39Z</time>
      </trkpt>
      <trkpt lat="43.91007" lon="7.22853">
        <ele>1231</ele>
        <time>2011-11-22T11:50:43Z</time>
      </trkpt>
      <trkpt lat="43.91008" lon="7.22859">
        <ele>1232</ele>
        <time>2011-11-22T11:50:47Z</time>
      </trkpt>
      <trkpt lat="43.91009" lon="7.22866">
        <ele>1231</ele>
        <time>2011-11-22T11:50:53Z</time>
      </trkpt>
      <trkpt lat="43.9101" lon="7.22874">
        <ele>1231</ele>
        <time>2011-11-22T11:50:58Z</time>
      </trkpt>
      <trkpt lat="43.91013" lon="7.22879">
        <ele>1231</ele>
        <time>2011-11-22T11:51:02Z</time>
      </trkpt>
      <trkpt lat="43.91015" lon="7.22885">
        <ele>1231</ele>
        <time>2011-11-22T11:51:06Z</time>
      </trkpt>
      <trkpt lat="43.91018" lon="7.22891">
        <ele>1230</ele>
        <time>2011-11-22T11:51:11Z</time>
      </trkpt>
      <trkpt lat="43.91021" lon="7.22896">
        <ele>1230</ele>
        <time>2011-11-22T11:51:15Z</time>
      </trkpt>
      <trkpt lat="43.91026" lon="7.229">
        <ele>1231</ele>
        <time>2011-11-22T11:51:19Z</time>
      </trkpt>
      <trkpt lat="43.91028" lon="7.22905">
        <ele>1231</ele>
        <time>2011-11-22T11:51:25Z</time>
      </trkpt>
      <trkpt lat="43.9103" lon="7.22911">
        <ele>1230</ele>
        <time>2011-11-22T11:51:30Z</time>
      </trkpt>
      <trkpt lat="43.91035" lon="7.22915">
        <ele>1230</ele>
        <time>2011-11-22T11:51:34Z</time>
      </trkpt>
      <trkpt lat="43.91038" lon="7.22919">
        <ele>1231</ele>
        <time>2011-11-22T11:51:38Z</time>
      </trkpt>
      <trkpt lat="43.91041" lon="7.22924">
        <ele>1230</ele>
        <time>2011-11-22T11:51:43Z</time>
      </trkpt>
      <trkpt lat="43.91044" lon="7.22929">
        <ele>1230</ele>
        <time>2011-11-22T11:51:49Z</time>
      </trkpt>
      <trkpt lat="43.91048" lon="7.22932">
        <ele>1232</ele>
        <time>2011-11-22T11:51:54Z</time>
      </trkpt>
      <trkpt lat="43.9105" lon="7.22939">
        <ele>1231</ele>
        <time>2011-11-22T11:51:59Z</time>
      </trkpt>
      <trkpt lat="43.91053" lon="7.22944">
        <ele>1231</ele>
        <time>2011-11-22T11:52:04Z</time>
      </trkpt>
      <trkpt lat="43.91056" lon="7.22949">
        <ele>1230</ele>
        <time>2011-11-22T11:52:09Z</time>
      </trkpt>
      <trkpt lat="43.91059" lon="7.22955">
        <ele>1230</ele>
        <time>2011-11-22T11:52:13Z</time>
      </trkpt>
      <trkpt lat="43.91062" lon="7.22961">
        <ele>1230</ele>
        <time>2011-11-22T11:52:17Z</time>
      </trkpt>
      <trkpt lat="43.91065" lon="7.22966">
        <ele>1232</ele>
        <time>2011-11-22T11:52:21Z</time>
      </trkpt>
      <trkpt lat="43.91066" lon="7.22972">
        <ele>1231</ele>
        <time>2011-11-22T11:52:26Z</time>
      </trkpt>
      <trkpt lat="43.91069" lon="7.22978">
        <ele>1231</ele>
        <time>2011-11-22T11:52:31Z</time>
      </trkpt>
      <trkpt lat="43.9107" lon="7.22985">
        <ele>1231</ele>
        <time>2011-11-22T11:52:35Z</time>
      </trkpt>
      <trkpt lat="43.91072" lon="7.22991">
        <ele>1231</ele>
        <time>2011-11-22T11:52:39Z</time>
      </trkpt>
      <trkpt lat="43.91073" lon="7.22997">
        <ele>1231</ele>
        <time>2011-11-22T11:52:43Z</time>
      </trkpt>
      <trkpt lat="43.91075" lon="7.23004">
        <ele>1230</ele>
        <time>2011-11-22T11:52:48Z</time>
      </trkpt>
      <trkpt lat="43.91079" lon="7.23009">
        <ele>1230</ele>
        <time>2011-11-22T11:52:52Z</time>
      </trkpt>
      <trkpt lat="43.91081" lon="7.23015">
        <ele>1231</ele>
        <time>2011-11-22T11:52:57Z</time>
      </trkpt>
      <trkpt lat="43.91084" lon="7.2302">
        <ele>1231</ele>
        <time>2011-11-22T11:53:01Z</time>
      </trkpt>
      <trkpt lat="43.91085" lon="7.23026">
        <ele>1230</ele>
        <time>2011-11-22T11:53:05Z</time>
      </trkpt>
      <trkpt lat="43.91088" lon="7.23033">
        <ele>1229</ele>
        <time>2011-11-22T11:53:10Z</time>
      </trkpt>
      <trkpt lat="43.9109" lon="7.23039">
        <ele>1229</ele>
        <time>2011-11-22T11:53:14Z</time>
      </trkpt>
      <trkpt lat="43.91092" lon="7.23046">
        <ele>1229</ele>
        <time>2011-11-22T11:53:19Z</time>
      </trkpt>
      <trkpt lat="43.91094" lon="7.23052">
        <ele>1229</ele>
        <time>2011-11-22T11:53:23Z</time>
      </trkpt>
      <trkpt lat="43.91097" lon="7.23058">
        <ele>1229</ele>
        <time>2011-11-22T11:53:27Z</time>
      </trkpt>
      <trkpt lat="43.911" lon="7.23064">
        <ele>1228</ele>
        <time>2011-11-22T11:53:31Z</time>
      </trkpt>
      <trkpt lat="43.91102" lon="7.2307">
        <ele>1228</ele>
        <time>2011-11-22T11:53:35Z</time>
      </trkpt>
      <trkpt lat="43.91105" lon="7.23076">
        <ele>1228</ele>
        <time>2011-11-22T11:53:40Z</time>
      </trkpt>
      <trkpt lat="43.91107" lon="7.23082">
        <ele>1228</ele>
        <time>2011-11-22T11:53:44Z</time>
      </trkpt>
      <trkpt lat="43.91109" lon="7.23088">
        <ele>1229</ele>
        <time>2011-11-22T11:53:48Z</time>
      </trkpt>
      <trkpt lat="43.91111" lon="7.23094">
        <ele>1228</ele>
        <time>2011-11-22T11:53:53Z</time>
      </trkpt>
      <trkpt lat="43.91113" lon="7.231">
        <ele>1228</ele>
        <time>2011-11-22T11:53:58Z</time>
      </trkpt>
      <trkpt lat="43.91118" lon="7.23104">
        <ele>1228</ele>
        <time>2011-11-22T11:54:05Z</time>
      </trkpt>
      <trkpt lat="43.91122" lon="7.23108">
        <ele>1228</ele>
        <time>2011-11-22T11:54:10Z</time>
      </trkpt>
      <trkpt lat="43.91126" lon="7.23113">
        <ele>1228</ele>
        <time>2011-11-22T11:54:17Z</time>
      </trkpt>
      <trkpt lat="43.91131" lon="7.23114">
        <ele>1229</ele>
        <time>2011-11-22T11:54:25Z</time>
      </trkpt>
      <trkpt lat="43.91136" lon="7.23117">
        <ele>1229</ele>
        <time>2011-11-22T11:54:32Z</time>
      </trkpt>
      <trkpt lat="43.9114" lon="7.23113">
        <ele>1232</ele>
        <time>2011-11-22T11:54:48Z</time>
      </trkpt>
      <trkpt lat="43.91139" lon="7.23103">
        <ele>1240</ele>
        <time>2011-11-22T12:05:57Z</time>
      </trkpt>
      <trkpt lat="43.91142" lon="7.23107">
        <ele>1239</ele>
        <time>2011-11-22T12:06:14Z</time>
      </trkpt>
      <trkpt lat="43.91142" lon="7.23114">
        <ele>1235</ele>
        <time>2011-11-22T12:10:34Z</time>
      </trkpt>
      <trkpt lat="43.9114" lon="7.23107">
        <ele>1236</ele>
        <time>2011-11-22T12:10:37Z</time>
      </trkpt>
      <trkpt lat="43.91142" lon="7.23114">
        <ele>1232</ele>
        <time>2011-11-22T12:11:13Z</time>
      </trkpt>
      <trkpt lat="43.91144" lon="7.2312">
        <ele>1231</ele>
        <time>2011-11-22T12:11:31Z</time>
      </trkpt>
      <trkpt lat="43.91144" lon="7.2312">
        <ele>1231</ele>
        <time>2011-11-22T12:11:31Z</time>
      </trkpt>
      <trkpt lat="43.91144" lon="7.2312">
        <ele>1231</ele>
        <time>2011-11-22T12:11:36Z</time>
      </trkpt>
      <trkpt lat="43.91139" lon="7.23118">
        <ele>1230</ele>
        <time>2011-11-22T12:12:37Z</time>
      </trkpt>
      <trkpt lat="43.91134" lon="7.23117">
        <ele>1232</ele>
        <time>2011-11-22T12:12:44Z</time>
      </trkpt>
      <trkpt lat="43.9113" lon="7.2312">
        <ele>1233</ele>
        <time>2011-11-22T12:12:52Z</time>
      </trkpt>
      <trkpt lat="43.91126" lon="7.23123">
        <ele>1232</ele>
        <time>2011-11-22T12:13:02Z</time>
      </trkpt>
      <trkpt lat="43.91123" lon="7.23128">
        <ele>1232</ele>
        <time>2011-11-22T12:13:31Z</time>
      </trkpt>
      <trkpt lat="43.91126" lon="7.23133">
        <ele>1233</ele>
        <time>2011-11-22T12:13:41Z</time>
      </trkpt>
      <trkpt lat="43.91129" lon="7.23138">
        <ele>1233</ele>
        <time>2011-11-22T12:13:46Z</time>
      </trkpt>
      <trkpt lat="43.91131" lon="7.23144">
        <ele>1233</ele>
        <time>2011-11-22T12:13:53Z</time>
      </trkpt>
      <trkpt lat="43.91134" lon="7.2315">
        <ele>1233</ele>
        <time>2011-11-22T12:13:57Z</time>
      </trkpt>
      <trkpt lat="43.91137" lon="7.23155">
        <ele>1234</ele>
        <time>2011-11-22T12:14:07Z</time>
      </trkpt>
      <trkpt lat="43.91139" lon="7.23162">
        <ele>1233</ele>
        <time>2011-11-22T12:14:13Z</time>
      </trkpt>
      <trkpt lat="43.91142" lon="7.23167">
        <ele>1233</ele>
        <time>2011-11-22T12:14:21Z</time>
      </trkpt>
      <trkpt lat="43.91144" lon="7.23175">
        <ele>1224</ele>
        <time>2011-11-22T12:56:02Z</time>
      </trkpt>
      <trkpt lat="43.91144" lon="7.23175">
        <ele>1224</ele>
        <time>2011-11-22T12:56:02Z</time>
      </trkpt>
      <trkpt lat="43.91144" lon="7.23175">
        <ele>1225</ele>
        <time>2011-11-22T12:56:03Z</time>
      </trkpt>
      <trkpt lat="43.91142" lon="7.23169">
        <ele>1225</ele>
        <time>2011-11-22T12:57:43Z</time>
      </trkpt>
      <trkpt lat="43.91147" lon="7.23169">
        <ele>1218</ele>
        <time>2011-11-22T13:00:43Z</time>
      </trkpt>
      <trkpt lat="43.91148" lon="7.23178">
        <ele>1221</ele>
        <time>2011-11-22T13:22:33Z</time>
      </trkpt>
      <trkpt lat="43.91149" lon="7.23171">
        <ele>1223</ele>
        <time>2011-11-22T13:22:38Z</time>
      </trkpt>
      <trkpt lat="43.91149" lon="7.23171">
        <ele>1223</ele>
        <time>2011-11-22T13:22:38Z</time>
      </trkpt>
      <trkpt lat="43.91149" lon="7.23171">
        <ele>1223</ele>
        <time>2011-11-22T13:22:39Z</time>
      </trkpt>
      <trkpt lat="43.91148" lon="7.23164">
        <ele>1224</ele>
        <time>2011-11-22T13:22:43Z</time>
      </trkpt>
      <trkpt lat="43.91148" lon="7.23157">
        <ele>1227</ele>
        <time>2011-11-22T13:22:49Z</time>
      </trkpt>
      <trkpt lat="43.9115" lon="7.23149">
        <ele>1229</ele>
        <time>2011-11-22T13:22:55Z</time>
      </trkpt>
      <trkpt lat="43.91153" lon="7.23143">
        <ele>1230</ele>
        <time>2011-11-22T13:23:00Z</time>
      </trkpt>
      <trkpt lat="43.91159" lon="7.23142">
        <ele>1228</ele>
        <time>2011-11-22T13:23:03Z</time>
      </trkpt>
      <trkpt lat="43.91163" lon="7.2314">
        <ele>1228</ele>
        <time>2011-11-22T13:23:06Z</time>
      </trkpt>
      <trkpt lat="43.91168" lon="7.23139">
        <ele>1227</ele>
        <time>2011-11-22T13:23:10Z</time>
      </trkpt>
      <trkpt lat="43.91171" lon="7.23147">
        <ele>1226</ele>
        <time>2011-11-22T13:23:16Z</time>
      </trkpt>
      <trkpt lat="43.91167" lon="7.23138">
        <ele>1227</ele>
        <time>2011-11-22T13:23:25Z</time>
      </trkpt>
      <trkpt lat="43.91167" lon="7.23138">
        <ele>1227</ele>
        <time>2011-11-22T13:23:25Z</time>
      </trkpt>
      <trkpt lat="43.91167" lon="7.23138">
        <ele>1227</ele>
        <time>2011-11-22T13:25:09Z</time>
      </trkpt>
      <trkpt lat="43.91161" lon="7.2314">
        <ele>1227</ele>
        <time>2011-11-22T13:27:01Z</time>
      </trkpt>
      <trkpt lat="43.91158" lon="7.23145">
        <ele>1227</ele>
        <time>2011-11-22T13:27:05Z</time>
      </trkpt>
      <trkpt lat="43.91153" lon="7.23149">
        <ele>1227</ele>
        <time>2011-11-22T13:27:10Z</time>
      </trkpt>
      <trkpt lat="43.9115" lon="7.23153">
        <ele>1227</ele>
        <time>2011-11-22T13:27:15Z</time>
      </trkpt>
      <trkpt lat="43.91147" lon="7.23159">
        <ele>1227</ele>
        <time>2011-11-22T13:27:21Z</time>
      </trkpt>
      <trkpt lat="43.91139" lon="7.23151">
        <ele>1226</ele>
        <time>2011-11-22T13:27:23Z</time>
      </trkpt>
      <trkpt lat="43.91136" lon="7.23146">
        <ele>1224</ele>
        <time>2011-11-22T13:27:26Z</time>
      </trkpt>
      <trkpt lat="43.91131" lon="7.23143">
        <ele>1224</ele>
        <time>2011-11-22T13:27:32Z</time>
      </trkpt>
      <trkpt lat="43.91128" lon="7.23138">
        <ele>1229</ele>
        <time>2011-11-22T13:27:43Z</time>
      </trkpt>
      <trkpt lat="43.91123" lon="7.23137">
        <ele>1230</ele>
        <time>2011-11-22T13:27:47Z</time>
      </trkpt>
      <trkpt lat="43.91118" lon="7.23134">
        <ele>1236</ele>
        <time>2011-11-22T13:31:57Z</time>
      </trkpt>
      <trkpt lat="43.91118" lon="7.23134">
        <ele>1236</ele>
        <time>2011-11-22T13:31:57Z</time>
      </trkpt>
      <trkpt lat="43.91118" lon="7.23134">
        <ele>1235</ele>
        <time>2011-11-22T13:32:04Z</time>
      </trkpt>
      <trkpt lat="43.91113" lon="7.23139">
        <ele>1234</ele>
        <time>2011-11-22T13:32:13Z</time>
      </trkpt>
      <trkpt lat="43.91111" lon="7.23146">
        <ele>1232</ele>
        <time>2011-11-22T13:32:17Z</time>
      </trkpt>
      <trkpt lat="43.91112" lon="7.23153">
        <ele>1233</ele>
        <time>2011-11-22T13:32:24Z</time>
      </trkpt>
      <trkpt lat="43.91114" lon="7.23159">
        <ele>1234</ele>
        <time>2011-11-22T13:32:26Z</time>
      </trkpt>
      <trkpt lat="43.91114" lon="7.23166">
        <ele>1235</ele>
        <time>2011-11-22T13:32:37Z</time>
      </trkpt>
      <trkpt lat="43.91116" lon="7.23174">
        <ele>1236</ele>
        <time>2011-11-22T13:32:46Z</time>
      </trkpt>
      <trkpt lat="43.9112" lon="7.23179">
        <ele>1233</ele>
        <time>2011-11-22T13:32:51Z</time>
      </trkpt>
      <trkpt lat="43.91123" lon="7.23185">
        <ele>1230</ele>
        <time>2011-11-22T13:32:55Z</time>
      </trkpt>
      <trkpt lat="43.91126" lon="7.2319">
        <ele>1228</ele>
        <time>2011-11-22T13:33:05Z</time>
      </trkpt>
      <trkpt lat="43.91128" lon="7.23195">
        <ele>1228</ele>
        <time>2011-11-22T13:33:10Z</time>
      </trkpt>
      <trkpt lat="43.91133" lon="7.232">
        <ele>1228</ele>
        <time>2011-11-22T13:33:14Z</time>
      </trkpt>
      <trkpt lat="43.91139" lon="7.23202">
        <ele>1228</ele>
        <time>2011-11-22T13:33:19Z</time>
      </trkpt>
      <trkpt lat="43.91142" lon="7.23209">
        <ele>1227</ele>
        <time>2011-11-22T13:33:22Z</time>
      </trkpt>
      <trkpt lat="43.91147" lon="7.2321">
        <ele>1224</ele>
        <time>2011-11-22T13:33:27Z</time>
      </trkpt>
      <trkpt lat="43.9115" lon="7.23215">
        <ele>1221</ele>
        <time>2011-11-22T13:33:39Z</time>
      </trkpt>
      <trkpt lat="43.9115" lon="7.23215">
        <ele>1221</ele>
        <time>2011-11-22T13:33:39Z</time>
      </trkpt>
      <trkpt lat="43.9115" lon="7.23215">
        <ele>1221</ele>
        <time>2011-11-22T13:33:50Z</time>
      </trkpt>
      <trkpt lat="43.91154" lon="7.23217">
        <ele>1219</ele>
        <time>2011-11-22T13:34:09Z</time>
      </trkpt>
      <trkpt lat="43.9116" lon="7.23218">
        <ele>1219</ele>
        <time>2011-11-22T13:34:14Z</time>
      </trkpt>
      <trkpt lat="43.91165" lon="7.23217">
        <ele>1218</ele>
        <time>2011-11-22T13:34:18Z</time>
      </trkpt>
      <trkpt lat="43.9117" lon="7.23216">
        <ele>1218</ele>
        <time>2011-11-22T13:34:22Z</time>
      </trkpt>
      <trkpt lat="43.91175" lon="7.23215">
        <ele>1219</ele>
        <time>2011-11-22T13:34:26Z</time>
      </trkpt>
      <trkpt lat="43.9118" lon="7.23215">
        <ele>1219</ele>
        <time>2011-11-22T13:34:31Z</time>
      </trkpt>
      <trkpt lat="43.91184" lon="7.23216">
        <ele>1220</ele>
        <time>2011-11-22T13:34:51Z</time>
      </trkpt>
      <trkpt lat="43.91189" lon="7.23218">
        <ele>1220</ele>
        <time>2011-11-22T13:34:56Z</time>
      </trkpt>
      <trkpt lat="43.9119" lon="7.2321">
        <ele>1220</ele>
        <time>2011-11-22T13:35:00Z</time>
      </trkpt>
      <trkpt lat="43.91195" lon="7.23211">
        <ele>1219</ele>
        <time>2011-11-22T13:35:04Z</time>
      </trkpt>
      <trkpt lat="43.91199" lon="7.23206">
        <ele>1218</ele>
        <time>2011-11-22T13:35:08Z</time>
      </trkpt>
      <trkpt lat="43.91203" lon="7.23202">
        <ele>1220</ele>
        <time>2011-11-22T13:35:13Z</time>
      </trkpt>
      <trkpt lat="43.91207" lon="7.23203">
        <ele>1219</ele>
        <time>2011-11-22T13:35:20Z</time>
      </trkpt>
      <trkpt lat="43.9121" lon="7.23197">
        <ele>1220</ele>
        <time>2011-11-22T13:35:24Z</time>
      </trkpt>
      <trkpt lat="43.91214" lon="7.23193">
        <ele>1222</ele>
        <time>2011-11-22T13:35:29Z</time>
      </trkpt>
      <trkpt lat="43.91219" lon="7.2319">
        <ele>1222</ele>
        <time>2011-11-22T13:35:34Z</time>
      </trkpt>
      <trkpt lat="43.91219" lon="7.2319">
        <ele>1222</ele>
        <time>2011-11-22T13:35:34Z</time>
      </trkpt>
      <trkpt lat="43.91219" lon="7.2319">
        <ele>1221</ele>
        <time>2011-11-22T13:35:35Z</time>
      </trkpt>
      <trkpt lat="43.91222" lon="7.23185">
        <ele>1221</ele>
        <time>2011-11-22T13:35:41Z</time>
      </trkpt>
      <trkpt lat="43.91222" lon="7.23178">
        <ele>1221</ele>
        <time>2011-11-22T13:35:46Z</time>
      </trkpt>
      <trkpt lat="43.91227" lon="7.23179">
        <ele>1220</ele>
        <time>2011-11-22T13:35:53Z</time>
      </trkpt>
      <trkpt lat="43.91227" lon="7.23179">
        <ele>1220</ele>
        <time>2011-11-22T13:35:53Z</time>
      </trkpt>
      <trkpt lat="43.91227" lon="7.23179">
        <ele>1219</ele>
        <time>2011-11-22T13:35:56Z</time>
      </trkpt>
      <trkpt lat="43.9123" lon="7.23173">
        <ele>1217</ele>
        <time>2011-11-22T13:36:12Z</time>
      </trkpt>
      <trkpt lat="43.91229" lon="7.23165">
        <ele>1218</ele>
        <time>2011-11-22T13:36:14Z</time>
      </trkpt>
      <trkpt lat="43.91227" lon="7.23159">
        <ele>1212</ele>
        <time>2011-11-22T13:36:29Z</time>
      </trkpt>
      <trkpt lat="43.91227" lon="7.23159">
        <ele>1212</ele>
        <time>2011-11-22T13:36:29Z</time>
      </trkpt>
      <trkpt lat="43.91227" lon="7.23159">
        <ele>1212</ele>
        <time>2011-11-22T13:36:30Z</time>
      </trkpt>
      <trkpt lat="43.91229" lon="7.23152">
        <ele>1212</ele>
        <time>2011-11-22T13:36:38Z</time>
      </trkpt>
      <trkpt lat="43.91234" lon="7.23155">
        <ele>1212</ele>
        <time>2011-11-22T13:36:43Z</time>
      </trkpt>
      <trkpt lat="43.91234" lon="7.23163">
        <ele>1212</ele>
        <time>2011-11-22T13:36:48Z</time>
      </trkpt>
      <trkpt lat="43.91234" lon="7.23163">
        <ele>1212</ele>
        <time>2011-11-22T13:36:48Z</time>
      </trkpt>
      <trkpt lat="43.91234" lon="7.23163">
        <ele>1212</ele>
        <time>2011-11-22T13:36:49Z</time>
      </trkpt>
      <trkpt lat="43.91236" lon="7.2317">
        <ele>1211</ele>
        <time>2011-11-22T13:36:57Z</time>
      </trkpt>
      <trkpt lat="43.91241" lon="7.23174">
        <ele>1205</ele>
        <time>2011-11-22T13:37:14Z</time>
      </trkpt>
      <trkpt lat="43.91244" lon="7.2317">
        <ele>1206</ele>
        <time>2011-11-22T13:37:26Z</time>
      </trkpt>
      <trkpt lat="43.91246" lon="7.23164">
        <ele>1203</ele>
        <time>2011-11-22T13:37:38Z</time>
      </trkpt>
      <trkpt lat="43.91246" lon="7.23164">
        <ele>1203</ele>
        <time>2011-11-22T13:37:38Z</time>
      </trkpt>
      <trkpt lat="43.91246" lon="7.23164">
        <ele>1203</ele>
        <time>2011-11-22T13:37:40Z</time>
      </trkpt>
      <trkpt lat="43.91243" lon="7.23157">
        <ele>1201</ele>
        <time>2011-11-22T13:37:42Z</time>
      </trkpt>
      <trkpt lat="43.91243" lon="7.23151">
        <ele>1200</ele>
        <time>2011-11-22T13:37:47Z</time>
      </trkpt>
      <trkpt lat="43.91243" lon="7.23151">
        <ele>1200</ele>
        <time>2011-11-22T13:37:47Z</time>
      </trkpt>
      <trkpt lat="43.91243" lon="7.23151">
        <ele>1200</ele>
        <time>2011-11-22T13:37:48Z</time>
      </trkpt>
      <trkpt lat="43.91243" lon="7.23142">
        <ele>1201</ele>
        <time>2011-11-22T13:38:11Z</time>
      </trkpt>
      <trkpt lat="43.91248" lon="7.2314">
        <ele>1201</ele>
        <time>2011-11-22T13:38:19Z</time>
      </trkpt>
      <trkpt lat="43.91251" lon="7.23148">
        <ele>1199</ele>
        <time>2011-11-22T13:38:23Z</time>
      </trkpt>
      <trkpt lat="43.91254" lon="7.23152">
        <ele>1201</ele>
        <time>2011-11-22T13:38:30Z</time>
      </trkpt>
      <trkpt lat="43.91254" lon="7.23152">
        <ele>1201</ele>
        <time>2011-11-22T13:38:30Z</time>
      </trkpt>
      <trkpt lat="43.91254" lon="7.23152">
        <ele>1200</ele>
        <time>2011-11-22T13:38:32Z</time>
      </trkpt>
      <trkpt lat="43.91258" lon="7.23158">
        <ele>1201</ele>
        <time>2011-11-22T13:38:34Z</time>
      </trkpt>
      <trkpt lat="43.9126" lon="7.23163">
        <ele>1197</ele>
        <time>2011-11-22T13:38:43Z</time>
      </trkpt>
      <trkpt lat="43.91264" lon="7.2317">
        <ele>1194</ele>
        <time>2011-11-22T13:38:50Z</time>
      </trkpt>
      <trkpt lat="43.91264" lon="7.2317">
        <ele>1194</ele>
        <time>2011-11-22T13:38:50Z</time>
      </trkpt>
      <trkpt lat="43.91264" lon="7.2317">
        <ele>1193</ele>
        <time>2011-11-22T13:38:52Z</time>
      </trkpt>
      <trkpt lat="43.91267" lon="7.23163">
        <ele>1193</ele>
        <time>2011-11-22T13:38:59Z</time>
      </trkpt>
      <trkpt lat="43.91268" lon="7.23156">
        <ele>1191</ele>
        <time>2011-11-22T13:39:06Z</time>
      </trkpt>
      <trkpt lat="43.91266" lon="7.23147">
        <ele>1190</ele>
        <time>2011-11-22T13:39:09Z</time>
      </trkpt>
      <trkpt lat="43.9127" lon="7.23142">
        <ele>1195</ele>
        <time>2011-11-22T13:39:33Z</time>
      </trkpt>
      <trkpt lat="43.91268" lon="7.23135">
        <ele>1196</ele>
        <time>2011-11-22T13:39:40Z</time>
      </trkpt>
      <trkpt lat="43.91272" lon="7.23137">
        <ele>1194</ele>
        <time>2011-11-22T13:39:51Z</time>
      </trkpt>
      <trkpt lat="43.91274" lon="7.23131">
        <ele>1193</ele>
        <time>2011-11-22T13:40:04Z</time>
      </trkpt>
      <trkpt lat="43.91279" lon="7.23134">
        <ele>1189</ele>
        <time>2011-11-22T13:40:18Z</time>
      </trkpt>
      <trkpt lat="43.91283" lon="7.2314">
        <ele>1190</ele>
        <time>2011-11-22T13:40:24Z</time>
      </trkpt>
      <trkpt lat="43.91285" lon="7.23147">
        <ele>1189</ele>
        <time>2011-11-22T13:40:30Z</time>
      </trkpt>
      <trkpt lat="43.91285" lon="7.23147">
        <ele>1189</ele>
        <time>2011-11-22T13:40:30Z</time>
      </trkpt>
      <trkpt lat="43.91285" lon="7.23147">
        <ele>1190</ele>
        <time>2011-11-22T13:40:34Z</time>
      </trkpt>
      <trkpt lat="43.91287" lon="7.23152">
        <ele>1190</ele>
        <time>2011-11-22T13:40:44Z</time>
      </trkpt>
      <trkpt lat="43.9129" lon="7.23157">
        <ele>1190</ele>
        <time>2011-11-22T13:40:50Z</time>
      </trkpt>
      <trkpt lat="43.91289" lon="7.23164">
        <ele>1185</ele>
        <time>2011-11-22T13:41:01Z</time>
      </trkpt>
      <trkpt lat="43.91287" lon="7.23158">
        <ele>1186</ele>
        <time>2011-11-22T13:41:04Z</time>
      </trkpt>
      <trkpt lat="43.91291" lon="7.23156">
        <ele>1184</ele>
        <time>2011-11-22T13:41:15Z</time>
      </trkpt>
      <trkpt lat="43.91288" lon="7.2315">
        <ele>1183</ele>
        <time>2011-11-22T13:41:19Z</time>
      </trkpt>
      <trkpt lat="43.91294" lon="7.2315">
        <ele>1185</ele>
        <time>2011-11-22T13:41:49Z</time>
      </trkpt>
      <trkpt lat="43.91299" lon="7.23152">
        <ele>1183</ele>
        <time>2011-11-22T13:41:51Z</time>
      </trkpt>
      <trkpt lat="43.91303" lon="7.23154">
        <ele>1182</ele>
        <time>2011-11-22T13:41:58Z</time>
      </trkpt>
      <trkpt lat="43.91308" lon="7.23157">
        <ele>1181</ele>
        <time>2011-11-22T13:42:02Z</time>
      </trkpt>
      <trkpt lat="43.91312" lon="7.23156">
        <ele>1178</ele>
        <time>2011-11-22T13:42:21Z</time>
      </trkpt>
      <trkpt lat="43.91317" lon="7.23151">
        <ele>1177</ele>
        <time>2011-11-22T13:42:28Z</time>
      </trkpt>
      <trkpt lat="43.91317" lon="7.23151">
        <ele>1177</ele>
        <time>2011-11-22T13:42:28Z</time>
      </trkpt>
      <trkpt lat="43.91317" lon="7.23151">
        <ele>1176</ele>
        <time>2011-11-22T13:42:30Z</time>
      </trkpt>
      <trkpt lat="43.9132" lon="7.23146">
        <ele>1173</ele>
        <time>2011-11-22T13:42:39Z</time>
      </trkpt>
      <trkpt lat="43.91324" lon="7.23144">
        <ele>1174</ele>
        <time>2011-11-22T13:42:48Z</time>
      </trkpt>
      <trkpt lat="43.91329" lon="7.23144">
        <ele>1170</ele>
        <time>2011-11-22T13:42:53Z</time>
      </trkpt>
      <trkpt lat="43.91334" lon="7.23145">
        <ele>1168</ele>
        <time>2011-11-22T13:43:09Z</time>
      </trkpt>
      <trkpt lat="43.91338" lon="7.23141">
        <ele>1167</ele>
        <time>2011-11-22T13:43:17Z</time>
      </trkpt>
      <trkpt lat="43.91338" lon="7.23134">
        <ele>1166</ele>
        <time>2011-11-22T13:43:24Z</time>
      </trkpt>
      <trkpt lat="43.91343" lon="7.23138">
        <ele>1163</ele>
        <time>2011-11-22T13:43:35Z</time>
      </trkpt>
      <trkpt lat="43.91347" lon="7.23136">
        <ele>1160</ele>
        <time>2011-11-22T13:43:45Z</time>
      </trkpt>
      <trkpt lat="43.91352" lon="7.23138">
        <ele>1159</ele>
        <time>2011-11-22T13:43:59Z</time>
      </trkpt>
      <trkpt lat="43.91357" lon="7.23138">
        <ele>1159</ele>
        <time>2011-11-22T13:44:04Z</time>
      </trkpt>
      <trkpt lat="43.91356" lon="7.23132">
        <ele>1159</ele>
        <time>2011-11-22T13:44:09Z</time>
      </trkpt>
      <trkpt lat="43.91356" lon="7.23125">
        <ele>1158</ele>
        <time>2011-11-22T13:44:17Z</time>
      </trkpt>
      <trkpt lat="43.9136" lon="7.23129">
        <ele>1158</ele>
        <time>2011-11-22T13:44:28Z</time>
      </trkpt>
      <trkpt lat="43.91364" lon="7.23134">
        <ele>1156</ele>
        <time>2011-11-22T13:44:33Z</time>
      </trkpt>
      <trkpt lat="43.91366" lon="7.2314">
        <ele>1155</ele>
        <time>2011-11-22T13:44:38Z</time>
      </trkpt>
      <trkpt lat="43.91369" lon="7.23146">
        <ele>1151</ele>
        <time>2011-11-22T13:44:44Z</time>
      </trkpt>
      <trkpt lat="43.91374" lon="7.23143">
        <ele>1151</ele>
        <time>2011-11-22T13:44:55Z</time>
      </trkpt>
      <trkpt lat="43.91377" lon="7.23138">
        <ele>1150</ele>
        <time>2011-11-22T13:45:01Z</time>
      </trkpt>
      <trkpt lat="43.91381" lon="7.23134">
        <ele>1150</ele>
        <time>2011-11-22T13:45:09Z</time>
      </trkpt>
      <trkpt lat="43.91378" lon="7.23124">
        <ele>1150</ele>
        <time>2011-11-22T13:45:14Z</time>
      </trkpt>
      <trkpt lat="43.91377" lon="7.23118">
        <ele>1151</ele>
        <time>2011-11-22T13:45:17Z</time>
      </trkpt>
      <trkpt lat="43.91382" lon="7.23119">
        <ele>1144</ele>
        <time>2011-11-22T13:45:39Z</time>
      </trkpt>
      <trkpt lat="43.91384" lon="7.23125">
        <ele>1140</ele>
        <time>2011-11-22T13:45:44Z</time>
      </trkpt>
      <trkpt lat="43.91387" lon="7.2313">
        <ele>1139</ele>
        <time>2011-11-22T13:45:50Z</time>
      </trkpt>
      <trkpt lat="43.9139" lon="7.23136">
        <ele>1142</ele>
        <time>2011-11-22T13:45:58Z</time>
      </trkpt>
      <trkpt lat="43.9139" lon="7.23136">
        <ele>1142</ele>
        <time>2011-11-22T13:45:58Z</time>
      </trkpt>
      <trkpt lat="43.9139" lon="7.23136">
        <ele>1142</ele>
        <time>2011-11-22T13:45:59Z</time>
      </trkpt>
      <trkpt lat="43.91394" lon="7.23134">
        <ele>1142</ele>
        <time>2011-11-22T13:46:04Z</time>
      </trkpt>
      <trkpt lat="43.914" lon="7.23136">
        <ele>1138</ele>
        <time>2011-11-22T13:46:12Z</time>
      </trkpt>
      <trkpt lat="43.91404" lon="7.23137">
        <ele>1140</ele>
        <time>2011-11-22T13:46:27Z</time>
      </trkpt>
      <trkpt lat="43.91409" lon="7.23137">
        <ele>1138</ele>
        <time>2011-11-22T13:46:37Z</time>
      </trkpt>
      <trkpt lat="43.91413" lon="7.23133">
        <ele>1138</ele>
        <time>2011-11-22T13:46:45Z</time>
      </trkpt>
      <trkpt lat="43.91417" lon="7.23137">
        <ele>1136</ele>
        <time>2011-11-22T13:46:52Z</time>
      </trkpt>
      <trkpt lat="43.91421" lon="7.23139">
        <ele>1134</ele>
        <time>2011-11-22T13:46:57Z</time>
      </trkpt>
      <trkpt lat="43.91424" lon="7.23145">
        <ele>1132</ele>
        <time>2011-11-22T13:47:01Z</time>
      </trkpt>
      <trkpt lat="43.9143" lon="7.23147">
        <ele>1126</ele>
        <time>2011-11-22T13:47:11Z</time>
      </trkpt>
      <trkpt lat="43.91434" lon="7.23147">
        <ele>1122</ele>
        <time>2011-11-22T13:47:20Z</time>
      </trkpt>
      <trkpt lat="43.91439" lon="7.23149">
        <ele>1121</ele>
        <time>2011-11-22T13:47:27Z</time>
      </trkpt>
      <trkpt lat="43.91443" lon="7.23152">
        <ele>1120</ele>
        <time>2011-11-22T13:47:34Z</time>
      </trkpt>
      <trkpt lat="43.91448" lon="7.23155">
        <ele>1119</ele>
        <time>2011-11-22T13:47:39Z</time>
      </trkpt>
      <trkpt lat="43.91453" lon="7.23156">
        <ele>1116</ele>
        <time>2011-11-22T13:47:45Z</time>
      </trkpt>
      <trkpt lat="43.91456" lon="7.23159">
        <ele>1115</ele>
        <time>2011-11-22T13:47:50Z</time>
      </trkpt>
      <trkpt lat="43.9146" lon="7.23164">
        <ele>1114</ele>
        <time>2011-11-22T13:47:54Z</time>
      </trkpt>
      <trkpt lat="43.91464" lon="7.23162">
        <ele>1113</ele>
        <time>2011-11-22T13:48:00Z</time>
      </trkpt>
      <trkpt lat="43.91469" lon="7.2316">
        <ele>1113</ele>
        <time>2011-11-22T13:48:07Z</time>
      </trkpt>
      <trkpt lat="43.91474" lon="7.23159">
        <ele>1112</ele>
        <time>2011-11-22T13:48:12Z</time>
      </trkpt>
      <trkpt lat="43.91478" lon="7.23157">
        <ele>1110</ele>
        <time>2011-11-22T13:48:17Z</time>
      </trkpt>
      <trkpt lat="43.91483" lon="7.23155">
        <ele>1110</ele>
        <time>2011-11-22T13:48:22Z</time>
      </trkpt>
      <trkpt lat="43.91488" lon="7.23153">
        <ele>1111</ele>
        <time>2011-11-22T13:48:28Z</time>
      </trkpt>
      <trkpt lat="43.91493" lon="7.23154">
        <ele>1109</ele>
        <time>2011-11-22T13:48:32Z</time>
      </trkpt>
      <trkpt lat="43.91498" lon="7.23154">
        <ele>1108</ele>
        <time>2011-11-22T13:48:37Z</time>
      </trkpt>
      <trkpt lat="43.91504" lon="7.23154">
        <ele>1108</ele>
        <time>2011-11-22T13:48:42Z</time>
      </trkpt>
      <trkpt lat="43.91508" lon="7.23153">
        <ele>1107</ele>
        <time>2011-11-22T13:48:46Z</time>
      </trkpt>
      <trkpt lat="43.91513" lon="7.2315">
        <ele>1107</ele>
        <time>2011-11-22T13:48:50Z</time>
      </trkpt>
      <trkpt lat="43.91518" lon="7.23149">
        <ele>1106</ele>
        <time>2011-11-22T13:48:54Z</time>
      </trkpt>
      <trkpt lat="43.91523" lon="7.23147">
        <ele>1106</ele>
        <time>2011-11-22T13:48:58Z</time>
      </trkpt>
      <trkpt lat="43.91528" lon="7.23144">
        <ele>1105</ele>
        <time>2011-11-22T13:49:02Z</time>
      </trkpt>
      <trkpt lat="43.91532" lon="7.23142">
        <ele>1104</ele>
        <time>2011-11-22T13:49:06Z</time>
      </trkpt>
      <trkpt lat="43.91537" lon="7.2314">
        <ele>1103</ele>
        <time>2011-11-22T13:49:10Z</time>
      </trkpt>
      <trkpt lat="43.91542" lon="7.23137">
        <ele>1103</ele>
        <time>2011-11-22T13:49:14Z</time>
      </trkpt>
      <trkpt lat="43.91547" lon="7.23134">
        <ele>1101</ele>
        <time>2011-11-22T13:49:19Z</time>
      </trkpt>
      <trkpt lat="43.91552" lon="7.23132">
        <ele>1099</ele>
        <time>2011-11-22T13:49:23Z</time>
      </trkpt>
      <trkpt lat="43.91557" lon="7.23128">
        <ele>1098</ele>
        <time>2011-11-22T13:49:27Z</time>
      </trkpt>
      <trkpt lat="43.9156" lon="7.23124">
        <ele>1099</ele>
        <time>2011-11-22T13:49:31Z</time>
      </trkpt>
      <trkpt lat="43.91565" lon="7.23119">
        <ele>1099</ele>
        <time>2011-11-22T13:49:35Z</time>
      </trkpt>
      <trkpt lat="43.91569" lon="7.23113">
        <ele>1099</ele>
        <time>2011-11-22T13:49:40Z</time>
      </trkpt>
      <trkpt lat="43.91573" lon="7.23109">
        <ele>1099</ele>
        <time>2011-11-22T13:49:45Z</time>
      </trkpt>
      <trkpt lat="43.91578" lon="7.23106">
        <ele>1099</ele>
        <time>2011-11-22T13:49:49Z</time>
      </trkpt>
      <trkpt lat="43.91582" lon="7.23104">
        <ele>1099</ele>
        <time>2011-11-22T13:49:53Z</time>
      </trkpt>
      <trkpt lat="43.91586" lon="7.23102">
        <ele>1098</ele>
        <time>2011-11-22T13:49:57Z</time>
      </trkpt>
      <trkpt lat="43.91592" lon="7.23102">
        <ele>1098</ele>
        <time>2011-11-22T13:50:02Z</time>
      </trkpt>
      <trkpt lat="43.91597" lon="7.23104">
        <ele>1098</ele>
        <time>2011-11-22T13:50:07Z</time>
      </trkpt>
      <trkpt lat="43.91597" lon="7.23104">
        <ele>1098</ele>
        <time>2011-11-22T13:50:07Z</time>
      </trkpt>
      <trkpt lat="43.91597" lon="7.23104">
        <ele>1098</ele>
        <time>2011-11-22T13:50:12Z</time>
      </trkpt>
      <trkpt lat="43.91602" lon="7.23104">
        <ele>1099</ele>
        <time>2011-11-22T13:50:24Z</time>
      </trkpt>
      <trkpt lat="43.91617" lon="7.23116">
        <ele>1102</ele>
        <time>2011-11-22T13:50:52Z</time>
      </trkpt>
      <trkpt lat="43.9162" lon="7.23111">
        <ele>1101</ele>
        <time>2011-11-22T13:52:16Z</time>
      </trkpt>
      <trkpt lat="43.91623" lon="7.23105">
        <ele>1099</ele>
        <time>2011-11-22T13:52:23Z</time>
      </trkpt>
      <trkpt lat="43.91625" lon="7.23098">
        <ele>1097</ele>
        <time>2011-11-22T13:52:27Z</time>
      </trkpt>
      <trkpt lat="43.91627" lon="7.23092">
        <ele>1096</ele>
        <time>2011-11-22T13:52:31Z</time>
      </trkpt>
      <trkpt lat="43.91631" lon="7.23089">
        <ele>1095</ele>
        <time>2011-11-22T13:52:36Z</time>
      </trkpt>
      <trkpt lat="43.91636" lon="7.23089">
        <ele>1090</ele>
        <time>2011-11-22T13:52:41Z</time>
      </trkpt>
      <trkpt lat="43.91641" lon="7.23088">
        <ele>1089</ele>
        <time>2011-11-22T13:52:50Z</time>
      </trkpt>
      <trkpt lat="43.91646" lon="7.23089">
        <ele>1086</ele>
        <time>2011-11-22T13:52:55Z</time>
      </trkpt>
      <trkpt lat="43.9165" lon="7.23088">
        <ele>1086</ele>
        <time>2011-11-22T13:53:00Z</time>
      </trkpt>
      <trkpt lat="43.91655" lon="7.23084">
        <ele>1083</ele>
        <time>2011-11-22T13:53:08Z</time>
      </trkpt>
      <trkpt lat="43.9166" lon="7.23081">
        <ele>1083</ele>
        <time>2011-11-22T13:53:15Z</time>
      </trkpt>
      <trkpt lat="43.91664" lon="7.23077">
        <ele>1083</ele>
        <time>2011-11-22T13:53:23Z</time>
      </trkpt>
      <trkpt lat="43.91668" lon="7.23073">
        <ele>1083</ele>
        <time>2011-11-22T13:53:29Z</time>
      </trkpt>
      <trkpt lat="43.9167" lon="7.23067">
        <ele>1084</ele>
        <time>2011-11-22T13:53:36Z</time>
      </trkpt>
      <trkpt lat="43.91675" lon="7.23063">
        <ele>1085</ele>
        <time>2011-11-22T13:53:40Z</time>
      </trkpt>
      <trkpt lat="43.91679" lon="7.23061">
        <ele>1085</ele>
        <time>2011-11-22T13:53:46Z</time>
      </trkpt>
      <trkpt lat="43.91682" lon="7.23056">
        <ele>1083</ele>
        <time>2011-11-22T13:53:50Z</time>
      </trkpt>
      <trkpt lat="43.91685" lon="7.2305">
        <ele>1083</ele>
        <time>2011-11-22T13:53:58Z</time>
      </trkpt>
      <trkpt lat="43.9169" lon="7.23048">
        <ele>1085</ele>
        <time>2011-11-22T13:54:04Z</time>
      </trkpt>
      <trkpt lat="43.91694" lon="7.23046">
        <ele>1084</ele>
        <time>2011-11-22T13:54:10Z</time>
      </trkpt>
      <trkpt lat="43.91698" lon="7.23043">
        <ele>1085</ele>
        <time>2011-11-22T13:54:18Z</time>
      </trkpt>
      <trkpt lat="43.91702" lon="7.23039">
        <ele>1084</ele>
        <time>2011-11-22T13:54:22Z</time>
      </trkpt>
      <trkpt lat="43.91706" lon="7.23036">
        <ele>1082</ele>
        <time>2011-11-22T13:54:28Z</time>
      </trkpt>
      <trkpt lat="43.91712" lon="7.23036">
        <ele>1080</ele>
        <time>2011-11-22T13:54:35Z</time>
      </trkpt>
      <trkpt lat="43.91716" lon="7.23037">
        <ele>1080</ele>
        <time>2011-11-22T13:54:45Z</time>
      </trkpt>
      <trkpt lat="43.91721" lon="7.23035">
        <ele>1081</ele>
        <time>2011-11-22T13:54:50Z</time>
      </trkpt>
      <trkpt lat="43.91726" lon="7.23033">
        <ele>1081</ele>
        <time>2011-11-22T13:54:55Z</time>
      </trkpt>
      <trkpt lat="43.91731" lon="7.23034">
        <ele>1081</ele>
        <time>2011-11-22T13:55:01Z</time>
      </trkpt>
      <trkpt lat="43.91736" lon="7.23034">
        <ele>1080</ele>
        <time>2011-11-22T13:55:07Z</time>
      </trkpt>
      <trkpt lat="43.9174" lon="7.23038">
        <ele>1078</ele>
        <time>2011-11-22T13:55:12Z</time>
      </trkpt>
      <trkpt lat="43.91744" lon="7.23036">
        <ele>1075</ele>
        <time>2011-11-22T13:55:17Z</time>
      </trkpt>
      <trkpt lat="43.9175" lon="7.23037">
        <ele>1072</ele>
        <time>2011-11-22T13:55:28Z</time>
      </trkpt>
      <trkpt lat="43.91754" lon="7.2304">
        <ele>1069</ele>
        <time>2011-11-22T13:55:34Z</time>
      </trkpt>
      <trkpt lat="43.91759" lon="7.23037">
        <ele>1069</ele>
        <time>2011-11-22T13:55:40Z</time>
      </trkpt>
      <trkpt lat="43.91763" lon="7.23034">
        <ele>1067</ele>
        <time>2011-11-22T13:55:46Z</time>
      </trkpt>
      <trkpt lat="43.91767" lon="7.23038">
        <ele>1065</ele>
        <time>2011-11-22T13:55:52Z</time>
      </trkpt>
      <trkpt lat="43.91771" lon="7.2304">
        <ele>1064</ele>
        <time>2011-11-22T13:55:58Z</time>
      </trkpt>
      <trkpt lat="43.91775" lon="7.23044">
        <ele>1066</ele>
        <time>2011-11-22T13:56:07Z</time>
      </trkpt>
      <trkpt lat="43.91778" lon="7.23048">
        <ele>1066</ele>
        <time>2011-11-22T13:56:17Z</time>
      </trkpt>
      <trkpt lat="43.91782" lon="7.23053">
        <ele>1065</ele>
        <time>2011-11-22T13:56:24Z</time>
      </trkpt>
      <trkpt lat="43.91785" lon="7.23058">
        <ele>1065</ele>
        <time>2011-11-22T13:56:33Z</time>
      </trkpt>
      <trkpt lat="43.91787" lon="7.23064">
        <ele>1066</ele>
        <time>2011-11-22T13:56:40Z</time>
      </trkpt>
      <trkpt lat="43.91787" lon="7.23072">
        <ele>1065</ele>
        <time>2011-11-22T13:56:46Z</time>
      </trkpt>
      <trkpt lat="43.91788" lon="7.23078">
        <ele>1063</ele>
        <time>2011-11-22T13:56:51Z</time>
      </trkpt>
      <trkpt lat="43.91789" lon="7.23085">
        <ele>1065</ele>
        <time>2011-11-22T13:56:58Z</time>
      </trkpt>
      <trkpt lat="43.91793" lon="7.23091">
        <ele>1066</ele>
        <time>2011-11-22T13:57:03Z</time>
      </trkpt>
      <trkpt lat="43.91794" lon="7.23098">
        <ele>1066</ele>
        <time>2011-11-22T13:57:08Z</time>
      </trkpt>
      <trkpt lat="43.91798" lon="7.23103">
        <ele>1064</ele>
        <time>2011-11-22T13:57:15Z</time>
      </trkpt>
      <trkpt lat="43.91801" lon="7.23108">
        <ele>1064</ele>
        <time>2011-11-22T13:57:25Z</time>
      </trkpt>
      <trkpt lat="43.91803" lon="7.23115">
        <ele>1064</ele>
        <time>2011-11-22T13:57:31Z</time>
      </trkpt>
      <trkpt lat="43.91806" lon="7.23121">
        <ele>1064</ele>
        <time>2011-11-22T13:57:36Z</time>
      </trkpt>
      <trkpt lat="43.91807" lon="7.23128">
        <ele>1063</ele>
        <time>2011-11-22T13:57:41Z</time>
      </trkpt>
      <trkpt lat="43.91807" lon="7.23135">
        <ele>1062</ele>
        <time>2011-11-22T13:57:46Z</time>
      </trkpt>
      <trkpt lat="43.91808" lon="7.23142">
        <ele>1061</ele>
        <time>2011-11-22T13:57:51Z</time>
      </trkpt>
      <trkpt lat="43.91812" lon="7.23144">
        <ele>1059</ele>
        <time>2011-11-22T13:57:56Z</time>
      </trkpt>
      <trkpt lat="43.91816" lon="7.2315">
        <ele>1057</ele>
        <time>2011-11-22T13:58:03Z</time>
      </trkpt>
      <trkpt lat="43.91821" lon="7.23152">
        <ele>1055</ele>
        <time>2011-11-22T13:58:12Z</time>
      </trkpt>
      <trkpt lat="43.91825" lon="7.23155">
        <ele>1054</ele>
        <time>2011-11-22T13:58:17Z</time>
      </trkpt>
      <trkpt lat="43.91829" lon="7.23159">
        <ele>1052</ele>
        <time>2011-11-22T13:58:24Z</time>
      </trkpt>
      <trkpt lat="43.91833" lon="7.23163">
        <ele>1052</ele>
        <time>2011-11-22T13:58:32Z</time>
      </trkpt>
      <trkpt lat="43.91836" lon="7.23169">
        <ele>1052</ele>
        <time>2011-11-22T13:58:39Z</time>
      </trkpt>
      <trkpt lat="43.91839" lon="7.23174">
        <ele>1050</ele>
        <time>2011-11-22T13:58:45Z</time>
      </trkpt>
      <trkpt lat="43.91842" lon="7.23179">
        <ele>1049</ele>
        <time>2011-11-22T13:58:55Z</time>
      </trkpt>
      <trkpt lat="43.91846" lon="7.23182">
        <ele>1048</ele>
        <time>2011-11-22T13:59:02Z</time>
      </trkpt>
      <trkpt lat="43.9185" lon="7.23185">
        <ele>1047</ele>
        <time>2011-11-22T13:59:08Z</time>
      </trkpt>
      <trkpt lat="43.91855" lon="7.23189">
        <ele>1047</ele>
        <time>2011-11-22T13:59:15Z</time>
      </trkpt>
      <trkpt lat="43.91859" lon="7.23192">
        <ele>1046</ele>
        <time>2011-11-22T13:59:23Z</time>
      </trkpt>
      <trkpt lat="43.91864" lon="7.23194">
        <ele>1046</ele>
        <time>2011-11-22T13:59:28Z</time>
      </trkpt>
      <trkpt lat="43.91868" lon="7.23196">
        <ele>1046</ele>
        <time>2011-11-22T13:59:34Z</time>
      </trkpt>
      <trkpt lat="43.91873" lon="7.23198">
        <ele>1045</ele>
        <time>2011-11-22T13:59:41Z</time>
      </trkpt>
      <trkpt lat="43.91876" lon="7.23203">
        <ele>1046</ele>
        <time>2011-11-22T13:59:49Z</time>
      </trkpt>
      <trkpt lat="43.91878" lon="7.2321">
        <ele>1045</ele>
        <time>2011-11-22T13:59:57Z</time>
      </trkpt>
      <trkpt lat="43.91879" lon="7.23217">
        <ele>1045</ele>
        <time>2011-11-22T14:00:06Z</time>
      </trkpt>
      <trkpt lat="43.91881" lon="7.23224">
        <ele>1044</ele>
        <time>2011-11-22T14:00:12Z</time>
      </trkpt>
      <trkpt lat="43.91879" lon="7.2323">
        <ele>1045</ele>
        <time>2011-11-22T14:00:20Z</time>
      </trkpt>
      <trkpt lat="43.91879" lon="7.2323">
        <ele>1045</ele>
        <time>2011-11-22T14:00:20Z</time>
      </trkpt>
      <trkpt lat="43.91879" lon="7.2323">
        <ele>1045</ele>
        <time>2011-11-22T14:00:21Z</time>
      </trkpt>
      <trkpt lat="43.91878" lon="7.23237">
        <ele>1045</ele>
        <time>2011-11-22T14:00:29Z</time>
      </trkpt>
      <trkpt lat="43.91879" lon="7.23244">
        <ele>1043</ele>
        <time>2011-11-22T14:00:39Z</time>
      </trkpt>
      <trkpt lat="43.91877" lon="7.2325">
        <ele>1040</ele>
        <time>2011-11-22T14:00:51Z</time>
      </trkpt>
      <trkpt lat="43.91874" lon="7.23256">
        <ele>1036</ele>
        <time>2011-11-22T14:01:00Z</time>
      </trkpt>
      <trkpt lat="43.91873" lon="7.23262">
        <ele>1035</ele>
        <time>2011-11-22T14:01:08Z</time>
      </trkpt>
      <trkpt lat="43.91871" lon="7.23268">
        <ele>1035</ele>
        <time>2011-11-22T14:01:13Z</time>
      </trkpt>
      <trkpt lat="43.91867" lon="7.23273">
        <ele>1033</ele>
        <time>2011-11-22T14:01:26Z</time>
      </trkpt>
      <trkpt lat="43.91862" lon="7.23273">
        <ele>1033</ele>
        <time>2011-11-22T14:01:32Z</time>
      </trkpt>
      <trkpt lat="43.9186" lon="7.23279">
        <ele>1035</ele>
        <time>2011-11-22T14:02:24Z</time>
      </trkpt>
      <trkpt lat="43.91857" lon="7.23284">
        <ele>1030</ele>
        <time>2011-11-22T14:03:11Z</time>
      </trkpt>
      <trkpt lat="43.91853" lon="7.23288">
        <ele>1032</ele>
        <time>2011-11-22T14:03:22Z</time>
      </trkpt>
      <trkpt lat="43.91848" lon="7.23287">
        <ele>1032</ele>
        <time>2011-11-22T14:03:28Z</time>
      </trkpt>
      <trkpt lat="43.91844" lon="7.2329">
        <ele>1032</ele>
        <time>2011-11-22T14:03:35Z</time>
      </trkpt>
      <trkpt lat="43.91844" lon="7.23297">
        <ele>1029</ele>
        <time>2011-11-22T14:03:41Z</time>
      </trkpt>
      <trkpt lat="43.91848" lon="7.23302">
        <ele>1029</ele>
        <time>2011-11-22T14:03:50Z</time>
      </trkpt>
      <trkpt lat="43.91852" lon="7.23306">
        <ele>1029</ele>
        <time>2011-11-22T14:03:55Z</time>
      </trkpt>
      <trkpt lat="43.91856" lon="7.2331">
        <ele>1029</ele>
        <time>2011-11-22T14:04:02Z</time>
      </trkpt>
      <trkpt lat="43.91859" lon="7.23315">
        <ele>1030</ele>
        <time>2011-11-22T14:04:09Z</time>
      </trkpt>
      <trkpt lat="43.91861" lon="7.23321">
        <ele>1029</ele>
        <time>2011-11-22T14:04:17Z</time>
      </trkpt>
      <trkpt lat="43.91864" lon="7.23326">
        <ele>1027</ele>
        <time>2011-11-22T14:04:24Z</time>
      </trkpt>
      <trkpt lat="43.91869" lon="7.2333">
        <ele>1026</ele>
        <time>2011-11-22T14:04:31Z</time>
      </trkpt>
      <trkpt lat="43.9187" lon="7.23336">
        <ele>1025</ele>
        <time>2011-11-22T14:04:38Z</time>
      </trkpt>
      <trkpt lat="43.91874" lon="7.23342">
        <ele>1025</ele>
        <time>2011-11-22T14:04:45Z</time>
      </trkpt>
      <trkpt lat="43.91877" lon="7.23347">
        <ele>1024</ele>
        <time>2011-11-22T14:04:53Z</time>
      </trkpt>
      <trkpt lat="43.9188" lon="7.23353">
        <ele>1024</ele>
        <time>2011-11-22T14:05:00Z</time>
      </trkpt>
      <trkpt lat="43.91884" lon="7.23356">
        <ele>1021</ele>
        <time>2011-11-22T14:05:09Z</time>
      </trkpt>
      <trkpt lat="43.91889" lon="7.2336">
        <ele>1020</ele>
        <time>2011-11-22T14:05:15Z</time>
      </trkpt>
      <trkpt lat="43.91894" lon="7.23359">
        <ele>1018</ele>
        <time>2011-11-22T14:05:21Z</time>
      </trkpt>
      <trkpt lat="43.91898" lon="7.23362">
        <ele>1017</ele>
        <time>2011-11-22T14:05:27Z</time>
      </trkpt>
      <trkpt lat="43.91902" lon="7.23364">
        <ele>1015</ele>
        <time>2011-11-22T14:05:34Z</time>
      </trkpt>
      <trkpt lat="43.91907" lon="7.23363">
        <ele>1016</ele>
        <time>2011-11-22T14:05:44Z</time>
      </trkpt>
      <trkpt lat="43.91912" lon="7.23365">
        <ele>1016</ele>
        <time>2011-11-22T14:05:50Z</time>
      </trkpt>
      <trkpt lat="43.91917" lon="7.23368">
        <ele>1013</ele>
        <time>2011-11-22T14:05:58Z</time>
      </trkpt>
      <trkpt lat="43.91921" lon="7.2337">
        <ele>1012</ele>
        <time>2011-11-22T14:06:05Z</time>
      </trkpt>
      <trkpt lat="43.91926" lon="7.23371">
        <ele>1011</ele>
        <time>2011-11-22T14:06:11Z</time>
      </trkpt>
      <trkpt lat="43.91926" lon="7.23371">
        <ele>1011</ele>
        <time>2011-11-22T14:06:11Z</time>
      </trkpt>
      <trkpt lat="43.91926" lon="7.23371">
        <ele>1011</ele>
        <time>2011-11-22T14:06:13Z</time>
      </trkpt>
      <trkpt lat="43.9193" lon="7.23376">
        <ele>1009</ele>
        <time>2011-11-22T14:06:23Z</time>
      </trkpt>
      <trkpt lat="43.91934" lon="7.23379">
        <ele>1009</ele>
        <time>2011-11-22T14:06:27Z</time>
      </trkpt>
      <trkpt lat="43.91939" lon="7.23382">
        <ele>1007</ele>
        <time>2011-11-22T14:06:35Z</time>
      </trkpt>
      <trkpt lat="43.91943" lon="7.23385">
        <ele>1008</ele>
        <time>2011-11-22T14:06:42Z</time>
      </trkpt>
      <trkpt lat="43.91945" lon="7.2339">
        <ele>1010</ele>
        <time>2011-11-22T14:06:46Z</time>
      </trkpt>
      <trkpt lat="43.91949" lon="7.23396">
        <ele>1011</ele>
        <time>2011-11-22T14:06:55Z</time>
      </trkpt>
      <trkpt lat="43.91953" lon="7.23398">
        <ele>1011</ele>
        <time>2011-11-22T14:07:00Z</time>
      </trkpt>
      <trkpt lat="43.91957" lon="7.23401">
        <ele>1009</ele>
        <time>2011-11-22T14:07:09Z</time>
      </trkpt>
      <trkpt lat="43.91952" lon="7.23404">
        <ele>1003</ele>
        <time>2011-11-22T14:07:22Z</time>
      </trkpt>
      <trkpt lat="43.91948" lon="7.23407">
        <ele>1003</ele>
        <time>2011-11-22T14:07:28Z</time>
      </trkpt>
      <trkpt lat="43.91943" lon="7.23407">
        <ele>1005</ele>
        <time>2011-11-22T14:07:34Z</time>
      </trkpt>
      <trkpt lat="43.91939" lon="7.2341">
        <ele>1004</ele>
        <time>2011-11-22T14:07:40Z</time>
      </trkpt>
      <trkpt lat="43.91934" lon="7.23412">
        <ele>1002</ele>
        <time>2011-11-22T14:07:45Z</time>
      </trkpt>
      <trkpt lat="43.91929" lon="7.23411">
        <ele>1002</ele>
        <time>2011-11-22T14:07:51Z</time>
      </trkpt>
      <trkpt lat="43.91924" lon="7.2341">
        <ele>999</ele>
        <time>2011-11-22T14:07:58Z</time>
      </trkpt>
      <trkpt lat="43.91919" lon="7.23413">
        <ele>999</ele>
        <time>2011-11-22T14:08:02Z</time>
      </trkpt>
      <trkpt lat="43.91914" lon="7.23414">
        <ele>997</ele>
        <time>2011-11-22T14:08:08Z</time>
      </trkpt>
      <trkpt lat="43.9191" lon="7.23416">
        <ele>996</ele>
        <time>2011-11-22T14:08:16Z</time>
      </trkpt>
      <trkpt lat="43.91904" lon="7.23418">
        <ele>997</ele>
        <time>2011-11-22T14:08:23Z</time>
      </trkpt>
      <trkpt lat="43.91899" lon="7.23422">
        <ele>999</ele>
        <time>2011-11-22T14:08:28Z</time>
      </trkpt>
      <trkpt lat="43.91895" lon="7.23423">
        <ele>998</ele>
        <time>2011-11-22T14:08:34Z</time>
      </trkpt>
      <trkpt lat="43.9189" lon="7.23423">
        <ele>996</ele>
        <time>2011-11-22T14:08:40Z</time>
      </trkpt>
      <trkpt lat="43.91891" lon="7.23429">
        <ele>996</ele>
        <time>2011-11-22T14:09:05Z</time>
      </trkpt>
      <trkpt lat="43.91896" lon="7.23432">
        <ele>993</ele>
        <time>2011-11-22T14:09:15Z</time>
      </trkpt>
      <trkpt lat="43.919" lon="7.23436">
        <ele>990</ele>
        <time>2011-11-22T14:09:25Z</time>
      </trkpt>
      <trkpt lat="43.91904" lon="7.23441">
        <ele>989</ele>
        <time>2011-11-22T14:09:30Z</time>
      </trkpt>
      <trkpt lat="43.91909" lon="7.23444">
        <ele>988</ele>
        <time>2011-11-22T14:09:36Z</time>
      </trkpt>
      <trkpt lat="43.91913" lon="7.23447">
        <ele>987</ele>
        <time>2011-11-22T14:09:41Z</time>
      </trkpt>
      <trkpt lat="43.91918" lon="7.23451">
        <ele>986</ele>
        <time>2011-11-22T14:09:47Z</time>
      </trkpt>
      <trkpt lat="43.91922" lon="7.23455">
        <ele>985</ele>
        <time>2011-11-22T14:09:55Z</time>
      </trkpt>
      <trkpt lat="43.91927" lon="7.23461">
        <ele>985</ele>
        <time>2011-11-22T14:10:04Z</time>
      </trkpt>
      <trkpt lat="43.91932" lon="7.23464">
        <ele>988</ele>
        <time>2011-11-22T14:10:12Z</time>
      </trkpt>
      <trkpt lat="43.91936" lon="7.23469">
        <ele>987</ele>
        <time>2011-11-22T14:10:21Z</time>
      </trkpt>
      <trkpt lat="43.91941" lon="7.23472">
        <ele>986</ele>
        <time>2011-11-22T14:10:28Z</time>
      </trkpt>
      <trkpt lat="43.91941" lon="7.23472">
        <ele>986</ele>
        <time>2011-11-22T14:10:28Z</time>
      </trkpt>
      <trkpt lat="43.91941" lon="7.23472">
        <ele>986</ele>
        <time>2011-11-22T14:10:29Z</time>
      </trkpt>
      <trkpt lat="43.91944" lon="7.23476">
        <ele>986</ele>
        <time>2011-11-22T14:10:32Z</time>
      </trkpt>
      <trkpt lat="43.91947" lon="7.23481">
        <ele>984</ele>
        <time>2011-11-22T14:10:36Z</time>
      </trkpt>
      <trkpt lat="43.91952" lon="7.23484">
        <ele>984</ele>
        <time>2011-11-22T14:10:42Z</time>
      </trkpt>
      <trkpt lat="43.91957" lon="7.23489">
        <ele>982</ele>
        <time>2011-11-22T14:10:50Z</time>
      </trkpt>
      <trkpt lat="43.91963" lon="7.23488">
        <ele>980</ele>
        <time>2011-11-22T14:10:56Z</time>
      </trkpt>
      <trkpt lat="43.91968" lon="7.23491">
        <ele>979</ele>
        <time>2011-11-22T14:10:59Z</time>
      </trkpt>
      <trkpt lat="43.91971" lon="7.23496">
        <ele>976</ele>
        <time>2011-11-22T14:11:08Z</time>
      </trkpt>
      <trkpt lat="43.91976" lon="7.235">
        <ele>974</ele>
        <time>2011-11-22T14:11:21Z</time>
      </trkpt>
      <trkpt lat="43.91981" lon="7.23503">
        <ele>971</ele>
        <time>2011-11-22T14:11:31Z</time>
      </trkpt>
      <trkpt lat="43.91985" lon="7.23507">
        <ele>967</ele>
        <time>2011-11-22T14:11:37Z</time>
      </trkpt>
      <trkpt lat="43.91989" lon="7.23511">
        <ele>967</ele>
        <time>2011-11-22T14:11:44Z</time>
      </trkpt>
      <trkpt lat="43.91993" lon="7.23513">
        <ele>965</ele>
        <time>2011-11-22T14:11:53Z</time>
      </trkpt>
      <trkpt lat="43.91993" lon="7.23513">
        <ele>965</ele>
        <time>2011-11-22T14:11:53Z</time>
      </trkpt>
      <trkpt lat="43.91993" lon="7.23513">
        <ele>965</ele>
        <time>2011-11-22T14:11:56Z</time>
      </trkpt>
      <trkpt lat="43.91997" lon="7.23517">
        <ele>964</ele>
        <time>2011-11-22T14:12:01Z</time>
      </trkpt>
      <trkpt lat="43.92001" lon="7.23519">
        <ele>963</ele>
        <time>2011-11-22T14:12:06Z</time>
      </trkpt>
      <trkpt lat="43.92006" lon="7.23522">
        <ele>963</ele>
        <time>2011-11-22T14:12:11Z</time>
      </trkpt>
      <trkpt lat="43.9201" lon="7.23524">
        <ele>962</ele>
        <time>2011-11-22T14:12:17Z</time>
      </trkpt>
      <trkpt lat="43.92014" lon="7.23526">
        <ele>961</ele>
        <time>2011-11-22T14:12:23Z</time>
      </trkpt>
      <trkpt lat="43.92018" lon="7.2353">
        <ele>961</ele>
        <time>2011-11-22T14:12:38Z</time>
      </trkpt>
      <trkpt lat="43.92022" lon="7.23534">
        <ele>960</ele>
        <time>2011-11-22T14:12:44Z</time>
      </trkpt>
      <trkpt lat="43.92027" lon="7.23538">
        <ele>958</ele>
        <time>2011-11-22T14:12:51Z</time>
      </trkpt>
      <trkpt lat="43.92027" lon="7.23538">
        <ele>958</ele>
        <time>2011-11-22T14:12:51Z</time>
      </trkpt>
      <trkpt lat="43.92027" lon="7.23538">
        <ele>958</ele>
        <time>2011-11-22T14:12:52Z</time>
      </trkpt>
      <trkpt lat="43.92031" lon="7.23541">
        <ele>956</ele>
        <time>2011-11-22T14:12:59Z</time>
      </trkpt>
      <trkpt lat="43.92035" lon="7.23546">
        <ele>956</ele>
        <time>2011-11-22T14:13:06Z</time>
      </trkpt>
      <trkpt lat="43.92039" lon="7.2355">
        <ele>958</ele>
        <time>2011-11-22T14:15:03Z</time>
      </trkpt>
      <trkpt lat="43.92041" lon="7.23556">
        <ele>958</ele>
        <time>2011-11-22T14:15:08Z</time>
      </trkpt>
      <trkpt lat="43.92044" lon="7.23562">
        <ele>955</ele>
        <time>2011-11-22T14:15:16Z</time>
      </trkpt>
      <trkpt lat="43.92043" lon="7.23569">
        <ele>958</ele>
        <time>2011-11-22T14:15:25Z</time>
      </trkpt>
      <trkpt lat="43.92043" lon="7.23575">
        <ele>958</ele>
        <time>2011-11-22T14:15:33Z</time>
      </trkpt>
      <trkpt lat="43.92044" lon="7.23582">
        <ele>958</ele>
        <time>2011-11-22T14:15:44Z</time>
      </trkpt>
      <trkpt lat="43.92044" lon="7.23582">
        <ele>958</ele>
        <time>2011-11-22T14:15:44Z</time>
      </trkpt>
      <trkpt lat="43.92044" lon="7.23582">
        <ele>958</ele>
        <time>2011-11-22T14:15:45Z</time>
      </trkpt>
      <trkpt lat="43.92043" lon="7.23591">
        <ele>958</ele>
        <time>2011-11-22T14:15:51Z</time>
      </trkpt>
      <trkpt lat="43.92043" lon="7.23598">
        <ele>960</ele>
        <time>2011-11-22T14:15:55Z</time>
      </trkpt>
      <trkpt lat="43.92046" lon="7.23602">
        <ele>959</ele>
        <time>2011-11-22T14:16:06Z</time>
      </trkpt>
      <trkpt lat="43.92046" lon="7.23602">
        <ele>959</ele>
        <time>2011-11-22T14:16:06Z</time>
      </trkpt>
      <trkpt lat="43.92046" lon="7.23602">
        <ele>959</ele>
        <time>2011-11-22T14:16:07Z</time>
      </trkpt>
      <trkpt lat="43.92047" lon="7.23608">
        <ele>960</ele>
        <time>2011-11-22T14:16:15Z</time>
      </trkpt>
      <trkpt lat="43.92048" lon="7.23615">
        <ele>959</ele>
        <time>2011-11-22T14:16:19Z</time>
      </trkpt>
      <trkpt lat="43.92048" lon="7.23622">
        <ele>958</ele>
        <time>2011-11-22T14:16:26Z</time>
      </trkpt>
      <trkpt lat="43.92047" lon="7.23629">
        <ele>958</ele>
        <time>2011-11-22T14:16:32Z</time>
      </trkpt>
      <trkpt lat="43.92046" lon="7.23637">
        <ele>957</ele>
        <time>2011-11-22T14:16:38Z</time>
      </trkpt>
      <trkpt lat="43.92044" lon="7.23643">
        <ele>955</ele>
        <time>2011-11-22T14:16:43Z</time>
      </trkpt>
      <trkpt lat="43.92042" lon="7.23651">
        <ele>952</ele>
        <time>2011-11-22T14:16:48Z</time>
      </trkpt>
      <trkpt lat="43.92039" lon="7.23657">
        <ele>953</ele>
        <time>2011-11-22T14:16:55Z</time>
      </trkpt>
      <trkpt lat="43.92039" lon="7.23666">
        <ele>953</ele>
        <time>2011-11-22T14:17:00Z</time>
      </trkpt>
      <trkpt lat="43.9204" lon="7.23674">
        <ele>956</ele>
        <time>2011-11-22T14:17:05Z</time>
      </trkpt>
      <trkpt lat="43.92036" lon="7.23678">
        <ele>959</ele>
        <time>2011-11-22T14:17:16Z</time>
      </trkpt>
      <trkpt lat="43.92036" lon="7.23684">
        <ele>958</ele>
        <time>2011-11-22T14:17:19Z</time>
      </trkpt>
      <trkpt lat="43.92035" lon="7.23692">
        <ele>956</ele>
        <time>2011-11-22T14:17:24Z</time>
      </trkpt>
      <trkpt lat="43.92035" lon="7.23698">
        <ele>955</ele>
        <time>2011-11-22T14:17:29Z</time>
      </trkpt>
      <trkpt lat="43.92035" lon="7.23705">
        <ele>956</ele>
        <time>2011-11-22T14:17:35Z</time>
      </trkpt>
      <trkpt lat="43.92033" lon="7.23711">
        <ele>958</ele>
        <time>2011-11-22T14:17:41Z</time>
      </trkpt>
      <trkpt lat="43.92033" lon="7.23718">
        <ele>956</ele>
        <time>2011-11-22T14:17:47Z</time>
      </trkpt>
      <trkpt lat="43.92033" lon="7.23724">
        <ele>955</ele>
        <time>2011-11-22T14:17:52Z</time>
      </trkpt>
      <trkpt lat="43.92032" lon="7.23731">
        <ele>956</ele>
        <time>2011-11-22T14:18:02Z</time>
      </trkpt>
      <trkpt lat="43.92034" lon="7.23738">
        <ele>956</ele>
        <time>2011-11-22T14:18:07Z</time>
      </trkpt>
      <trkpt lat="43.92035" lon="7.23745">
        <ele>957</ele>
        <time>2011-11-22T14:18:12Z</time>
      </trkpt>
      <trkpt lat="43.92037" lon="7.23751">
        <ele>956</ele>
        <time>2011-11-22T14:18:18Z</time>
      </trkpt>
      <trkpt lat="43.92038" lon="7.23757">
        <ele>957</ele>
        <time>2011-11-22T14:18:24Z</time>
      </trkpt>
      <trkpt lat="43.9204" lon="7.23764">
        <ele>957</ele>
        <time>2011-11-22T14:18:30Z</time>
      </trkpt>
      <trkpt lat="43.92042" lon="7.2377">
        <ele>957</ele>
        <time>2011-11-22T14:18:35Z</time>
      </trkpt>
      <trkpt lat="43.92043" lon="7.23777">
        <ele>958</ele>
        <time>2011-11-22T14:18:41Z</time>
      </trkpt>
      <trkpt lat="43.92042" lon="7.23783">
        <ele>957</ele>
        <time>2011-11-22T14:18:46Z</time>
      </trkpt>
      <trkpt lat="43.9204" lon="7.23789">
        <ele>958</ele>
        <time>2011-11-22T14:18:50Z</time>
      </trkpt>
      <trkpt lat="43.92039" lon="7.23796">
        <ele>958</ele>
        <time>2011-11-22T14:18:56Z</time>
      </trkpt>
      <trkpt lat="43.92037" lon="7.23804">
        <ele>956</ele>
        <time>2011-11-22T14:19:01Z</time>
      </trkpt>
      <trkpt lat="43.92035" lon="7.2381">
        <ele>956</ele>
        <time>2011-11-22T14:19:06Z</time>
      </trkpt>
      <trkpt lat="43.92032" lon="7.23814">
        <ele>953</ele>
        <time>2011-11-22T14:19:12Z</time>
      </trkpt>
      <trkpt lat="43.92027" lon="7.23818">
        <ele>953</ele>
        <time>2011-11-22T14:19:18Z</time>
      </trkpt>
      <trkpt lat="43.92027" lon="7.23824">
        <ele>953</ele>
        <time>2011-11-22T14:19:26Z</time>
      </trkpt>
      <trkpt lat="43.92027" lon="7.23824">
        <ele>953</ele>
        <time>2011-11-22T14:19:26Z</time>
      </trkpt>
      <trkpt lat="43.92027" lon="7.23824">
        <ele>953</ele>
        <time>2011-11-22T14:19:27Z</time>
      </trkpt>
      <trkpt lat="43.92027" lon="7.2383">
        <ele>952</ele>
        <time>2011-11-22T14:19:35Z</time>
      </trkpt>
      <trkpt lat="43.92027" lon="7.23838">
        <ele>951</ele>
        <time>2011-11-22T14:19:43Z</time>
      </trkpt>
      <trkpt lat="43.92029" lon="7.23843">
        <ele>949</ele>
        <time>2011-11-22T14:19:50Z</time>
      </trkpt>
      <trkpt lat="43.92031" lon="7.23849">
        <ele>949</ele>
        <time>2011-11-22T14:20:17Z</time>
      </trkpt>
      <trkpt lat="43.92036" lon="7.2385">
        <ele>949</ele>
        <time>2011-11-22T14:20:24Z</time>
      </trkpt>
      <trkpt lat="43.9204" lon="7.23852">
        <ele>949</ele>
        <time>2011-11-22T14:20:31Z</time>
      </trkpt>
      <trkpt lat="43.92044" lon="7.23857">
        <ele>949</ele>
        <time>2011-11-22T14:20:39Z</time>
      </trkpt>
      <trkpt lat="43.92044" lon="7.23857">
        <ele>949</ele>
        <time>2011-11-22T14:20:39Z</time>
      </trkpt>
      <trkpt lat="43.92044" lon="7.23857">
        <ele>949</ele>
        <time>2011-11-22T14:20:44Z</time>
      </trkpt>
      <trkpt lat="43.92046" lon="7.23864">
        <ele>949</ele>
        <time>2011-11-22T14:20:52Z</time>
      </trkpt>
      <trkpt lat="43.92048" lon="7.2387">
        <ele>949</ele>
        <time>2011-11-22T14:20:57Z</time>
      </trkpt>
      <trkpt lat="43.92051" lon="7.23874">
        <ele>949</ele>
        <time>2011-11-22T14:21:04Z</time>
      </trkpt>
      <trkpt lat="43.92053" lon="7.2388">
        <ele>949</ele>
        <time>2011-11-22T14:21:09Z</time>
      </trkpt>
      <trkpt lat="43.92056" lon="7.23885">
        <ele>950</ele>
        <time>2011-11-22T14:21:15Z</time>
      </trkpt>
      <trkpt lat="43.92059" lon="7.23889">
        <ele>948</ele>
        <time>2011-11-22T14:21:22Z</time>
      </trkpt>
      <trkpt lat="43.92064" lon="7.2389">
        <ele>946</ele>
        <time>2011-11-22T14:21:38Z</time>
      </trkpt>
      <trkpt lat="43.92069" lon="7.2389">
        <ele>946</ele>
        <time>2011-11-22T14:21:44Z</time>
      </trkpt>
      <trkpt lat="43.92073" lon="7.23894">
        <ele>946</ele>
        <time>2011-11-22T14:21:49Z</time>
      </trkpt>
      <trkpt lat="43.92078" lon="7.23896">
        <ele>948</ele>
        <time>2011-11-22T14:21:55Z</time>
      </trkpt>
      <trkpt lat="43.92083" lon="7.23898">
        <ele>947</ele>
        <time>2011-11-22T14:22:01Z</time>
      </trkpt>
      <trkpt lat="43.92088" lon="7.23898">
        <ele>948</ele>
        <time>2011-11-22T14:22:12Z</time>
      </trkpt>
      <trkpt lat="43.92092" lon="7.23898">
        <ele>947</ele>
        <time>2011-11-22T14:22:17Z</time>
      </trkpt>
      <trkpt lat="43.92097" lon="7.23896">
        <ele>946</ele>
        <time>2011-11-22T14:22:25Z</time>
      </trkpt>
      <trkpt lat="43.92097" lon="7.23896">
        <ele>946</ele>
        <time>2011-11-22T14:22:25Z</time>
      </trkpt>
      <trkpt lat="43.92097" lon="7.23896">
        <ele>945</ele>
        <time>2011-11-22T14:22:26Z</time>
      </trkpt>
      <trkpt lat="43.92102" lon="7.23896">
        <ele>943</ele>
        <time>2011-11-22T14:22:43Z</time>
      </trkpt>
      <trkpt lat="43.92106" lon="7.23892">
        <ele>941</ele>
        <time>2011-11-22T14:22:53Z</time>
      </trkpt>
      <trkpt lat="43.9211" lon="7.23889">
        <ele>940</ele>
        <time>2011-11-22T14:22:58Z</time>
      </trkpt>
      <trkpt lat="43.92116" lon="7.2389">
        <ele>939</ele>
        <time>2011-11-22T14:23:03Z</time>
      </trkpt>
      <trkpt lat="43.92121" lon="7.2389">
        <ele>939</ele>
        <time>2011-11-22T14:23:08Z</time>
      </trkpt>
      <trkpt lat="43.92125" lon="7.23892">
        <ele>937</ele>
        <time>2011-11-22T14:23:13Z</time>
      </trkpt>
      <trkpt lat="43.92128" lon="7.23896">
        <ele>938</ele>
        <time>2011-11-22T14:23:18Z</time>
      </trkpt>
      <trkpt lat="43.92131" lon="7.23902">
        <ele>938</ele>
        <time>2011-11-22T14:23:23Z</time>
      </trkpt>
      <trkpt lat="43.92132" lon="7.23908">
        <ele>937</ele>
        <time>2011-11-22T14:23:27Z</time>
      </trkpt>
      <trkpt lat="43.92134" lon="7.23915">
        <ele>936</ele>
        <time>2011-11-22T14:23:33Z</time>
      </trkpt>
      <trkpt lat="43.92136" lon="7.23921">
        <ele>936</ele>
        <time>2011-11-22T14:23:42Z</time>
      </trkpt>
      <trkpt lat="43.92136" lon="7.23928">
        <ele>938</ele>
        <time>2011-11-22T14:23:49Z</time>
      </trkpt>
      <trkpt lat="43.92137" lon="7.23936">
        <ele>937</ele>
        <time>2011-11-22T14:23:54Z</time>
      </trkpt>
      <trkpt lat="43.92138" lon="7.23943">
        <ele>937</ele>
        <time>2011-11-22T14:23:58Z</time>
      </trkpt>
      <trkpt lat="43.92138" lon="7.2395">
        <ele>938</ele>
        <time>2011-11-22T14:24:02Z</time>
      </trkpt>
      <trkpt lat="43.92139" lon="7.23957">
        <ele>939</ele>
        <time>2011-11-22T14:24:07Z</time>
      </trkpt>
      <trkpt lat="43.92139" lon="7.23964">
        <ele>938</ele>
        <time>2011-11-22T14:24:12Z</time>
      </trkpt>
      <trkpt lat="43.92139" lon="7.23971">
        <ele>939</ele>
        <time>2011-11-22T14:24:18Z</time>
      </trkpt>
      <trkpt lat="43.92136" lon="7.23977">
        <ele>939</ele>
        <time>2011-11-22T14:24:23Z</time>
      </trkpt>
      <trkpt lat="43.92136" lon="7.23983">
        <ele>936</ele>
        <time>2011-11-22T14:24:27Z</time>
      </trkpt>
      <trkpt lat="43.92135" lon="7.2399">
        <ele>935</ele>
        <time>2011-11-22T14:24:31Z</time>
      </trkpt>
      <trkpt lat="43.92134" lon="7.23997">
        <ele>936</ele>
        <time>2011-11-22T14:24:36Z</time>
      </trkpt>
      <trkpt lat="43.92136" lon="7.24003">
        <ele>938</ele>
        <time>2011-11-22T14:24:40Z</time>
      </trkpt>
      <trkpt lat="43.92138" lon="7.2401">
        <ele>939</ele>
        <time>2011-11-22T14:24:46Z</time>
      </trkpt>
      <trkpt lat="43.92138" lon="7.24017">
        <ele>939</ele>
        <time>2011-11-22T14:24:52Z</time>
      </trkpt>
      <trkpt lat="43.92137" lon="7.24023">
        <ele>937</ele>
        <time>2011-11-22T14:24:57Z</time>
      </trkpt>
      <trkpt lat="43.92136" lon="7.2403">
        <ele>936</ele>
        <time>2011-11-22T14:25:02Z</time>
      </trkpt>
      <trkpt lat="43.92134" lon="7.24036">
        <ele>936</ele>
        <time>2011-11-22T14:25:07Z</time>
      </trkpt>
      <trkpt lat="43.92132" lon="7.24042">
        <ele>936</ele>
        <time>2011-11-22T14:25:12Z</time>
      </trkpt>
      <trkpt lat="43.9213" lon="7.24048">
        <ele>936</ele>
        <time>2011-11-22T14:25:16Z</time>
      </trkpt>
      <trkpt lat="43.92127" lon="7.24054">
        <ele>934</ele>
        <time>2011-11-22T14:25:23Z</time>
      </trkpt>
      <trkpt lat="43.92125" lon="7.24061">
        <ele>934</ele>
        <time>2011-11-22T14:25:28Z</time>
      </trkpt>
      <trkpt lat="43.92122" lon="7.24067">
        <ele>936</ele>
        <time>2011-11-22T14:25:34Z</time>
      </trkpt>
      <trkpt lat="43.92119" lon="7.24071">
        <ele>935</ele>
        <time>2011-11-22T14:25:39Z</time>
      </trkpt>
      <trkpt lat="43.92115" lon="7.24076">
        <ele>935</ele>
        <time>2011-11-22T14:25:43Z</time>
      </trkpt>
      <trkpt lat="43.92111" lon="7.2408">
        <ele>936</ele>
        <time>2011-11-22T14:25:48Z</time>
      </trkpt>
      <trkpt lat="43.92106" lon="7.24083">
        <ele>938</ele>
        <time>2011-11-22T14:25:53Z</time>
      </trkpt>
      <trkpt lat="43.92102" lon="7.24086">
        <ele>937</ele>
        <time>2011-11-22T14:25:58Z</time>
      </trkpt>
      <trkpt lat="43.92097" lon="7.2409">
        <ele>938</ele>
        <time>2011-11-22T14:26:03Z</time>
      </trkpt>
      <trkpt lat="43.92092" lon="7.24094">
        <ele>939</ele>
        <time>2011-11-22T14:26:08Z</time>
      </trkpt>
      <trkpt lat="43.92088" lon="7.24098">
        <ele>938</ele>
        <time>2011-11-22T14:26:13Z</time>
      </trkpt>
      <trkpt lat="43.92083" lon="7.24102">
        <ele>938</ele>
        <time>2011-11-22T14:26:18Z</time>
      </trkpt>
      <trkpt lat="43.92079" lon="7.24107">
        <ele>938</ele>
        <time>2011-11-22T14:26:23Z</time>
      </trkpt>
      <trkpt lat="43.92076" lon="7.24112">
        <ele>939</ele>
        <time>2011-11-22T14:26:28Z</time>
      </trkpt>
      <trkpt lat="43.92074" lon="7.24118">
        <ele>940</ele>
        <time>2011-11-22T14:26:32Z</time>
      </trkpt>
      <trkpt lat="43.92074" lon="7.24125">
        <ele>940</ele>
        <time>2011-11-22T14:26:37Z</time>
      </trkpt>
      <trkpt lat="43.92073" lon="7.24132">
        <ele>940</ele>
        <time>2011-11-22T14:26:42Z</time>
      </trkpt>
      <trkpt lat="43.92074" lon="7.24138">
        <ele>940</ele>
        <time>2011-11-22T14:26:46Z</time>
      </trkpt>
      <trkpt lat="43.92072" lon="7.24145">
        <ele>940</ele>
        <time>2011-11-22T14:26:51Z</time>
      </trkpt>
      <trkpt lat="43.9207" lon="7.24152">
        <ele>940</ele>
        <time>2011-11-22T14:26:56Z</time>
      </trkpt>
      <trkpt lat="43.92071" lon="7.24159">
        <ele>937</ele>
        <time>2011-11-22T14:27:01Z</time>
      </trkpt>
      <trkpt lat="43.9207" lon="7.24165">
        <ele>937</ele>
        <time>2011-11-22T14:27:06Z</time>
      </trkpt>
      <trkpt lat="43.9207" lon="7.24172">
        <ele>938</ele>
        <time>2011-11-22T14:27:10Z</time>
      </trkpt>
      <trkpt lat="43.92068" lon="7.24178">
        <ele>938</ele>
        <time>2011-11-22T14:27:14Z</time>
      </trkpt>
      <trkpt lat="43.92067" lon="7.24184">
        <ele>937</ele>
        <time>2011-11-22T14:27:18Z</time>
      </trkpt>
      <trkpt lat="43.92066" lon="7.2419">
        <ele>937</ele>
        <time>2011-11-22T14:27:24Z</time>
      </trkpt>
      <trkpt lat="43.92064" lon="7.24196">
        <ele>935</ele>
        <time>2011-11-22T14:27:29Z</time>
      </trkpt>
      <trkpt lat="43.9206" lon="7.242">
        <ele>936</ele>
        <time>2011-11-22T14:27:34Z</time>
      </trkpt>
      <trkpt lat="43.92055" lon="7.24203">
        <ele>936</ele>
        <time>2011-11-22T14:27:39Z</time>
      </trkpt>
      <trkpt lat="43.9205" lon="7.24206">
        <ele>936</ele>
        <time>2011-11-22T14:27:45Z</time>
      </trkpt>
      <trkpt lat="43.92045" lon="7.24207">
        <ele>937</ele>
        <time>2011-11-22T14:27:50Z</time>
      </trkpt>
      <trkpt lat="43.9204" lon="7.24207">
        <ele>938</ele>
        <time>2011-11-22T14:27:55Z</time>
      </trkpt>
      <trkpt lat="43.92035" lon="7.24208">
        <ele>937</ele>
        <time>2011-11-22T14:28:00Z</time>
      </trkpt>
      <trkpt lat="43.92029" lon="7.24209">
        <ele>936</ele>
        <time>2011-11-22T14:28:05Z</time>
      </trkpt>
      <trkpt lat="43.92023" lon="7.24211">
        <ele>935</ele>
        <time>2011-11-22T14:28:10Z</time>
      </trkpt>
      <trkpt lat="43.92018" lon="7.24211">
        <ele>934</ele>
        <time>2011-11-22T14:28:15Z</time>
      </trkpt>
      <trkpt lat="43.92013" lon="7.24212">
        <ele>934</ele>
        <time>2011-11-22T14:28:20Z</time>
      </trkpt>
      <trkpt lat="43.92008" lon="7.24217">
        <ele>933</ele>
        <time>2011-11-22T14:28:25Z</time>
      </trkpt>
      <trkpt lat="43.92006" lon="7.24223">
        <ele>931</ele>
        <time>2011-11-22T14:28:30Z</time>
      </trkpt>
      <trkpt lat="43.92004" lon="7.24229">
        <ele>931</ele>
        <time>2011-11-22T14:28:35Z</time>
      </trkpt>
      <trkpt lat="43.92001" lon="7.24235">
        <ele>930</ele>
        <time>2011-11-22T14:28:42Z</time>
      </trkpt>
      <trkpt lat="43.91996" lon="7.24237">
        <ele>929</ele>
        <time>2011-11-22T14:28:48Z</time>
      </trkpt>
      <trkpt lat="43.91992" lon="7.24236">
        <ele>928</ele>
        <time>2011-11-22T14:29:16Z</time>
      </trkpt>
      <trkpt lat="43.91987" lon="7.24234">
        <ele>927</ele>
        <time>2011-11-22T14:29:22Z</time>
      </trkpt>
      <trkpt lat="43.91983" lon="7.24231">
        <ele>927</ele>
        <time>2011-11-22T14:29:28Z</time>
      </trkpt>
      <trkpt lat="43.91978" lon="7.24229">
        <ele>927</ele>
        <time>2011-11-22T14:29:34Z</time>
      </trkpt>
      <trkpt lat="43.91973" lon="7.24226">
        <ele>928</ele>
        <time>2011-11-22T14:29:44Z</time>
      </trkpt>
      <trkpt lat="43.91971" lon="7.24232">
        <ele>928</ele>
        <time>2011-11-22T14:29:52Z</time>
      </trkpt>
      <trkpt lat="43.91974" lon="7.24237">
        <ele>926</ele>
        <time>2011-11-22T14:29:59Z</time>
      </trkpt>
      <trkpt lat="43.91977" lon="7.24242">
        <ele>925</ele>
        <time>2011-11-22T14:30:06Z</time>
      </trkpt>
      <trkpt lat="43.9198" lon="7.24247">
        <ele>924</ele>
        <time>2011-11-22T14:30:11Z</time>
      </trkpt>
      <trkpt lat="43.91983" lon="7.24252">
        <ele>924</ele>
        <time>2011-11-22T14:30:19Z</time>
      </trkpt>
      <trkpt lat="43.91987" lon="7.24257">
        <ele>924</ele>
        <time>2011-11-22T14:30:27Z</time>
      </trkpt>
      <trkpt lat="43.91992" lon="7.24259">
        <ele>921</ele>
        <time>2011-11-22T14:30:37Z</time>
      </trkpt>
      <trkpt lat="43.91996" lon="7.24263">
        <ele>918</ele>
        <time>2011-11-22T14:30:43Z</time>
      </trkpt>
      <trkpt lat="43.92" lon="7.24268">
        <ele>917</ele>
        <time>2011-11-22T14:30:49Z</time>
      </trkpt>
      <trkpt lat="43.92005" lon="7.24269">
        <ele>916</ele>
        <time>2011-11-22T14:30:56Z</time>
      </trkpt>
      <trkpt lat="43.92009" lon="7.2427">
        <ele>917</ele>
        <time>2011-11-22T14:31:01Z</time>
      </trkpt>
      <trkpt lat="43.92014" lon="7.24273">
        <ele>916</ele>
        <time>2011-11-22T14:31:06Z</time>
      </trkpt>
      <trkpt lat="43.92018" lon="7.24274">
        <ele>916</ele>
        <time>2011-11-22T14:31:11Z</time>
      </trkpt>
      <trkpt lat="43.92023" lon="7.24277">
        <ele>915</ele>
        <time>2011-11-22T14:31:19Z</time>
      </trkpt>
      <trkpt lat="43.92027" lon="7.24281">
        <ele>915</ele>
        <time>2011-11-22T14:31:25Z</time>
      </trkpt>
      <trkpt lat="43.9203" lon="7.24286">
        <ele>915</ele>
        <time>2011-11-22T14:31:32Z</time>
      </trkpt>
      <trkpt lat="43.92033" lon="7.24291">
        <ele>916</ele>
        <time>2011-11-22T14:31:40Z</time>
      </trkpt>
      <trkpt lat="43.92036" lon="7.24296">
        <ele>915</ele>
        <time>2011-11-22T14:31:48Z</time>
      </trkpt>
      <trkpt lat="43.92038" lon="7.24302">
        <ele>914</ele>
        <time>2011-11-22T14:31:54Z</time>
      </trkpt>
      <trkpt lat="43.92042" lon="7.24306">
        <ele>913</ele>
        <time>2011-11-22T14:32:00Z</time>
      </trkpt>
      <trkpt lat="43.92044" lon="7.24311">
        <ele>913</ele>
        <time>2011-11-22T14:32:06Z</time>
      </trkpt>
      <trkpt lat="43.92047" lon="7.24316">
        <ele>912</ele>
        <time>2011-11-22T14:32:13Z</time>
      </trkpt>
      <trkpt lat="43.9205" lon="7.24321">
        <ele>912</ele>
        <time>2011-11-22T14:32:20Z</time>
      </trkpt>
      <trkpt lat="43.9205" lon="7.24321">
        <ele>912</ele>
        <time>2011-11-22T14:32:20Z</time>
      </trkpt>
      <trkpt lat="43.9205" lon="7.24321">
        <ele>912</ele>
        <time>2011-11-22T14:32:21Z</time>
      </trkpt>
      <trkpt lat="43.9205" lon="7.24328">
        <ele>910</ele>
        <time>2011-11-22T14:32:31Z</time>
      </trkpt>
      <trkpt lat="43.92051" lon="7.24335">
        <ele>910</ele>
        <time>2011-11-22T14:32:38Z</time>
      </trkpt>
      <trkpt lat="43.92052" lon="7.24341">
        <ele>910</ele>
        <time>2011-11-22T14:32:43Z</time>
      </trkpt>
      <trkpt lat="43.92053" lon="7.24348">
        <ele>908</ele>
        <time>2011-11-22T14:32:50Z</time>
      </trkpt>
      <trkpt lat="43.92055" lon="7.24354">
        <ele>908</ele>
        <time>2011-11-22T14:33:02Z</time>
      </trkpt>
      <trkpt lat="43.92056" lon="7.2436">
        <ele>908</ele>
        <time>2011-11-22T14:33:09Z</time>
      </trkpt>
      <trkpt lat="43.92054" lon="7.24367">
        <ele>905</ele>
        <time>2011-11-22T14:33:17Z</time>
      </trkpt>
      <trkpt lat="43.92054" lon="7.24367">
        <ele>905</ele>
        <time>2011-11-22T14:33:17Z</time>
      </trkpt>
      <trkpt lat="43.92054" lon="7.24367">
        <ele>905</ele>
        <time>2011-11-22T14:33:18Z</time>
      </trkpt>
      <trkpt lat="43.92051" lon="7.24373">
        <ele>902</ele>
        <time>2011-11-22T14:33:29Z</time>
      </trkpt>
      <trkpt lat="43.92048" lon="7.24378">
        <ele>901</ele>
        <time>2011-11-22T14:33:35Z</time>
      </trkpt>
      <trkpt lat="43.92045" lon="7.24384">
        <ele>901</ele>
        <time>2011-11-22T14:33:42Z</time>
      </trkpt>
      <trkpt lat="43.92042" lon="7.24388">
        <ele>900</ele>
        <time>2011-11-22T14:33:49Z</time>
      </trkpt>
      <trkpt lat="43.92039" lon="7.24393">
        <ele>897</ele>
        <time>2011-11-22T14:34:00Z</time>
      </trkpt>
      <trkpt lat="43.92036" lon="7.24398">
        <ele>896</ele>
        <time>2011-11-22T14:34:09Z</time>
      </trkpt>
      <trkpt lat="43.92032" lon="7.24403">
        <ele>894</ele>
        <time>2011-11-22T14:34:18Z</time>
      </trkpt>
      <trkpt lat="43.92031" lon="7.2441">
        <ele>895</ele>
        <time>2011-11-22T14:34:26Z</time>
      </trkpt>
      <trkpt lat="43.92028" lon="7.24415">
        <ele>894</ele>
        <time>2011-11-22T14:34:34Z</time>
      </trkpt>
      <trkpt lat="43.92024" lon="7.2442">
        <ele>892</ele>
        <time>2011-11-22T14:34:40Z</time>
      </trkpt>
      <trkpt lat="43.92021" lon="7.24425">
        <ele>892</ele>
        <time>2011-11-22T14:34:45Z</time>
      </trkpt>
      <trkpt lat="43.92019" lon="7.24432">
        <ele>889</ele>
        <time>2011-11-22T14:34:53Z</time>
      </trkpt>
      <trkpt lat="43.92016" lon="7.24437">
        <ele>888</ele>
        <time>2011-11-22T14:35:03Z</time>
      </trkpt>
      <trkpt lat="43.92012" lon="7.24442">
        <ele>887</ele>
        <time>2011-11-22T14:35:11Z</time>
      </trkpt>
      <trkpt lat="43.9201" lon="7.24447">
        <ele>888</ele>
        <time>2011-11-22T14:35:25Z</time>
      </trkpt>
      <trkpt lat="43.92006" lon="7.24452">
        <ele>887</ele>
        <time>2011-11-22T14:35:33Z</time>
      </trkpt>
      <trkpt lat="43.92001" lon="7.24454">
        <ele>887</ele>
        <time>2011-11-22T14:35:39Z</time>
      </trkpt>
      <trkpt lat="43.91998" lon="7.24458">
        <ele>886</ele>
        <time>2011-11-22T14:35:46Z</time>
      </trkpt>
      <trkpt lat="43.91994" lon="7.24464">
        <ele>884</ele>
        <time>2011-11-22T14:35:53Z</time>
      </trkpt>
      <trkpt lat="43.9199" lon="7.24466">
        <ele>883</ele>
        <time>2011-11-22T14:36:03Z</time>
      </trkpt>
      <trkpt lat="43.91984" lon="7.24468">
        <ele>882</ele>
        <time>2011-11-22T14:36:11Z</time>
      </trkpt>
      <trkpt lat="43.91979" lon="7.24469">
        <ele>881</ele>
        <time>2011-11-22T14:36:19Z</time>
      </trkpt>
      <trkpt lat="43.91975" lon="7.24474">
        <ele>880</ele>
        <time>2011-11-22T14:36:27Z</time>
      </trkpt>
      <trkpt lat="43.9197" lon="7.24476">
        <ele>879</ele>
        <time>2011-11-22T14:36:33Z</time>
      </trkpt>
      <trkpt lat="43.91965" lon="7.24476">
        <ele>878</ele>
        <time>2011-11-22T14:36:39Z</time>
      </trkpt>
      <trkpt lat="43.91961" lon="7.24475">
        <ele>877</ele>
        <time>2011-11-22T14:36:44Z</time>
      </trkpt>
      <trkpt lat="43.91956" lon="7.24476">
        <ele>876</ele>
        <time>2011-11-22T14:36:49Z</time>
      </trkpt>
      <trkpt lat="43.91954" lon="7.24482">
        <ele>877</ele>
        <time>2011-11-22T14:37:31Z</time>
      </trkpt>
      <trkpt lat="43.91949" lon="7.24482">
        <ele>876</ele>
        <time>2011-11-22T14:37:36Z</time>
      </trkpt>
      <trkpt lat="43.91946" lon="7.24487">
        <ele>875</ele>
        <time>2011-11-22T14:37:41Z</time>
      </trkpt>
      <trkpt lat="43.91942" lon="7.24493">
        <ele>875</ele>
        <time>2011-11-22T14:37:46Z</time>
      </trkpt>
      <trkpt lat="43.9194" lon="7.24498">
        <ele>873</ele>
        <time>2011-11-22T14:37:51Z</time>
      </trkpt>
      <trkpt lat="43.91937" lon="7.24504">
        <ele>873</ele>
        <time>2011-11-22T14:37:57Z</time>
      </trkpt>
      <trkpt lat="43.91933" lon="7.24508">
        <ele>873</ele>
        <time>2011-11-22T14:38:03Z</time>
      </trkpt>
      <trkpt lat="43.9193" lon="7.24513">
        <ele>871</ele>
        <time>2011-11-22T14:38:08Z</time>
      </trkpt>
      <trkpt lat="43.91925" lon="7.24516">
        <ele>870</ele>
        <time>2011-11-22T14:38:13Z</time>
      </trkpt>
      <trkpt lat="43.9192" lon="7.2452">
        <ele>870</ele>
        <time>2011-11-22T14:38:19Z</time>
      </trkpt>
      <trkpt lat="43.91916" lon="7.24522">
        <ele>869</ele>
        <time>2011-11-22T14:38:25Z</time>
      </trkpt>
      <trkpt lat="43.91911" lon="7.24522">
        <ele>868</ele>
        <time>2011-11-22T14:38:30Z</time>
      </trkpt>
      <trkpt lat="43.91906" lon="7.24523">
        <ele>867</ele>
        <time>2011-11-22T14:38:36Z</time>
      </trkpt>
      <trkpt lat="43.91901" lon="7.24523">
        <ele>866</ele>
        <time>2011-11-22T14:38:42Z</time>
      </trkpt>
      <trkpt lat="43.91897" lon="7.24526">
        <ele>865</ele>
        <time>2011-11-22T14:38:48Z</time>
      </trkpt>
      <trkpt lat="43.91892" lon="7.24528">
        <ele>865</ele>
        <time>2011-11-22T14:39:06Z</time>
      </trkpt>
      <trkpt lat="43.91888" lon="7.24531">
        <ele>864</ele>
        <time>2011-11-22T14:39:11Z</time>
      </trkpt>
      <trkpt lat="43.91883" lon="7.2453">
        <ele>864</ele>
        <time>2011-11-22T14:39:22Z</time>
      </trkpt>
      <trkpt lat="43.91877" lon="7.24529">
        <ele>864</ele>
        <time>2011-11-22T14:39:27Z</time>
      </trkpt>
      <trkpt lat="43.91874" lon="7.24534">
        <ele>865</ele>
        <time>2011-11-22T14:39:56Z</time>
      </trkpt>
      <trkpt lat="43.91874" lon="7.24534">
        <ele>865</ele>
        <time>2011-11-22T14:39:56Z</time>
      </trkpt>
      <trkpt lat="43.91874" lon="7.24534">
        <ele>865</ele>
        <time>2011-11-22T14:39:57Z</time>
      </trkpt>
      <trkpt lat="43.9187" lon="7.24536">
        <ele>867</ele>
        <time>2011-11-22T14:40:18Z</time>
      </trkpt>
      <trkpt lat="43.91865" lon="7.24535">
        <ele>866</ele>
        <time>2011-11-22T14:40:29Z</time>
      </trkpt>
      <trkpt lat="43.91862" lon="7.24541">
        <ele>867</ele>
        <time>2011-11-22T14:40:46Z</time>
      </trkpt>
      <trkpt lat="43.91858" lon="7.24545">
        <ele>866</ele>
        <time>2011-11-22T14:40:55Z</time>
      </trkpt>
      <trkpt lat="43.91853" lon="7.24547">
        <ele>866</ele>
        <time>2011-11-22T14:41:01Z</time>
      </trkpt>
      <trkpt lat="43.91849" lon="7.24551">
        <ele>866</ele>
        <time>2011-11-22T14:41:07Z</time>
      </trkpt>
      <trkpt lat="43.91845" lon="7.24556">
        <ele>866</ele>
        <time>2011-11-22T14:41:16Z</time>
      </trkpt>
      <trkpt lat="43.91844" lon="7.24562">
        <ele>865</ele>
        <time>2011-11-22T14:41:22Z</time>
      </trkpt>
      <trkpt lat="43.91842" lon="7.24568">
        <ele>866</ele>
        <time>2011-11-22T14:41:28Z</time>
      </trkpt>
      <trkpt lat="43.91839" lon="7.24574">
        <ele>866</ele>
        <time>2011-11-22T14:41:33Z</time>
      </trkpt>
      <trkpt lat="43.91838" lon="7.2458">
        <ele>865</ele>
        <time>2011-11-22T14:41:39Z</time>
      </trkpt>
      <trkpt lat="43.91835" lon="7.24587">
        <ele>865</ele>
        <time>2011-11-22T14:41:45Z</time>
      </trkpt>
      <trkpt lat="43.91832" lon="7.24592">
        <ele>865</ele>
        <time>2011-11-22T14:41:51Z</time>
      </trkpt>
      <trkpt lat="43.91829" lon="7.24597">
        <ele>865</ele>
        <time>2011-11-22T14:41:56Z</time>
      </trkpt>
      <trkpt lat="43.91826" lon="7.24602">
        <ele>866</ele>
        <time>2011-11-22T14:42:01Z</time>
      </trkpt>
      <trkpt lat="43.91823" lon="7.24608">
        <ele>866</ele>
        <time>2011-11-22T14:42:05Z</time>
      </trkpt>
      <trkpt lat="43.91819" lon="7.24613">
        <ele>866</ele>
        <time>2011-11-22T14:42:10Z</time>
      </trkpt>
      <trkpt lat="43.91816" lon="7.24618">
        <ele>865</ele>
        <time>2011-11-22T14:42:15Z</time>
      </trkpt>
      <trkpt lat="43.91813" lon="7.24624">
        <ele>865</ele>
        <time>2011-11-22T14:42:22Z</time>
      </trkpt>
      <trkpt lat="43.91808" lon="7.24629">
        <ele>865</ele>
        <time>2011-11-22T14:42:29Z</time>
      </trkpt>
      <trkpt lat="43.91805" lon="7.24634">
        <ele>866</ele>
        <time>2011-11-22T14:42:35Z</time>
      </trkpt>
      <trkpt lat="43.91801" lon="7.24638">
        <ele>871</ele>
        <time>2011-11-22T14:42:45Z</time>
      </trkpt>
      <trkpt lat="43.91798" lon="7.24642">
        <ele>869</ele>
        <time>2011-11-22T14:42:49Z</time>
      </trkpt>
      <trkpt lat="43.91796" lon="7.24648">
        <ele>867</ele>
        <time>2011-11-22T14:42:55Z</time>
      </trkpt>
      <trkpt lat="43.91795" lon="7.24655">
        <ele>867</ele>
        <time>2011-11-22T14:43:05Z</time>
      </trkpt>
      <trkpt lat="43.91795" lon="7.24663">
        <ele>867</ele>
        <time>2011-11-22T14:43:09Z</time>
      </trkpt>
      <trkpt lat="43.91792" lon="7.24667">
        <ele>866</ele>
        <time>2011-11-22T14:43:14Z</time>
      </trkpt>
      <trkpt lat="43.91787" lon="7.24671">
        <ele>865</ele>
        <time>2011-11-22T14:43:18Z</time>
      </trkpt>
      <trkpt lat="43.91787" lon="7.24671">
        <ele>865</ele>
        <time>2011-11-22T14:43:18Z</time>
      </trkpt>
      <trkpt lat="43.91787" lon="7.24671">
        <ele>865</ele>
        <time>2011-11-22T14:43:19Z</time>
      </trkpt>
      <trkpt lat="43.91786" lon="7.24676">
        <ele>865</ele>
        <time>2011-11-22T14:43:25Z</time>
      </trkpt>
      <trkpt lat="43.91783" lon="7.24682">
        <ele>866</ele>
        <time>2011-11-22T14:43:35Z</time>
      </trkpt>
      <trkpt lat="43.9178" lon="7.24687">
        <ele>867</ele>
        <time>2011-11-22T14:43:40Z</time>
      </trkpt>
      <trkpt lat="43.91778" lon="7.24694">
        <ele>868</ele>
        <time>2011-11-22T14:43:44Z</time>
      </trkpt>
      <trkpt lat="43.91778" lon="7.24694">
        <ele>868</ele>
        <time>2011-11-22T14:43:44Z</time>
      </trkpt>
      <trkpt lat="43.91778" lon="7.24694">
        <ele>868</ele>
        <time>2011-11-22T14:43:45Z</time>
      </trkpt>
      <trkpt lat="43.91773" lon="7.24696">
        <ele>868</ele>
        <time>2011-11-22T14:43:49Z</time>
      </trkpt>
      <trkpt lat="43.91773" lon="7.24705">
        <ele>866</ele>
        <time>2011-11-22T14:43:52Z</time>
      </trkpt>
      <trkpt lat="43.91773" lon="7.24705">
        <ele>866</ele>
        <time>2011-11-22T14:43:52Z</time>
      </trkpt>
      <trkpt lat="43.91773" lon="7.24705">
        <ele>865</ele>
        <time>2011-11-22T14:43:53Z</time>
      </trkpt>
      <trkpt lat="43.91774" lon="7.24712">
        <ele>873</ele>
        <time>2011-11-22T14:44:02Z</time>
      </trkpt>
      <trkpt lat="43.91771" lon="7.24718">
        <ele>873</ele>
        <time>2011-11-22T14:44:04Z</time>
      </trkpt>
      <trkpt lat="43.91765" lon="7.24719">
        <ele>875</ele>
        <time>2011-11-22T14:44:09Z</time>
      </trkpt>
      <trkpt lat="43.91758" lon="7.24722">
        <ele>879</ele>
        <time>2011-11-22T14:44:14Z</time>
      </trkpt>
      <trkpt lat="43.91753" lon="7.24725">
        <ele>882</ele>
        <time>2011-11-22T14:44:16Z</time>
      </trkpt>
      <trkpt lat="43.91748" lon="7.24726">
        <ele>879</ele>
        <time>2011-11-22T14:44:20Z</time>
      </trkpt>
      <trkpt lat="43.91742" lon="7.2473">
        <ele>880</ele>
        <time>2011-11-22T14:44:24Z</time>
      </trkpt>
      <trkpt lat="43.91737" lon="7.24732">
        <ele>881</ele>
        <time>2011-11-22T14:44:30Z</time>
      </trkpt>
      <trkpt lat="43.91734" lon="7.24737">
        <ele>872</ele>
        <time>2011-11-22T14:44:41Z</time>
      </trkpt>
      <trkpt lat="43.9173" lon="7.2474">
        <ele>873</ele>
        <time>2011-11-22T14:44:48Z</time>
      </trkpt>
      <trkpt lat="43.91724" lon="7.24742">
        <ele>872</ele>
        <time>2011-11-22T14:44:53Z</time>
      </trkpt>
      <trkpt lat="43.91719" lon="7.24744">
        <ele>871</ele>
        <time>2011-11-22T14:44:57Z</time>
      </trkpt>
      <trkpt lat="43.91714" lon="7.24746">
        <ele>870</ele>
        <time>2011-11-22T14:45:26Z</time>
      </trkpt>
      <trkpt lat="43.91711" lon="7.24752">
        <ele>869</ele>
        <time>2011-11-22T14:45:33Z</time>
      </trkpt>
      <trkpt lat="43.91706" lon="7.2475">
        <ele>869</ele>
        <time>2011-11-22T14:45:39Z</time>
      </trkpt>
      <trkpt lat="43.91702" lon="7.24753">
        <ele>865</ele>
        <time>2011-11-22T14:45:55Z</time>
      </trkpt>
      <trkpt lat="43.91702" lon="7.24753">
        <ele>865</ele>
        <time>2011-11-22T14:45:55Z</time>
      </trkpt>
      <trkpt lat="43.91702" lon="7.24753">
        <ele>865</ele>
        <time>2011-11-22T14:45:58Z</time>
      </trkpt>
      <trkpt lat="43.917" lon="7.2476">
        <ele>863</ele>
        <time>2011-11-22T14:46:41Z</time>
      </trkpt>
      <trkpt lat="43.91696" lon="7.24762">
        <ele>863</ele>
        <time>2011-11-22T14:46:45Z</time>
      </trkpt>
      <trkpt lat="43.91692" lon="7.24764">
        <ele>863</ele>
        <time>2011-11-22T14:46:50Z</time>
      </trkpt>
      <trkpt lat="43.91688" lon="7.24768">
        <ele>865</ele>
        <time>2011-11-22T14:46:56Z</time>
      </trkpt>
      <trkpt lat="43.91684" lon="7.24774">
        <ele>863</ele>
        <time>2011-11-22T14:47:04Z</time>
      </trkpt>
      <trkpt lat="43.9169" lon="7.24771">
        <ele>864</ele>
        <time>2011-11-22T14:55:49Z</time>
      </trkpt>
      <trkpt lat="43.9169" lon="7.24771">
        <ele>864</ele>
        <time>2011-11-22T14:55:49Z</time>
      </trkpt>
      <trkpt lat="43.9169" lon="7.24771">
        <ele>864</ele>
        <time>2011-11-22T14:55:50Z</time>
      </trkpt>
      <trkpt lat="43.91693" lon="7.24766">
        <ele>870</ele>
        <time>2011-11-22T14:56:00Z</time>
      </trkpt>
      <trkpt lat="43.91698" lon="7.24765">
        <ele>873</ele>
        <time>2011-11-22T14:56:08Z</time>
      </trkpt>
      <trkpt lat="43.91693" lon="7.24764">
        <ele>873</ele>
        <time>2011-11-22T14:56:37Z</time>
      </trkpt>
      <trkpt lat="43.91692" lon="7.24771">
        <ele>873</ele>
        <time>2011-11-22T14:56:44Z</time>
      </trkpt>
      <trkpt lat="43.91691" lon="7.2478">
        <ele>871</ele>
        <time>2011-11-22T14:56:48Z</time>
      </trkpt>
      <trkpt lat="43.91692" lon="7.24786">
        <ele>868</ele>
        <time>2011-11-22T14:56:58Z</time>
      </trkpt>
      <trkpt lat="43.91692" lon="7.24806">
        <ele>862</ele>
        <time>2011-11-22T14:57:02Z</time>
      </trkpt>
      <trkpt lat="43.91689" lon="7.24815">
        <ele>861</ele>
        <time>2011-11-22T14:57:03Z</time>
      </trkpt>
      <trkpt lat="43.9169" lon="7.24823">
        <ele>860</ele>
        <time>2011-11-22T14:57:15Z</time>
      </trkpt>
      <trkpt lat="43.91689" lon="7.24829">
        <ele>857</ele>
        <time>2011-11-22T14:57:19Z</time>
      </trkpt>
      <trkpt lat="43.91685" lon="7.24834">
        <ele>859</ele>
        <time>2011-11-22T14:57:25Z</time>
      </trkpt>
      <trkpt lat="43.91682" lon="7.24841">
        <ele>860</ele>
        <time>2011-11-22T14:57:30Z</time>
      </trkpt>
      <trkpt lat="43.91677" lon="7.24844">
        <ele>862</ele>
        <time>2011-11-22T14:57:34Z</time>
      </trkpt>
      <trkpt lat="43.91673" lon="7.24848">
        <ele>862</ele>
        <time>2011-11-22T14:58:04Z</time>
      </trkpt>
      <trkpt lat="43.91671" lon="7.24855">
        <ele>863</ele>
        <time>2011-11-22T14:58:10Z</time>
      </trkpt>
      <trkpt lat="43.91669" lon="7.2486">
        <ele>861</ele>
        <time>2011-11-22T14:58:14Z</time>
      </trkpt>
      <trkpt lat="43.91665" lon="7.24866">
        <ele>858</ele>
        <time>2011-11-22T14:58:21Z</time>
      </trkpt>
      <trkpt lat="43.91665" lon="7.24866">
        <ele>858</ele>
        <time>2011-11-22T14:58:21Z</time>
      </trkpt>
      <trkpt lat="43.91665" lon="7.24866">
        <ele>858</ele>
        <time>2011-11-22T14:58:23Z</time>
      </trkpt>
      <trkpt lat="43.91661" lon="7.24871">
        <ele>856</ele>
        <time>2011-11-22T14:58:27Z</time>
      </trkpt>
      <trkpt lat="43.91656" lon="7.24873">
        <ele>854</ele>
        <time>2011-11-22T14:58:32Z</time>
      </trkpt>
      <trkpt lat="43.9165" lon="7.24877">
        <ele>853</ele>
        <time>2011-11-22T14:58:36Z</time>
      </trkpt>
      <trkpt lat="43.91646" lon="7.24879">
        <ele>852</ele>
        <time>2011-11-22T14:58:40Z</time>
      </trkpt>
      <trkpt lat="43.91641" lon="7.24881">
        <ele>852</ele>
        <time>2011-11-22T14:58:44Z</time>
      </trkpt>
      <trkpt lat="43.91636" lon="7.24882">
        <ele>851</ele>
        <time>2011-11-22T14:58:49Z</time>
      </trkpt>
      <trkpt lat="43.91631" lon="7.24883">
        <ele>850</ele>
        <time>2011-11-22T14:58:54Z</time>
      </trkpt>
      <trkpt lat="43.91626" lon="7.24883">
        <ele>850</ele>
        <time>2011-11-22T14:58:59Z</time>
      </trkpt>
      <trkpt lat="43.9162" lon="7.24885">
        <ele>849</ele>
        <time>2011-11-22T14:59:04Z</time>
      </trkpt>
      <trkpt lat="43.91615" lon="7.24885">
        <ele>848</ele>
        <time>2011-11-22T14:59:08Z</time>
      </trkpt>
      <trkpt lat="43.9161" lon="7.24888">
        <ele>848</ele>
        <time>2011-11-22T14:59:14Z</time>
      </trkpt>
      <trkpt lat="43.91605" lon="7.2489">
        <ele>849</ele>
        <time>2011-11-22T14:59:18Z</time>
      </trkpt>
      <trkpt lat="43.916" lon="7.24892">
        <ele>848</ele>
        <time>2011-11-22T14:59:22Z</time>
      </trkpt>
      <trkpt lat="43.91595" lon="7.24893">
        <ele>847</ele>
        <time>2011-11-22T14:59:26Z</time>
      </trkpt>
      <trkpt lat="43.9159" lon="7.24894">
        <ele>847</ele>
        <time>2011-11-22T14:59:30Z</time>
      </trkpt>
      <trkpt lat="43.91585" lon="7.24894">
        <ele>846</ele>
        <time>2011-11-22T14:59:33Z</time>
      </trkpt>
      <trkpt lat="43.9158" lon="7.24894">
        <ele>845</ele>
        <time>2011-11-22T14:59:37Z</time>
      </trkpt>
      <trkpt lat="43.91574" lon="7.24894">
        <ele>845</ele>
        <time>2011-11-22T14:59:41Z</time>
      </trkpt>
      <trkpt lat="43.91569" lon="7.24894">
        <ele>844</ele>
        <time>2011-11-22T14:59:45Z</time>
      </trkpt>
      <trkpt lat="43.91564" lon="7.24895">
        <ele>844</ele>
        <time>2011-11-22T14:59:49Z</time>
      </trkpt>
      <trkpt lat="43.91559" lon="7.24895">
        <ele>843</ele>
        <time>2011-11-22T14:59:53Z</time>
      </trkpt>
      <trkpt lat="43.91554" lon="7.24896">
        <ele>843</ele>
        <time>2011-11-22T14:59:57Z</time>
      </trkpt>
      <trkpt lat="43.9155" lon="7.24898">
        <ele>843</ele>
        <time>2011-11-22T15:00:01Z</time>
      </trkpt>
      <trkpt lat="43.91546" lon="7.249">
        <ele>846</ele>
        <time>2011-11-22T15:00:06Z</time>
      </trkpt>
      <trkpt lat="43.91546" lon="7.249">
        <ele>846</ele>
        <time>2011-11-22T15:00:06Z</time>
      </trkpt>
      <trkpt lat="43.91546" lon="7.249">
        <ele>848</ele>
        <time>2011-11-22T15:00:25Z</time>
      </trkpt>
      <trkpt lat="43.9155" lon="7.24896">
        <ele>847</ele>
        <time>2011-11-22T15:00:46Z</time>
      </trkpt>
      <trkpt lat="43.91554" lon="7.24894">
        <ele>847</ele>
        <time>2011-11-22T15:00:50Z</time>
      </trkpt>
      <trkpt lat="43.91559" lon="7.24892">
        <ele>847</ele>
        <time>2011-11-22T15:00:59Z</time>
      </trkpt>
      <trkpt lat="43.91565" lon="7.24891">
        <ele>847</ele>
        <time>2011-11-22T15:01:04Z</time>
      </trkpt>
      <trkpt lat="43.9157" lon="7.2489">
        <ele>847</ele>
        <time>2011-11-22T15:01:09Z</time>
      </trkpt>
      <trkpt lat="43.91575" lon="7.24887">
        <ele>847</ele>
        <time>2011-11-22T15:01:17Z</time>
      </trkpt>
      <trkpt lat="43.9158" lon="7.24886">
        <ele>848</ele>
        <time>2011-11-22T15:01:22Z</time>
      </trkpt>
      <trkpt lat="43.91586" lon="7.24885">
        <ele>848</ele>
        <time>2011-11-22T15:01:27Z</time>
      </trkpt>
      <trkpt lat="43.91591" lon="7.24883">
        <ele>847</ele>
        <time>2011-11-22T15:01:32Z</time>
      </trkpt>
      <trkpt lat="43.91596" lon="7.24881">
        <ele>847</ele>
        <time>2011-11-22T15:01:37Z</time>
      </trkpt>
      <trkpt lat="43.91601" lon="7.24878">
        <ele>849</ele>
        <time>2011-11-22T15:01:42Z</time>
      </trkpt>
      <trkpt lat="43.91606" lon="7.24878">
        <ele>848</ele>
        <time>2011-11-22T15:01:47Z</time>
      </trkpt>
      <trkpt lat="43.91611" lon="7.24878">
        <ele>849</ele>
        <time>2011-11-22T15:01:53Z</time>
      </trkpt>
      <trkpt lat="43.91613" lon="7.24872">
        <ele>849</ele>
        <time>2011-11-22T15:02:31Z</time>
      </trkpt>
      <trkpt lat="43.91613" lon="7.24872">
        <ele>849</ele>
        <time>2011-11-22T15:02:31Z</time>
      </trkpt>
    </trkseg>
  </trk>
</gpx>